GFSGL_con_sbcape_000.txt.gz
CAPE
877 1362 1210 209 288 556 291 291 375 773 358 200 283 895 701 354 291 220 340 218 263 186 242 250 202 192 185 278 361 557 335 454 218 252 210 499 299 342 214 219 36 0 0
1150 1004 1036 585 311 822 505 453 385 608 652 238 205 142 299 287 185 253 210 218 168 160 167 124 74 119 228 299 425 410 542 617 295 203 196 317 261 356 87 71 2 0 0
1673 762 822 788 998 1004 716 675 586 582 389 340 366 430 257 44 13 0 0 0 0 0 0 0 0 3 32 25 188 268 456 377 383 231 175 241 109 70 165 39 14 0 0
1135 984 674 736 575 1008 1187 1012 838 578 364 226 77 84 122 116 24 0 0 0 0 0 0 0 0 0 0 0 54 31 122 157 186 123 108 71 87 188 188 115 19 0 0
978 1249 1212 668 905 769 1131 887 734 557 441 222 30 129 79 11 6 1 0 0 0 0 0 0 0 0 0 0 0 0 0 110 146 105 61 74 108 254 237 101 205 54 0
622 1313 1217 888 784 594 956 613 693 552 397 239 172 81 60 0 0 0 0 2 0 0 0 0 0 0 0 0 0 0 0 0 110 76 170 102 91 1 0 0 0 0 0
1019 1141 720 993 800 634 453 581 605 386 232 136 0 0 0 0 0 0 2 14 1 3 1 1 0 0 0 0 0 0 0 0 0 6 5 0 0 0 0 0 0 0 0
1347 879 703 742 488 500 517 263 278 125 31 6 3 1 0 0 0 0 5 11 2 0 0 0 0 0 0 0 0 0 0 0 0 0 0 0 0 0 0 0 0 0 0
1382 1140 546 273 318 111 207 170 42 6 0 0 0 0 0 0 0 0 0 0 0 0 0 0 0 0 0 0 0 0 0 0 0 0 0 0 0 0 0 0 0 0 0
5 35 0 2 4 5 3 0 0 0 0 0 1 0 0 0 0 0 0 0 0 0 0 0 0 0 0 0 0 0 0 0 0 0 0 0 0 0 0 0 0 0 0
2 2 3 2 4 5 2 0 0 0 1 3 5 2 2 0 0 0 0 0 0 0 0 0 0 0 0 0 0 0 0 0 0 0 0 0 0 0 0 0 0 0 0
3 5 7 3 7 2 1 2 2 2 2 2 1 1 2 1 0 0 0 0 0 0 0 0 0 0 0 0 0 0 0 0 0 0 0 3 0 0 0 0 0 0 0
2 4 4 6 7 7 2 2 2 2 1 2 2 1 2 2 1 0 0 0 0 1 0 0 0 0 0 0 0 0 0 0 0 0 0 0 0 0 0 4 5 8 4
3 4 4 6 8 9 7 10 3 6 2 2 2 4 4 3 2 3 1 0 0 0 0 0 0 0 0 0 0 0 0 0 0 0 0 0 0 0 0 0 0 0 0
1 0 0 0 0 0 0 0 0 0 0 0 0 0 0 0 0 0 0 0 0 0 0 0 3 6 5 4 0 0 0 0 0 0 0 0 0 0 0 0 0 0 0
0 0 0 0 0 0 0 0 0 0 0 0 0 0 0 0 0 0 0 0 0 0 1 7 9 4 0 0 0 5 8 0 0 0 0 0 0 0 0 0 0 0 0
0 0 0 0 0 0 0 0 0 0 0 0 0 0 0 0 0 0 0 0 0 0 0 0 0 0 1 5 9 4 1 8 7 21 0 0 0 0 0 0 0 0 0
0 0 0 0 0 0 0 0 0 0 0 0 0 0 0 0 0 0 0 0 0 0 0 0 4 9 28 22 14 3 0 2 0 0 3 5 0 0 0 0 0 0 0
0 0 0 2 1 1 4 2 0 0 0 0 0 0 0 0 0 0 0 0 0 0 0 0 0 2 2 0 0 16 6 7 0 2 15 2 0 0 0 0 0 0 0
3 4 1 0 0 2 5 4 4 11 20 0 0 0 0 0 0 0 0 0 0 0 0 0 2 0 0 3 17 11 17 21 29 11 3 1 3 0 0 0 0 2 7
0 0 0 7 11 0 0 3 5 0 13 0 0 0 0 0 0 0 0 0 0 0 0 0 0 0 6 15 8 7 13 11 12 0 0 1 0 0 0 0 0 0 5
5 7 11 6 0 1 8 3 5 1 4 0 0 0 0 0 0 0 0 0 0 0 0 0 0 0 0 0 1 7 0 19 6 0 0 0 0 0 0 0 0 2 1
31 26 15 10 5 0 0 0 4 6 4 0 0 0 0 0 0 0 0 0 0 0 0 0 0 1 2 11 9 22 10 8 0 0 0 0 0 1 0 0 0 0 0
30 3 0 24 7 2 3 6 8 0 0 0 0 0 0 0 0 0 0 0 0 0 6 1 0 0 0 0 1 9 0 0 0 0 0 0 0 0 0 0 0 0 0
4 15 0 32 13 14 13 18 21 0 0 0 0 0 0 0 0 0 0 0 0 10 0 0 0 0 0 0 0 0 0 0 0 0 0 0 0 0 0 0 0 0 0
0 0 0 6 26 16 27 9 6 0 0 0 0 0 0 0 0 0 0 0 0 5 5 0 1 0 0 0 0 0 0 0 0 0 0 0 0 0 0 0 0 0 0

GFSGL_con_sbcape_003.txt.gz
CAPE
478 642 102 137 165 21 29 25 66 32 47 43 114 156 79 38 41 108 98 123 98 47 26 70 40 22 93 104 41 45 27 86 21 81 63 153 147 100 81 20 0 0 0
702 692 161 41 305 169 113 76 88 135 48 12 33 37 10 0 10 46 53 44 54 66 37 18 21 25 0 1 34 65 161 135 60 105 106 63 64 60 0 0 0 0 0
886 506 524 228 211 99 127 104 84 33 30 20 35 12 10 0 0 0 0 0 0 0 0 0 0 0 0 0 0 3 26 54 108 133 106 11 0 2 0 0 0 0 0
794 590 439 379 257 344 211 201 76 51 2 12 9 1 0 0 0 0 0 0 0 0 0 0 0 0 0 0 0 0 0 38 76 64 5 2 8 18 0 0 0 0 0
784 664 256 153 233 365 216 193 103 54 0 2 0 0 0 0 0 0 0 0 0 0 0 0 0 0 0 0 0 0 0 0 65 82 66 55 61 54 84 22 0 0 0
541 705 357 109 160 238 179 133 88 48 15 0 0 0 0 0 0 0 0 0 0 0 0 0 0 0 0 0 0 0 0 0 23 73 28 0 1 0 0 0 0 0 0
300 707 477 188 154 126 51 17 0 0 0 0 0 0 0 0 0 0 0 0 0 0 0 1 5 3 0 0 0 0 0 0 0 0 0 0 0 0 0 0 0 0 0
946 449 284 146 69 26 8 0 0 0 0 0 0 0 0 0 0 0 0 0 0 0 0 0 0 0 0 0 0 0 0 0 0 0 0 0 0 0 0 0 0 0 0
133 141 2 10 21 3 0 0 0 0 0 0 0 0 0 0 0 0 0 0 0 0 0 0 0 0 0 0 0 0 0 0 0 0 0 0 0 0 0 0 0 0 0
2 1 0 0 0 0 0 0 0 0 0 0 0 0 0 0 0 0 0 0 0 0 0 0 0 0 0 0 0 0 0 0 0 0 0 0 0 0 0 0 0 0 0
1 1 0 0 2 0 0 0 0 0 0 0 2 1 0 0 0 0 0 0 0 0 0 0 0 0 0 0 0 0 0 0 0 0 0 0 0 0 0 0 0 0 0
1 2 2 3 1 2 0 1 0 0 0 1 1 1 1 0 0 0 0 0 0 0 0 0 0 0 0 0 0 0 0 0 0 0 0 0 0 0 0 0 0 0 0
1 2 2 1 2 2 1 1 1 0 0 1 1 1 1 1 0 0 0 0 0 0 0 0 0 0 0 0 0 0 0 0 0 0 0 0 0 0 0 0 0 0 0
2 2 5 3 3 1 0 0 0 0 1 1 1 1 1 0 0 0 0 0 0 0 0 0 0 0 0 0 0 0 0 0 0 0 0 0 0 0 0 0 0 0 0
0 0 0 0 0 0 0 0 0 0 0 0 0 0 0 0 0 0 0 0 0 0 0 0 0 0 0 0 0 0 0 0 0 0 0 0 0 0 0 0 0 0 0
0 0 0 0 0 0 0 0 0 0 0 0 0 0 0 0 0 0 0 0 0 0 0 0 0 0 0 0 0 0 0 0 0 0 0 0 0 0 0 0 0 0 0
0 0 0 0 0 0 0 0 0 0 0 0 0 0 0 0 0 0 0 0 0 0 0 0 0 0 0 0 0 0 0 0 0 0 0 0 0 0 0 0 0 0 0
0 0 0 0 0 0 0 0 0 0 0 0 0 0 0 0 0 0 0 0 0 0 0 0 0 0 0 0 0 0 0 0 0 0 0 0 0 0 0 0 0 0 0
0 0 0 0 0 0 0 0 0 0 0 0 0 0 0 0 0 0 0 0 0 0 0 0 0 0 0 0 0 0 0 0 0 0 0 0 0 0 0 0 0 0 0
0 0 0 0 0 0 0 0 0 0 0 0 0 0 0 0 0 0 0 0 0 0 0 0 0 0 0 0 0 0 0 0 0 0 0 0 0 0 0 0 0 0 0
0 0 0 0 0 0 0 0 0 0 0 0 0 0 0 0 0 0 0 0 0 0 0 0 0 0 0 0 0 0 0 0 0 0 0 0 0 0 0 0 0 0 0
0 0 0 0 0 0 0 0 0 0 0 0 0 0 0 0 0 0 0 0 0 0 0 0 0 0 0 0 0 0 0 0 0 0 0 0 0 0 0 0 0 0 0
2 1 0 0 0 0 0 0 0 0 0 0 0 0 0 0 0 0 0 0 0 0 0 0 0 0 0 0 0 0 0 0 0 0 0 0 0 0 0 0 0 0 0
2 0 0 0 0 0 0 0 0 0 0 0 0 0 0 0 0 0 0 0 0 0 0 0 0 0 0 0 0 0 0 0 0 0 0 0 0 0 0 0 0 0 0
0 0 0 0 0 0 0 0 0 0 0 0 0 0 0 0 0 0 0 0 0 0 0 0 0 0 0 0 0 0 0 0 0 0 0 0 0 0 0 0 0 0 0
0 0 0 0 0 0 0 0 0 0 0 0 0 0 0 0 0 0 0 0 0 0 0 0 0 0 0 0 0 0 0 0 0 0 0 0 0 0 0 0 0 0 0

GFSGL_con_sbcape_006.txt.gz
CAPE
243 57 0 0 0 0 0 0 5 8 2 24 26 10 2 7 3 7 14 17 5 18 7 15 0 0 0 16 30 10 35 11 1 27 35 61 101 105 9 0 0 0 0
289 64 0 0 0 0 12 18 4 0 0 23 0 3 1 1 0 1 6 1 0 2 0 32 0 32 7 0 0 4 28 21 4 38 24 15 20 16 5 0 0 0 0
414 275 10 0 0 0 0 10 6 0 0 4 0 0 0 0 0 0 0 0 0 0 0 0 0 0 0 0 0 0 0 0 8 13 1 0 0 0 0 0 0 0 0
577 159 159 36 39 10 35 16 6 0 0 0 0 0 0 0 0 0 0 0 0 0 0 0 0 0 0 0 0 0 0 0 6 9 2 9 6 0 0 0 0 0 0
484 166 105 46 45 63 33 0 0 0 0 0 0 0 0 0 0 0 0 0 0 1 1 1 1 1 1 0 0 0 0 0 0 23 34 31 11 14 0 0 0 0 0
607 207 95 83 119 52 14 0 0 1 0 0 0 0 0 0 0 0 0 0 0 0 1 0 0 1 2 1 0 0 0 0 23 18 27 0 1 0 0 0 0 0 0
404 309 146 211 46 1 0 0 0 0 0 0 0 0 0 0 0 0 0 0 0 0 1 0 2 3 0 0 0 0 0 0 0 3 0 0 0 0 0 0 0 0 0
222 179 29 1 0 1 0 0 0 0 0 0 0 0 0 0 0 0 0 0 0 0 0 0 0 0 0 0 0 0 0 0 0 0 0 0 0 0 0 0 0 0 0
1 25 9 0 1 0 0 0 0 0 0 0 0 0 0 0 0 0 0 0 0 0 0 0 0 0 0 0 0 0 0 0 0 0 0 0 0 0 0 0 0 0 0
2 1 2 0 0 0 0 0 0 0 0 0 0 0 0 0 0 0 0 0 0 0 0 0 0 0 0 0 0 0 0 0 0 0 0 0 0 0 0 0 0 0 0
1 1 1 0 0 0 0 0 0 0 0 0 0 0 0 0 0 0 0 0 0 0 0 0 0 0 0 0 0 0 0 0 0 0 0 0 0 0 0 0 0 0 0
1 1 1 2 3 1 0 0 0 0 0 0 0 0 0 1 0 0 0 0 0 0 0 0 0 0 0 0 0 0 0 0 0 0 0 0 0 0 0 0 0 0 0
1 1 2 2 2 2 1 2 1 0 0 0 0 0 1 0 0 0 0 0 0 0 0 0 0 0 0 0 0 0 0 0 0 0 0 0 0 0 0 0 0 0 0
1 1 2 1 1 1 1 1 0 0 0 0 1 1 0 0 0 0 0 0 0 0 0 0 0 0 0 0 0 0 0 0 0 0 0 0 0 0 0 0 0 0 0
0 0 0 0 0 0 0 0 0 0 0 0 0 0 0 0 0 0 0 0 0 0 0 0 0 0 0 0 0 0 0 0 0 0 0 0 0 0 0 0 0 0 0
0 0 0 0 0 0 0 0 0 0 0 0 0 0 0 0 0 0 0 0 0 0 0 0 0 0 0 0 0 0 0 0 0 0 0 0 0 0 0 0 0 0 0
0 0 0 0 0 0 0 0 0 0 0 0 0 0 0 0 0 0 0 0 0 0 0 0 0 0 0 0 0 0 0 0 0 0 0 0 0 0 0 0 0 0 0
0 0 0 0 0 0 0 0 0 0 0 0 0 0 0 0 0 0 0 0 0 0 0 0 0 0 0 0 0 0 0 0 0 0 0 0 0 0 0 0 0 0 0
0 0 0 0 0 0 0 0 0 0 0 0 0 0 0 0 0 0 0 0 0 0 0 0 0 0 0 0 0 0 0 0 0 0 0 0 0 0 0 0 0 0 0
0 0 0 0 0 0 0 0 0 0 0 0 0 0 0 0 0 0 0 0 0 0 0 0 0 0 0 0 0 0 0 0 0 0 0 0 0 0 0 0 0 0 0
0 0 0 0 0 0 0 0 0 0 0 0 0 0 0 0 0 0 0 0 0 0 0 0 0 0 0 0 0 0 0 0 0 0 0 0 0 0 0 0 0 0 0
0 0 0 0 0 0 0 0 0 0 0 0 0 0 0 0 0 0 0 0 0 0 0 0 0 0 0 0 0 0 0 0 0 0 0 0 0 0 0 0 0 0 0
0 0 0 0 0 0 0 0 0 0 0 0 0 0 0 0 0 0 0 0 0 0 0 0 0 0 0 0 0 0 0 0 0 0 0 0 0 0 0 0 0 0 0
0 0 0 0 0 0 0 0 0 0 0 0 0 0 0 0 0 0 0 0 0 0 0 0 0 0 0 0 0 0 0 0 0 0 0 0 0 0 0 0 0 0 0
0 0 0 0 0 0 0 0 0 0 0 0 0 0 0 0 0 0 0 0 0 0 0 0 0 0 0 0 0 0 0 0 0 0 0 0 0 0 0 0 0 0 0
0 0 0 0 0 0 0 0 0 0 0 0 0 0 0 0 0 0 0 0 0 0 0 0 0 0 0 0 0 0 0 0 0 0 0 0 0 0 0 0 0 0 0

GFSGL_con_sbcape_009.txt.gz
CAPE
84 0 0 0 0 0 2 0 0 0 0 0 0 0 1 0 0 0 0 1 1 1 0 0 1 0 0 9 11 4 3 9 5 1 1 0 1 2 1 0 0 0 0
104 0 0 0 0 0 0 0 0 0 1 0 1 1 1 1 1 0 15 9 7 1 1 0 1 4 3 8 2 4 2 8 3 0 1 1 2 1 0 0 0 0 0
142 4 0 0 0 0 0 0 0 0 0 0 0 0 0 0 0 0 0 0 1 1 1 2 3 2 1 1 1 0 0 1 0 1 1 0 1 0 0 0 0 0 0
239 163 11 0 0 0 0 0 0 0 0 0 0 0 0 0 0 0 0 0 1 0 0 0 0 0 0 0 0 0 0 0 0 0 0 1 0 0 0 0 0 0 0
321 104 86 2 0 0 0 0 0 0 0 0 0 0 0 0 0 0 0 0 0 0 0 1 1 2 0 0 0 0 0 0 1 1 1 7 1 1 0 0 0 0 0
370 179 80 11 21 0 0 1 1 0 0 0 0 0 0 0 0 0 0 0 0 0 0 1 1 2 3 3 3 2 0 0 0 0 2 3 0 0 0 0 0 0 0
229 443 88 72 0 1 1 0 0 0 0 0 0 0 0 0 0 0 0 0 0 0 0 1 3 3 0 0 0 0 0 0 0 0 0 0 0 0 0 0 0 0 0
1 111 4 0 1 1 0 0 0 0 0 0 0 0 0 0 0 0 0 0 0 0 0 0 0 0 0 0 0 0 0 0 0 0 0 0 0 0 0 0 0 0 0
1 0 4 0 1 1 0 0 0 0 0 0 0 0 0 0 0 0 0 0 0 0 0 0 0 0 0 0 0 0 0 0 0 0 0 0 0 0 0 0 0 0 0
2 1 1 0 0 0 1 0 0 0 0 0 0 0 0 0 0 0 0 0 0 0 0 0 0 0 0 0 0 0 0 0 0 0 0 0 0 0 0 0 0 0 0
1 1 0 0 1 0 0 0 0 0 0 0 0 0 0 0 0 0 0 0 0 0 0 0 0 0 0 0 0 0 0 0 0 0 0 0 0 0 0 0 0 0 0
1 1 1 4 4 1 0 0 0 0 0 0 0 1 1 0 0 0 0 0 0 0 0 0 0 0 0 0 0 0 0 0 0 0 0 0 0 0 0 0 0 0 0
1 1 1 1 4 5 2 1 1 1 1 0 0 1 0 1 0 0 0 0 0 0 0 0 0 0 0 0 0 0 0 0 0 0 0 0 0 0 0 0 0 0 0
1 1 1 0 1 1 1 1 1 0 0 0 0 0 0 0 0 0 0 0 0 0 0 0 0 0 0 0 0 0 0 0 0 0 0 0 0 0 0 0 0 0 0
0 0 0 0 0 0 0 0 0 0 0 0 0 0 0 0 0 0 0 0 0 0 0 0 0 0 0 0 0 0 0 0 0 0 0 0 0 0 0 0 0 0 0
0 0 0 0 0 0 0 0 0 0 0 0 0 0 0 0 0 0 0 0 0 0 0 0 0 0 0 0 0 0 0 0 0 0 0 0 0 0 0 0 0 0 0
0 0 0 0 0 0 0 0 0 0 0 0 0 0 0 0 0 0 0 0 0 0 0 0 0 0 0 0 0 0 0 0 0 0 0 0 0 0 0 0 0 0 0
0 0 0 0 0 0 0 0 0 0 0 0 0 0 0 0 0 0 0 0 0 0 0 0 0 0 0 0 0 0 0 0 0 0 0 0 0 0 0 0 0 0 0
0 0 0 0 0 0 0 0 0 0 0 0 0 0 0 0 0 0 0 0 0 0 0 0 0 0 0 0 0 0 0 0 0 0 0 0 0 0 0 0 0 0 0
0 0 0 0 0 0 0 0 0 0 0 0 0 0 0 0 0 0 0 0 0 0 0 0 0 0 0 0 0 0 0 0 0 0 0 0 0 0 0 0 0 0 0
0 0 0 0 0 0 0 0 0 0 0 0 0 0 0 0 0 0 0 0 0 0 0 0 0 0 0 0 0 0 0 0 0 0 0 0 0 0 0 0 0 0 0
0 0 0 0 0 0 0 0 0 0 0 0 0 0 0 0 0 0 0 0 0 0 0 0 0 0 0 0 0 0 0 0 0 0 0 0 0 0 0 0 0 0 0
0 0 0 0 0 0 0 0 0 0 0 0 0 0 0 0 0 0 0 0 0 0 0 0 0 0 0 0 0 0 0 0 0 0 0 0 0 0 0 0 0 0 0
0 0 0 0 0 0 0 0 0 0 0 0 0 0 0 0 0 0 0 0 0 0 0 0 0 0 0 0 0 0 0 0 0 0 0 0 0 0 0 0 0 0 0
0 0 0 0 0 0 0 0 0 0 0 0 0 0 0 0 0 0 0 0 0 0 0 0 0 0 0 0 0 0 0 0 0 0 0 0 0 0 0 0 0 0 0
0 0 0 0 0 0 0 0 0 0 0 0 0 0 0 0 0 0 0 0 0 0 0 0 0 0 0 0 0 0 0 0 0 0 0 0 0 0 0 0 0 0 0

GFSGL_con_sbcape_012.txt.gz
CAPE
41 5 0 0 0 0 0 0 0 0 1 5 1 1 2 21 38 44 1 2 3 16 5 26 37 40 112 85 46 12 22 25 24 3 13 5 20 8 2 1 0 0 1
110 5 0 0 0 0 0 0 0 1 0 1 2 2 3 2 2 1 7 11 4 8 15 8 36 44 12 10 5 4 11 13 7 10 3 2 3 2 0 0 2 0 1
90 9 0 7 0 0 0 0 0 0 1 1 2 2 2 1 1 1 1 1 1 1 2 0 4 2 1 2 2 1 3 4 1 5 2 2 4 0 0 0 0 0 0
63 66 0 0 0 0 0 1 0 0 1 1 2 2 2 1 1 1 1 1 1 1 1 1 1 1 1 2 2 1 1 2 0 1 2 2 2 2 0 0 0 0 0
127 153 57 0 0 0 1 3 0 0 0 0 0 1 0 0 0 0 0 0 1 1 1 1 3 6 4 2 0 1 0 0 0 0 1 2 6 2 0 1 2 1 1
179 68 42 24 10 0 2 2 0 0 0 0 0 1 1 1 0 0 0 1 1 1 1 1 1 1 1 1 1 2 0 0 0 1 11 4 3 2 1 3 2 0 2
24 232 14 17 1 1 0 0 0 0 0 0 0 0 2 1 0 0 0 0 0 0 2 3 2 0 0 0 0 0 0 0 0 0 0 0 0 1 1 1 1 2 3
1 11 9 1 1 2 0 0 0 0 0 0 0 0 0 0 0 0 0 0 0 0 0 0 0 0 0 0 0 0 0 0 0 0 1 0 0 0 0 0 1 0 2
1 1 1 0 0 1 0 0 0 0 0 0 0 0 0 0 0 0 0 0 0 0 0 0 0 0 0 0 0 0 0 0 0 0 0 0 0 0 0 0 0 0 0
2 1 1 2 2 0 0 0 0 0 0 0 0 0 0 0 0 0 0 0 0 0 0 0 0 0 0 0 0 0 0 0 0 0 0 0 0 0 0 0 0 0 0
1 1 0 1 1 1 0 0 0 0 0 0 0 0 0 0 0 0 0 0 0 0 0 0 0 0 0 0 0 0 0 0 0 0 0 0 0 0 0 0 0 0 0
1 1 1 1 1 1 0 1 1 1 2 2 0 1 2 1 0 0 0 0 0 0 0 0 0 0 0 0 0 0 0 0 0 0 0 0 0 0 0 0 0 0 0
1 1 1 1 1 1 1 2 1 1 1 1 1 1 2 3 1 0 0 0 0 0 0 0 0 0 0 0 0 0 0 0 0 0 0 0 0 0 0 0 0 0 0
1 1 1 1 1 1 1 0 0 0 1 0 1 1 2 1 0 0 0 0 0 0 0 0 0 0 0 0 0 0 0 0 0 0 0 0 0 0 0 0 0 0 0
0 1 1 1 1 0 0 1 0 0 0 1 0 0 0 0 0 0 0 0 0 0 0 0 0 0 0 0 0 0 0 0 0 0 0 0 0 0 0 0 0 0 0
0 0 0 0 0 0 0 0 0 0 0 0 0 0 0 0 0 0 0 0 0 0 0 0 0 0 0 0 0 0 0 0 0 0 0 0 0 0 0 0 0 0 0
0 0 0 0 0 0 0 0 0 0 0 0 0 0 0 0 0 0 0 0 0 0 0 0 0 0 0 0 0 0 0 0 0 0 0 0 0 0 0 0 0 0 0
0 0 0 0 0 0 0 0 0 0 0 0 0 0 0 0 0 0 0 0 0 0 0 0 0 0 0 0 0 0 0 0 0 0 0 0 0 0 0 0 0 0 0
0 0 0 0 0 0 0 0 0 0 0 0 0 0 0 0 0 0 0 0 0 0 0 0 0 0 0 0 0 0 0 0 0 0 0 0 0 0 0 0 0 0 0
0 0 0 0 0 0 0 0 0 0 0 0 0 0 0 0 0 0 0 0 0 0 0 0 0 0 0 0 0 0 0 0 0 0 0 0 0 0 0 0 0 0 0
0 0 0 0 0 0 0 0 0 0 0 0 0 0 0 0 0 0 0 0 0 0 0 0 0 0 0 0 0 0 0 0 0 0 0 0 0 0 0 0 0 0 0
0 0 0 0 0 0 0 0 0 0 0 0 0 0 0 0 0 0 0 0 0 0 0 0 0 0 0 0 0 0 0 0 0 0 0 0 0 0 0 0 0 0 0
0 0 0 0 0 0 0 0 0 0 0 0 0 0 0 0 0 0 0 0 0 0 0 0 0 0 0 0 0 0 0 0 0 0 0 0 0 0 0 0 0 0 0
0 0 0 0 0 0 0 0 0 0 0 0 0 0 0 0 0 0 0 0 0 0 0 0 0 0 0 0 0 0 0 0 0 0 0 0 0 0 0 0 0 0 0
0 0 0 0 0 0 0 0 0 0 0 0 0 0 0 0 0 0 0 0 0 0 0 0 0 0 0 0 0 0 0 0 0 0 0 0 0 0 0 0 0 0 0
0 0 0 0 0 0 0 0 0 0 0 0 0 0 0 0 0 0 0 0 0 0 0 0 0 0 0 0 0 0 0 0 0 0 0 0 0 0 0 0 0 0 0

GFSGL_con_sbcape_015.txt.gz
CAPE
802 728 286 233 191 247 214 243 260 174 196 117 33 29 147 430 623 498 299 191 247 262 239 242 488 537 648 602 619 581 496 360 295 169 82 49 39 23 8 9 6 9 5
863 765 370 430 265 209 204 200 171 87 85 120 11 8 6 18 206 426 192 159 60 64 110 131 216 466 537 615 551 338 40 27 44 12 27 31 4 3 3 2 4 5 4
896 877 439 534 558 326 170 130 76 72 65 46 35 12 8 8 5 4 3 3 2 4 53 152 114 151 82 42 21 36 22 71 89 65 14 7 8 9 3 2 3 3 5
912 913 683 502 591 377 161 76 39 31 32 24 25 10 8 7 8 8 6 5 4 3 2 2 2 1 1 2 3 3 6 7 7 17 13 7 3 3 3 3 3 4 4
907 863 976 464 496 314 33 26 11 9 10 10 14 10 5 1 1 6 7 8 3 2 2 2 4 5 4 3 2 1 1 7 19 24 22 23 12 8 7 4 6 7 8
823 901 1083 751 487 186 2 9 8 8 8 10 9 8 6 0 0 0 3 6 5 6 5 4 2 2 2 0 0 1 1 1 4 9 5 5 3 5 4 6 5 6 6
661 897 960 773 583 98 4 7 8 8 4 5 10 9 7 3 0 0 0 4 4 5 6 1 0 0 0 0 0 0 0 0 0 0 0 2 0 0 3 5 4 2 5
18 392 990 672 421 2 7 9 5 8 2 1 2 1 1 0 0 0 0 2 0 0 0 0 0 0 0 0 0 0 0 0 0 0 1 1 0 1 4 4 1 2 2
2 2 69 342 44 6 7 5 3 3 7 2 1 1 0 0 0 0 0 0 0 0 0 0 0 0 0 0 0 0 0 0 0 0 0 0 0 0 0 0 1 1 0
2 4 2 48 3 5 6 4 5 5 3 0 0 0 0 0 0 0 0 0 0 0 0 0 0 0 0 0 0 0 0 0 0 0 0 0 0 0 0 0 0 0 0
3 3 2 1 1 1 3 3 2 1 2 0 0 0 0 0 0 0 0 0 0 0 0 0 0 0 0 0 0 0 0 0 0 0 0 0 0 0 0 0 0 0 0
4 4 3 2 2 1 2 4 2 3 5 2 1 1 1 0 0 0 0 0 0 0 0 0 0 0 0 0 0 0 0 0 0 0 0 0 0 0 0 0 0 0 0
4 4 4 3 2 2 3 4 3 5 5 6 1 4 4 4 1 0 0 0 0 0 0 0 0 0 0 0 0 0 0 0 0 0 0 0 0 0 0 0 0 0 3
4 4 4 4 4 2 1 3 2 1 1 1 3 5 8 7 5 1 0 0 0 0 0 0 0 0 0 0 0 0 0 0 0 0 0 0 0 0 0 0 0 0 0
2 2 3 3 2 2 1 1 2 2 1 2 3 6 0 0 0 0 0 0 0 0 0 0 0 0 0 0 0 0 0 0 0 0 0 0 0 0 0 0 0 0 0
0 0 0 0 0 0 0 0 0 0 0 0 0 0 0 0 0 0 0 0 0 0 0 0 0 0 0 0 0 0 0 0 0 0 0 0 0 0 0 0 0 0 0
0 0 0 0 0 0 0 0 0 0 0 0 0 0 0 0 0 0 0 0 0 0 0 0 0 0 0 0 0 0 0 0 0 0 0 0 0 0 0 0 0 0 0
0 0 0 0 0 0 0 0 0 0 0 0 0 0 0 0 0 0 0 0 0 0 0 0 0 0 0 0 0 0 0 0 0 0 0 0 0 0 0 0 0 0 0
0 0 0 0 0 0 0 0 0 0 0 0 0 0 0 0 0 0 0 0 0 0 0 0 0 0 0 0 0 0 0 0 0 0 0 0 0 0 0 0 0 0 0
0 0 0 0 0 0 0 0 0 0 0 0 0 0 0 0 0 0 0 0 0 0 0 0 0 0 0 0 0 0 0 0 0 0 0 0 0 0 0 0 0 0 0
0 0 0 0 0 0 0 0 0 0 0 0 0 0 0 0 0 0 0 0 0 0 0 0 0 0 0 0 0 0 0 0 0 0 0 0 0 0 0 0 0 0 0
0 0 0 0 0 0 0 0 0 0 0 0 0 0 0 0 0 0 0 0 0 0 0 0 0 0 0 0 0 0 0 0 0 0 0 0 0 0 0 0 0 0 0
0 0 0 0 0 0 0 0 0 0 0 0 0 0 0 0 0 0 0 0 0 0 0 0 0 0 0 0 0 0 0 0 0 0 0 0 0 0 0 0 0 0 0
0 0 0 0 0 0 0 0 0 0 0 0 0 0 0 0 0 0 0 0 0 0 0 0 0 0 0 0 0 0 0 0 0 0 0 0 0 0 0 0 0 0 0
0 0 0 3 0 0 0 0 0 0 0 0 0 0 0 0 0 0 0 0 0 0 0 0 0 0 0 0 0 0 0 0 0 0 0 0 0 0 0 0 0 0 0
0 0 0 0 0 0 0 0 0 0 0 0 0 0 0 0 0 0 0 0 0 0 0 0 0 0 0 0 0 0 0 0 0 0 0 0 0 0 0 0 0 0 0

GFSGL_con_sbcape_021.txt.gz
CAPE
1459 978 892 882 823 1411 849 874 688 707 813 699 493 370 468 868 1240 1382 983 872 975 870 751 715 741 1044 1581 2369 2505 1991 1362 1570 1020 567 403 456 20 10 6 9 11 6 7
1446 1225 1040 959 836 927 800 715 768 431 818 624 459 425 436 95 388 434 211 225 365 303 345 432 440 695 893 1143 1369 1207 1102 1034 834 558 342 10 5 4 4 3 5 10 6
1521 1380 1062 1019 1172 1032 822 503 643 246 232 293 223 168 306 221 69 42 20 8 9 8 7 5 28 114 51 65 80 105 140 323 216 145 93 5 6 4 4 5 5 5 7
1319 1202 1215 1161 1212 1102 664 421 425 174 285 208 195 96 161 48 28 19 18 15 8 8 7 8 10 9 15 12 8 14 33 23 8 5 6 7 10 8 7 6 3 5 6
1414 1344 1370 1309 1119 1162 680 388 225 88 66 24 51 26 12 11 3 20 7 5 11 9 8 4 3 3 3 1 5 11 29 26 35 29 12 6 6 8 7 8 6 7 7
1364 1330 1723 1587 1332 1300 719 259 275 6 13 8 9 12 8 0 0 0 3 15 1 3 11 10 8 0 0 0 0 0 0 35 21 4 5 4 7 6 10 6 5 4 3
2413 1794 1681 1809 1840 1414 882 347 61 9 7 9 11 13 9 0 0 0 0 5 7 6 5 2 1 0 1 0 0 0 0 0 0 10 5 4 7 7 14 9 7 6 7
1651 1482 1589 1808 1964 1693 1082 581 56 6 4 4 9 11 5 0 0 0 0 14 9 10 7 9 6 1 0 0 0 0 0 0 0 0 3 4 6 18 6 4 4 3 4
847 277 208 569 1146 1033 1044 311 64 18 6 3 11 13 10 0 0 0 0 15 16 12 0 0 0 0 0 0 0 0 0 0 0 0 0 0 0 0 0 7 15 18 3
2 6 9 9 116 485 410 69 53 18 12 8 10 10 0 0 0 0 0 10 8 0 0 0 0 0 0 0 14 10 5 2 1 0 0 0 0 0 0 0 0 5 55
3 3 6 4 3 1 0 1 18 24 13 12 3 1 0 0 0 0 0 9 14 5 0 0 0 0 0 0 0 4 1 0 0 0 0 0 0 0 0 0 0 0 0
2 5 4 6 3 1 1 0 0 4 11 11 9 6 3 0 0 0 0 0 0 0 0 0 0 0 0 0 0 0 0 0 0 0 0 0 0 0 0 0 0 0 0
4 9 9 6 5 3 1 1 0 1 4 5 0 2 3 0 0 0 0 0 0 0 0 0 0 0 0 0 0 0 0 0 0 0 0 0 0 0 0 0 0 0 0
8 8 7 6 4 4 4 4 2 1 3 1 2 8 3 3 0 0 0 0 0 0 0 0 0 0 0 0 0 0 0 0 0 0 0 0 0 0 0 0 0 0 4
8 5 4 1 1 2 3 4 4 2 1 3 6 5 7 3 0 0 0 0 0 0 0 0 0 0 0 0 0 0 0 0 0 0 0 0 0 0 0 0 0 0 0
6 3 0 0 0 0 0 0 0 0 0 0 0 0 0 0 0 0 0 0 0 0 0 0 0 0 0 0 0 0 0 0 0 0 0 0 0 0 0 0 0 0 0
0 0 0 0 0 0 0 0 0 0 0 0 0 0 0 0 0 0 0 0 0 0 0 0 0 0 0 0 0 0 0 0 0 0 0 0 0 0 0 0 0 0 0
0 0 0 0 0 0 1 6 2 4 0 0 0 0 0 0 0 0 0 0 0 0 0 0 0 0 0 0 0 0 0 0 0 0 0 0 0 0 0 0 0 0 0
0 0 0 0 0 0 0 0 0 0 0 0 0 0 0 0 0 0 0 0 0 0 0 0 0 0 0 0 0 0 0 0 0 0 0 0 0 0 0 0 0 0 0
0 0 0 0 0 0 0 0 0 0 0 0 0 0 0 0 0 0 0 0 0 0 0 0 0 0 0 0 0 0 0 0 0 0 0 0 0 0 0 0 0 0 0
0 0 0 0 0 0 0 0 0 0 0 0 0 0 0 0 0 0 0 0 0 0 0 0 0 0 0 0 0 0 0 0 0 0 0 0 0 0 0 0 0 0 0
0 0 0 0 0 1 0 2 3 1 0 0 0 0 0 0 0 0 0 0 0 0 0 0 0 0 0 0 0 0 0 0 0 0 0 0 0 0 0 0 0 0 0
1 2 2 10 10 0 13 22 22 21 16 9 4 0 0 0 0 0 0 0 0 0 0 0 0 0 0 0 0 0 0 0 0 2 1 2 0 0 0 0 0 0 0
11 14 21 21 16 31 40 45 26 2 20 18 24 23 15 12 6 4 0 0 1 1 0 0 0 0 0 0 0 0 0 0 0 0 0 0 0 0 0 0 0 0 0
33 28 60 59 36 10 14 41 7 22 14 32 26 36 36 34 32 29 29 15 15 6 3 3 1 0 0 0 0 0 0 0 0 0 0 0 0 0 0 0 0 0 0
26 40 9 16 20 21 3 12 12 12 13 24 48 40 56 57 68 78 68 94 68 24 14 24 22 7 9 13 4 0 0 0 0 0 0 0 0 0 0 0 0 0 0

GFSGL_con_sbcape_024.txt.gz
CAPE
2327 2096 1854 1797 1647 1703 1107 1143 827 988 811 533 413 370 231 325 827 941 579 865 781 782 700 697 725 703 726 640 1222 848 492 351 459 298 148 6 3 3 2 3 3 3 5
2456 2045 2109 2029 1614 1295 1143 1122 860 749 594 325 212 512 530 197 34 44 53 57 58 43 9 159 199 381 416 462 750 696 641 504 406 253 123 3 3 5 5 3 5 8 5
2202 2077 2037 2085 1720 1611 969 980 728 516 400 212 146 335 47 11 12 15 15 5 7 5 4 5 3 3 3 0 10 108 143 160 153 114 2 4 5 5 3 4 3 2 9
2067 1961 2033 2038 1974 1404 1237 945 684 629 367 284 112 71 61 27 5 9 10 10 8 6 4 4 5 5 12 11 9 6 5 6 2 2 2 5 6 6 5 3 2 3 4
2298 1893 2526 1593 1592 1392 1007 875 626 399 15 91 105 39 14 1 0 6 5 6 6 3 3 0 0 0 0 0 1 8 12 7 3 1 1 1 2 2 2 3 4 2 2
2331 1645 2535 1917 1844 1336 1114 707 528 77 5 173 34 6 0 0 0 0 3 4 6 7 3 12 2 0 0 0 0 0 0 28 0 1 3 5 5 3 5 2 2 3 3
2138 2195 1918 1712 1787 1227 1053 332 359 16 3 57 27 10 0 0 0 0 0 13 12 16 21 16 4 0 1 0 0 0 0 0 0 0 0 7 5 0 3 2 3 1 3
1739 1328 1289 1216 1726 1513 1251 637 367 12 0 0 19 12 0 0 0 0 0 14 11 0 0 3 0 0 0 0 0 0 0 0 0 0 0 1 0 7 2 0 0 0 0
678 509 169 43 312 1682 453 207 108 21 12 19 19 21 1 0 0 0 0 3 1 0 0 0 0 0 0 0 0 0 0 0 0 0 0 0 0 0 0 2 4 2 2
10 0 2 4 2 619 417 74 12 22 5 10 4 0 0 0 0 0 0 9 0 0 0 0 0 0 0 0 30 18 6 7 0 0 0 0 0 0 0 0 0 0 8
1 3 3 2 2 1 0 0 5 3 9 1 2 1 0 0 0 0 0 0 13 11 0 0 0 0 0 0 0 0 0 0 0 2 2 2 1 0 0 0 0 0 0
4 3 3 2 2 1 0 0 0 0 0 0 3 0 0 0 0 0 0 0 0 0 0 0 0 0 0 0 0 0 0 0 0 4 0 0 0 0 0 0 0 0 0
7 6 4 3 2 1 1 0 0 0 0 0 0 2 1 0 0 0 0 0 0 0 0 0 0 0 0 0 0 0 0 0 0 0 0 0 0 0 0 6 7 0 0
5 4 2 1 1 1 2 1 1 1 1 0 0 1 0 0 0 0 0 0 0 0 0 0 0 0 0 0 0 0 0 0 0 0 0 0 0 0 0 0 18 18 7
5 2 1 2 1 1 1 2 3 2 1 1 0 0 1 0 0 0 0 0 0 0 0 0 0 0 0 1 0 0 3 0 4 0 0 0 0 0 0 0 0 0 1
5 1 0 0 0 0 0 0 0 0 0 0 0 0 0 0 0 0 0 0 0 0 0 0 0 7 5 8 11 9 0 0 0 0 0 0 0 0 0 0 0 0 0
2 0 0 0 0 0 0 0 0 0 0 0 0 0 0 0 0 0 0 0 0 0 0 0 27 15 10 0 0 0 2 0 0 0 0 0 0 0 0 0 0 0 4
1 0 11 10 1 0 1 0 0 0 0 0 0 0 0 0 0 0 0 0 0 0 0 1 17 8 0 0 0 2 3 0 0 0 0 0 0 0 0 0 0 0 0
0 0 0 0 0 0 0 0 0 0 0 0 0 0 0 0 0 0 0 0 0 0 9 7 1 0 0 0 0 0 0 0 0 0 0 0 0 0 0 0 0 0 0
0 0 0 0 0 0 0 0 0 0 0 0 0 0 0 0 0 0 0 0 0 1 2 1 4 1 0 0 0 0 0 0 0 0 0 0 10 0 0 0 0 0 0
0 0 0 0 0 0 0 0 0 0 0 0 0 0 0 0 0 0 0 0 0 0 10 2 0 0 3 4 0 0 0 0 3 6 4 1 12 0 0 0 0 0 0
0 0 0 0 0 0 0 0 1 0 0 0 0 0 0 0 0 0 2 0 2 8 0 0 0 0 0 1 1 0 0 0 0 3 11 3 0 6 3 0 0 0 0
0 0 0 4 6 0 12 20 17 37 30 31 10 0 0 0 0 0 0 0 0 0 0 0 0 0 0 0 0 0 0 0 0 6 19 13 8 4 2 0 0 0 0
10 18 40 4 11 20 31 41 22 1 9 13 19 40 8 5 15 39 18 24 16 10 20 0 0 0 0 0 0 0 0 0 0 0 0 0 0 0 0 0 0 0 0
32 42 40 30 8 22 27 10 7 11 5 9 14 33 10 24 10 40 78 112 96 78 79 84 60 17 29 42 7 0 0 0 0 0 0 0 0 0 0 0 0 0 0
1 0 1 4 2 6 5 13 20 36 2 0 21 45 65 57 45 61 88 129 93 104 47 110 68 40 7 37 11 0 0 0 0 0 0 0 0 0 0 0 0 0 0

GFSGL_con_sbcape_027.txt.gz
CAPE
1226 1081 810 718 531 385 415 63 222 36 6 5 114 27 4 0 0 0 0 0 0 0 0 20 41 23 27 47 68 74 102 42 37 6 7 10 9 6 6 2 3 3 5
1087 716 808 641 449 415 413 88 7 6 8 6 11 7 1 4 0 0 0 0 0 1 0 0 0 0 0 0 18 43 44 31 11 17 7 4 5 3 2 2 6 6 5
1033 999 1012 748 498 340 242 95 63 19 1 2 2 0 0 1 3 0 0 0 0 0 0 0 0 0 0 0 0 0 0 0 0 0 1 5 8 4 3 3 2 3 8
1233 1145 1091 757 557 355 233 82 59 44 0 0 0 0 0 0 4 2 0 0 0 0 0 0 0 0 0 0 0 0 0 0 0 1 2 4 5 6 4 2 2 4 3
1646 1313 1164 1127 720 462 260 61 2 0 0 2 0 0 0 0 0 0 0 0 0 0 0 0 0 0 0 0 0 0 0 0 0 0 0 0 2 4 2 2 3 1 2
1396 1394 1216 1031 666 397 115 33 0 0 12 0 0 0 0 0 0 0 3 1 3 3 0 0 0 0 0 0 0 0 0 0 0 0 0 0 0 2 2 0 0 1 1
1568 1506 1118 1022 645 507 162 37 0 0 1 0 0 0 0 0 0 0 3 0 0 0 0 0 0 0 0 0 0 0 0 0 0 0 0 0 0 0 0 0 0 0 0
668 293 129 148 301 510 193 65 0 0 0 1 0 0 0 0 0 0 0 0 0 0 0 0 0 0 0 0 0 0 0 0 0 0 0 0 0 0 0 0 0 0 0
0 0 0 0 0 255 231 9 0 0 0 0 0 0 0 0 0 0 0 0 0 0 0 0 0 0 0 0 0 0 0 0 0 0 0 0 0 0 0 0 0 0 0
0 0 0 0 0 183 132 3 0 0 0 0 0 0 0 0 0 0 0 0 0 0 0 0 0 0 0 0 0 0 0 0 0 0 0 0 0 0 0 0 0 0 0
0 0 0 0 0 0 0 0 1 0 0 0 0 0 0 0 0 0 0 0 0 0 0 0 0 0 0 0 0 0 0 0 0 0 0 0 0 0 0 0 0 0 0
0 0 0 0 0 0 0 0 0 0 0 0 0 0 0 0 0 0 0 0 0 0 0 0 0 0 0 0 0 0 0 0 0 0 0 0 0 0 0 0 0 0 0
0 0 0 0 0 0 0 0 0 0 0 0 0 0 0 0 0 0 0 0 0 0 0 0 0 0 0 0 0 0 0 0 0 0 0 0 0 0 0 0 0 0 0
0 0 0 0 0 0 0 0 0 0 0 0 0 0 0 0 0 0 0 0 0 0 0 0 0 0 0 0 0 0 0 0 0 0 0 0 0 0 0 0 0 0 0
0 0 0 0 0 0 0 0 0 0 0 0 0 0 0 0 0 0 0 0 0 0 0 0 0 0 0 0 0 0 0 0 0 0 0 0 0 0 0 0 0 0 0
0 0 0 0 0 0 0 0 0 0 0 0 0 0 0 0 0 0 0 0 0 0 0 0 0 0 0 0 0 0 0 0 0 0 0 0 0 0 0 0 0 0 0
0 0 0 0 0 0 0 0 0 0 0 0 0 0 0 0 0 0 0 0 0 0 0 0 0 0 0 0 0 0 0 0 0 0 0 0 0 0 0 0 0 0 0
0 0 0 0 0 0 0 0 0 0 0 0 0 0 0 0 0 0 0 0 0 0 0 0 0 0 0 0 0 0 0 0 0 0 0 0 0 0 0 0 0 0 0
0 0 0 0 0 0 0 0 0 0 0 0 0 0 0 0 0 0 0 0 0 0 0 0 0 0 0 0 0 0 0 0 0 0 0 0 0 0 0 0 0 0 0
0 0 0 0 0 0 0 0 0 0 0 0 0 0 0 0 0 0 0 0 0 0 0 0 0 0 0 0 0 0 0 0 0 0 0 0 0 0 0 0 0 0 0
0 0 0 0 0 0 0 0 0 0 0 0 0 0 0 0 0 0 0 0 0 0 0 0 0 0 0 0 0 0 0 0 0 0 0 0 0 0 0 0 0 0 0
0 0 0 0 0 0 0 0 0 0 0 0 0 0 0 0 0 0 0 0 0 0 0 0 0 0 0 0 0 0 0 0 0 0 0 0 0 0 0 0 0 0 0
0 0 0 0 0 0 0 1 0 2 2 0 0 0 0 0 0 0 0 0 0 0 0 0 0 0 0 0 0 0 0 0 0 0 0 0 0 0 0 0 0 0 0
0 0 0 0 0 0 2 9 2 0 0 0 0 0 0 0 0 0 0 0 0 0 0 0 0 0 0 0 0 0 0 0 0 0 0 0 0 0 0 0 0 0 0
0 1 0 0 0 0 0 0 0 0 0 0 0 0 0 0 0 0 0 0 0 0 0 0 0 0 0 0 0 0 0 0 0 0 0 0 0 0 0 0 0 0 0
0 0 0 0 0 0 0 0 0 0 0 0 0 0 0 0 0 0 0 0 0 0 0 0 0 0 0 0 0 0 0 0 0 0 0 0 0 0 0 0 0 0 0

GFSGL_con_sbcape_030.txt.gz
CAPE
814 737 527 309 196 68 0 0 0 0 0 11 11 0 0 0 0 0 0 0 0 0 0 0 0 0 0 1 0 4 14 1 0 4 3 2 3 2 2 1 3 2 5
911 594 521 295 230 96 0 0 0 0 0 0 0 0 0 0 0 0 0 0 0 0 0 0 0 0 0 0 0 0 0 0 0 1 3 5 3 3 3 3 4 6 5
794 587 386 333 250 100 2 0 0 0 0 0 0 0 0 0 0 0 0 0 0 0 0 0 0 0 1 0 0 0 0 0 0 3 4 6 7 3 2 2 4 3 7
677 609 539 349 189 29 2 0 0 0 0 0 0 0 0 0 0 0 0 0 0 0 0 0 0 0 0 0 1 0 0 0 0 1 3 5 6 5 3 2 2 3 2
822 685 751 444 116 4 5 0 0 0 0 0 0 0 0 0 0 0 0 0 0 0 0 0 0 0 0 0 0 0 0 0 0 2 3 6 6 3 2 2 3 1 1
1065 932 731 510 155 42 1 0 0 0 0 0 0 0 0 0 0 0 0 0 0 0 0 0 0 0 0 0 0 0 0 0 0 0 0 0 0 0 1 0 1 1 2
1124 910 737 506 253 24 0 0 0 0 0 0 0 0 0 0 0 0 0 0 0 0 0 0 0 0 0 0 0 0 0 0 0 0 0 0 0 0 0 0 0 0 0
50 19 56 222 279 65 1 0 0 0 0 0 0 0 0 0 0 0 0 0 0 0 0 0 0 0 0 0 0 0 0 0 0 0 0 0 0 0 0 0 0 0 0
0 0 1 0 0 229 91 0 0 0 0 0 0 0 0 0 0 0 0 0 0 0 0 0 0 0 0 0 0 0 0 0 0 0 0 0 0 0 0 0 0 0 0
1 2 0 0 0 177 47 0 0 0 0 0 0 0 0 0 0 0 0 0 0 0 0 0 0 0 0 0 0 0 0 0 0 0 0 0 0 0 0 0 0 0 0
0 0 0 0 1 1 0 0 0 0 0 0 0 0 0 0 0 0 0 0 0 0 0 0 0 0 0 0 0 0 0 0 0 0 0 0 0 0 0 0 0 0 0
2 1 0 0 0 0 0 0 0 0 0 0 0 0 0 0 0 0 0 0 0 0 0 0 0 0 0 0 0 0 0 0 0 0 0 0 0 0 0 0 0 0 0
0 0 0 0 0 0 0 0 0 0 0 0 0 0 0 0 0 0 0 0 0 0 0 0 0 0 0 0 0 0 0 0 0 0 0 0 0 0 0 0 0 0 0
1 0 0 0 0 0 0 0 0 0 0 0 0 0 0 0 0 0 0 0 0 0 0 0 0 0 0 0 0 0 0 0 0 0 0 0 0 0 0 0 0 0 0
0 0 0 0 0 0 0 0 0 0 0 0 0 0 0 0 0 0 0 0 0 0 0 0 0 0 0 0 0 0 0 0 0 0 0 0 0 0 0 0 0 0 0
0 0 0 0 0 0 0 0 0 0 0 0 0 0 0 0 0 0 0 0 0 0 0 0 0 0 0 0 0 0 0 0 0 0 0 0 0 0 0 0 0 0 0
0 0 0 0 0 0 0 0 0 0 0 0 0 0 0 0 0 0 0 0 0 0 0 0 0 0 0 0 0 0 0 0 0 0 0 0 0 0 0 0 0 0 0
0 0 0 0 0 0 0 0 0 0 0 0 0 0 0 0 0 0 0 0 0 0 0 0 0 0 0 0 0 0 0 0 0 0 0 0 0 0 0 0 0 0 0
0 0 0 0 0 0 0 0 0 0 0 0 0 0 0 0 0 0 0 0 0 0 0 0 0 0 0 0 0 0 0 0 0 0 0 0 0 0 0 0 0 0 0
0 0 0 0 0 0 0 0 0 0 0 0 0 0 0 0 0 0 0 0 0 0 0 0 0 0 0 0 0 0 0 0 0 0 0 0 0 0 0 0 0 0 0
0 0 0 0 0 0 0 0 0 0 0 0 0 0 0 0 0 0 0 0 0 0 0 0 0 0 0 0 0 0 0 0 0 0 0 0 0 0 0 0 0 0 0
0 0 0 0 0 0 0 0 0 0 0 0 0 0 0 0 0 0 0 0 0 0 0 0 0 0 0 0 0 0 0 0 0 0 0 0 0 0 0 0 0 0 0
0 0 0 0 0 0 0 0 0 0 0 0 0 0 0 0 0 0 0 0 0 0 0 0 0 0 0 0 0 0 0 0 0 0 0 0 0 0 0 0 0 0 0
0 0 0 0 0 0 0 0 0 0 0 0 0 0 0 0 0 0 0 0 0 0 0 0 0 0 0 0 0 0 0 0 0 0 0 0 0 0 0 0 0 0 0
0 0 0 0 0 0 0 0 0 0 0 0 0 0 0 0 0 0 0 0 0 0 0 0 0 0 0 0 0 0 0 0 0 0 0 0 0 0 0 0 0 0 0
0 0 0 0 0 0 0 0 0 0 0 0 0 0 0 0 0 0 0 0 0 0 0 0 0 0 0 0 0 0 0 0 0 0 0 0 0 0 0 0 0 0 0

GFSGL_con_sbcape_033.txt.gz
CAPE
634 465 114 92 0 0 0 0 0 0 0 0 0 0 0 0 0 0 0 0 0 0 0 0 0 0 0 0 2 2 1 0 0 4 3 3 2 2 2 1 2 2 5
662 437 197 94 11 0 0 0 0 0 0 0 0 0 0 0 0 0 0 0 0 0 0 0 1 0 0 0 0 1 1 0 0 0 2 3 2 2 3 2 4 4 4
665 343 199 132 47 0 0 0 0 0 0 0 0 0 0 0 0 0 0 0 0 0 0 0 0 0 1 1 0 1 1 1 0 1 2 3 4 3 2 2 3 2 4
546 346 228 164 55 0 0 0 0 0 0 0 0 0 0 0 0 0 0 0 0 0 0 0 0 0 1 0 1 1 0 1 1 1 2 3 3 4 3 3 2 1 2
613 428 320 104 36 21 5 0 0 0 0 0 0 0 0 0 0 0 0 0 0 0 0 0 0 0 0 0 0 0 0 0 1 2 3 3 5 3 1 2 2 1 1
747 550 411 83 48 44 1 0 0 0 0 0 0 0 0 0 0 0 0 0 0 0 0 0 0 0 0 0 0 0 0 0 0 0 1 2 3 0 0 1 1 1 1
1049 844 626 175 96 44 0 0 0 0 0 0 0 0 0 0 0 0 0 0 0 0 0 0 0 0 0 0 0 0 0 0 0 0 0 0 0 0 0 0 0 0 0
317 283 291 261 127 38 13 0 0 0 0 0 0 0 0 0 0 0 0 0 0 0 0 0 0 0 0 0 0 0 0 0 0 0 0 0 0 0 0 0 0 0 0
0 0 0 7 136 98 54 1 0 0 0 0 0 0 0 0 0 0 0 0 0 0 0 0 0 0 0 0 0 0 0 0 0 0 0 0 0 0 0 0 0 0 0
0 1 2 0 0 70 150 0 0 0 0 0 0 0 0 0 0 0 0 0 0 0 0 0 0 0 0 0 0 0 0 0 0 0 0 0 0 0 0 0 0 0 0
0 0 0 0 1 17 1 0 0 0 0 0 0 0 0 0 0 0 0 0 0 0 0 0 0 0 0 0 0 0 0 0 0 0 0 0 0 0 0 0 0 0 0
0 0 0 1 0 1 0 0 0 0 0 0 0 0 0 0 0 0 0 0 0 0 0 0 0 0 0 0 0 0 0 0 0 0 0 0 0 0 0 0 0 0 0
0 0 1 1 0 0 0 0 0 0 0 0 0 0 0 0 0 0 0 0 0 0 0 0 0 0 0 0 0 0 0 0 0 0 0 0 0 0 0 0 0 0 0
8 8 0 0 0 0 0 0 0 0 0 0 0 0 0 0 0 0 0 0 0 0 0 0 0 0 0 0 0 0 0 0 0 0 0 0 0 0 0 0 0 0 0
2 0 0 0 0 0 0 0 0 0 0 0 0 0 0 0 0 0 0 0 0 0 0 0 0 0 0 0 0 0 0 0 0 0 0 0 0 0 0 0 0 0 0
0 0 0 0 0 0 0 0 0 0 0 0 0 0 0 0 0 0 0 0 0 0 0 0 0 0 0 0 0 0 0 0 0 0 0 0 0 0 0 0 0 0 0
0 0 0 0 0 0 0 0 0 0 0 0 0 0 0 0 0 0 0 0 0 0 0 0 0 0 0 0 0 0 0 0 0 0 0 0 0 0 0 0 0 0 0
0 0 0 0 0 0 0 0 0 0 0 0 0 0 0 0 0 0 0 0 0 0 0 0 0 0 0 0 0 0 0 0 0 0 0 0 0 0 0 0 0 0 0
0 0 0 0 0 0 0 0 0 0 0 0 0 0 0 0 0 0 0 0 0 0 0 0 0 0 0 0 0 0 0 0 0 0 0 0 0 0 0 0 0 0 0
0 0 0 0 0 0 0 0 0 0 0 0 0 0 0 0 0 0 0 0 0 0 0 0 0 0 0 0 0 0 0 0 0 0 0 0 0 0 0 0 0 0 0
0 0 0 0 0 0 0 0 0 0 0 0 0 0 0 0 0 0 0 0 0 0 0 0 0 0 0 0 0 0 0 0 0 0 0 0 0 0 0 0 0 0 0
0 0 0 0 0 0 0 0 0 0 0 0 0 0 0 0 0 0 0 0 0 0 0 0 0 0 0 0 0 0 0 0 0 0 0 0 0 0 0 0 0 0 0
0 0 0 0 0 0 0 0 0 0 0 0 0 0 0 0 0 0 0 0 0 0 0 0 0 0 0 0 0 0 0 0 0 0 0 0 0 0 0 0 0 0 0
0 0 0 0 0 0 0 0 0 0 0 0 0 0 0 0 0 0 0 0 0 0 0 0 0 0 0 0 0 0 0 0 0 0 0 0 0 0 0 0 0 0 0
0 0 0 0 0 0 0 0 0 0 0 0 0 0 0 0 0 0 0 0 0 0 0 0 0 0 0 0 0 0 0 0 0 0 0 0 0 0 0 0 0 0 0
0 0 0 0 0 0 0 0 0 0 0 0 0 0 0 0 0 0 0 0 0 0 0 0 0 0 0 0 0 0 0 0 0 0 0 0 0 0 0 0 0 0 0

GFSGL_con_sbcape_036.txt.gz
CAPE
301 158 89 57 0 0 0 0 0 0 0 0 0 0 0 0 0 0 0 0 0 1 1 1 3 2 4 4 75 131 45 16 4 7 5 4 4 4 5 4 4 7 9
523 241 140 48 0 0 0 0 0 0 0 0 0 0 0 0 0 0 0 1 1 1 1 2 0 2 1 3 4 5 21 3 1 1 4 4 5 4 4 4 5 4 5
344 273 181 104 23 0 0 0 0 0 0 0 0 0 0 0 0 0 0 1 1 0 0 1 3 4 2 1 3 2 3 3 4 4 5 5 7 5 4 3 3 1 3
501 297 147 101 52 8 0 0 0 0 0 0 0 0 0 0 0 0 0 0 0 0 0 0 1 2 2 2 2 1 3 2 3 2 3 5 6 5 5 3 2 1 2
568 479 149 74 42 12 11 0 0 0 0 0 0 0 0 0 0 0 0 0 0 0 0 0 0 2 2 1 0 1 2 3 3 3 4 4 5 4 2 4 3 2 3
552 594 195 116 74 19 9 0 0 0 0 0 0 0 0 0 0 0 0 0 0 0 0 0 0 0 0 0 0 0 0 1 1 3 5 5 5 2 1 2 1 1 3
548 512 395 163 134 30 0 0 0 0 0 0 0 0 0 0 0 0 0 0 0 0 0 0 0 0 0 0 0 0 0 0 0 0 3 1 3 0 0 1 0 1 2
391 659 503 278 158 32 0 0 0 0 0 0 0 0 0 0 0 0 0 0 0 0 0 0 0 0 0 0 0 0 0 0 0 0 0 0 0 0 0 0 0 0 2
3 21 20 184 128 59 6 0 0 0 0 0 0 0 0 0 0 0 0 0 0 0 0 0 0 0 0 0 0 0 0 0 0 0 0 0 0 0 0 0 0 0 0
1 2 0 0 17 101 32 0 0 0 0 0 0 0 0 0 0 0 0 0 0 0 0 0 0 0 0 0 0 0 0 0 0 0 0 0 0 0 0 0 0 10 24
2 1 0 1 1 0 25 0 0 0 0 0 0 0 0 0 0 0 0 0 0 0 0 0 0 0 0 0 0 0 0 0 0 0 0 0 0 0 0 0 0 0 0
3 1 2 1 3 1 0 1 1 0 0 0 0 0 0 0 0 0 0 0 0 0 0 0 0 0 0 0 0 0 0 0 0 0 0 0 0 0 0 0 0 0 0
5 5 2 0 0 1 1 1 1 0 0 0 0 0 0 0 0 0 0 0 0 0 0 0 0 0 0 0 0 0 0 0 0 0 0 0 0 0 0 0 0 0 0
1 1 0 0 0 0 0 0 0 0 0 0 0 0 0 0 0 0 0 0 0 0 0 0 0 0 0 0 0 0 0 0 0 0 0 0 0 0 0 0 0 0 0
3 4 0 0 0 0 0 0 0 0 0 0 0 0 0 0 0 0 0 0 0 0 0 0 0 0 0 0 0 0 0 0 0 0 0 0 0 0 0 0 0 0 0
0 0 0 0 0 0 0 0 0 0 0 0 0 0 0 0 0 0 0 0 0 0 0 0 0 0 0 0 0 0 0 0 0 0 0 0 0 0 0 0 0 0 0
0 1 1 1 1 1 0 0 0 0 0 0 0 0 0 0 0 0 0 0 0 0 0 0 0 0 0 0 0 0 0 0 0 0 0 0 0 0 0 0 0 0 0
0 0 0 0 0 0 0 0 0 0 0 0 0 0 0 0 0 0 0 0 0 0 0 0 0 0 0 0 0 0 0 0 0 0 0 0 0 0 0 0 0 0 0
0 0 0 0 0 0 0 0 0 0 0 0 0 0 0 0 0 0 0 0 0 0 0 0 0 0 0 0 0 0 0 0 0 0 0 0 0 0 0 0 0 0 0
0 0 0 0 0 0 0 0 0 0 0 0 0 0 0 0 0 0 0 0 0 0 0 0 0 0 0 0 0 0 0 0 0 0 0 0 0 0 0 0 0 0 0
0 0 0 0 0 0 0 0 0 0 0 0 0 0 0 0 0 0 0 0 0 0 0 0 0 0 0 0 0 0 0 0 0 0 0 0 0 0 0 0 0 0 0
0 0 0 0 0 0 0 0 0 0 0 0 0 0 0 0 0 0 0 0 0 0 0 0 0 0 0 0 0 0 0 0 0 0 0 0 0 0 0 0 0 0 0
0 0 0 0 0 0 0 0 0 0 0 0 0 0 0 0 0 0 0 0 0 0 0 0 0 0 0 0 0 0 0 0 0 0 0 0 0 0 0 0 0 0 0
0 0 0 0 0 0 0 0 0 0 0 0 0 0 0 0 0 0 0 0 0 0 0 0 0 0 0 0 0 0 0 0 0 0 0 0 0 0 0 0 0 0 0
0 0 0 0 0 0 0 0 0 0 0 0 0 0 0 0 0 0 0 0 0 0 0 0 0 0 0 0 0 0 0 0 0 0 0 0 0 0 0 0 0 0 0
0 0 0 0 0 0 0 0 0 0 0 0 0 0 0 0 0 0 0 0 0 0 0 0 0 0 0 0 0 0 0 0 0 0 0 0 0 0 0 0 0 0 0

GFSGL_con_sbcape_039.txt.gz
CAPE
609 923 751 452 392 229 127 125 85 4 5 5 9 9 8 7 6 6 6 12 14 15 12 7 5 25 41 346 808 770 228 158 16 12 9 9 7 6 6 7 7 9 8
459 770 830 474 369 242 121 55 15 3 3 5 5 3 3 4 4 5 6 9 10 10 10 8 4 7 5 8 20 67 409 384 27 7 9 6 7 5 7 5 6 5 7
1265 981 803 563 444 227 116 48 2 2 2 2 3 2 1 1 3 7 6 7 7 8 12 10 8 15 10 1 3 3 6 9 13 10 8 8 10 9 7 5 6 3 2
1294 1266 1125 814 632 289 161 92 20 2 3 5 7 5 1 0 0 0 0 1 1 4 9 8 4 3 13 10 6 14 8 5 7 5 6 6 7 7 6 5 4 3 2
1542 1462 1313 1018 660 333 231 122 33 1 2 3 2 2 2 0 0 0 0 0 0 0 0 2 7 3 2 2 11 25 27 14 7 7 6 6 6 6 5 5 4 3 2
1686 1686 1397 1140 685 343 396 174 47 2 1 1 0 0 1 0 0 0 0 0 0 0 0 0 0 1 0 0 0 0 0 34 34 21 13 12 12 8 5 4 2 6 4
1033 1651 1422 1196 882 492 335 128 51 3 0 0 0 0 2 0 0 0 0 0 0 0 0 0 0 0 0 0 0 0 0 0 0 37 21 38 46 45 22 6 6 6 4
736 1140 1282 846 933 659 158 112 33 2 0 0 0 0 2 0 0 0 0 0 0 0 0 0 0 0 0 0 0 0 0 0 0 0 0 3 29 42 32 27 21 1 6
426 380 96 564 843 380 132 132 29 2 0 0 0 0 0 0 0 0 0 0 0 0 0 0 0 0 0 0 0 0 0 0 0 0 0 0 0 0 1 29 35 60 56
123 21 10 107 282 258 293 223 58 0 0 0 0 0 0 0 0 0 0 0 0 0 0 0 0 0 0 0 0 0 0 0 0 0 0 0 0 0 0 0 0 5 27
2 1 2 4 77 137 218 137 10 2 0 0 0 0 0 0 0 0 0 0 0 0 0 0 0 0 0 0 0 0 0 0 0 0 0 0 0 0 0 0 0 0 17
3 4 3 5 8 24 67 3 2 2 0 0 0 0 0 0 0 0 0 0 0 0 0 0 0 0 0 0 0 0 0 0 0 0 0 0 0 0 0 0 0 0 0
3 10 5 2 3 2 2 2 3 1 1 0 0 0 0 0 0 0 0 0 0 0 0 0 0 0 0 0 0 0 0 0 0 0 0 0 0 0 0 0 0 8 11
3 6 6 8 7 2 2 4 3 5 1 3 1 2 0 0 0 0 0 0 0 0 0 0 0 0 0 0 0 0 0 0 0 0 0 0 0 0 0 0 0 0 0
5 4 4 3 1 1 1 3 2 2 1 2 0 0 0 0 0 0 0 0 0 0 0 0 0 0 0 0 0 0 0 0 0 0 0 0 0 0 0 0 0 0 0
1 1 0 0 1 1 1 0 0 0 0 0 0 0 0 0 0 0 0 0 0 0 0 0 0 0 0 0 0 0 0 0 0 0 0 0 0 0 0 0 0 0 0
1 1 0 0 1 2 1 0 0 0 0 0 0 0 0 0 0 0 0 0 0 0 0 0 0 0 0 0 0 0 0 0 0 0 0 0 0 0 0 0 0 0 0
5 0 1 1 0 0 1 1 1 1 0 0 0 0 0 0 0 0 0 0 0 0 0 0 0 0 0 0 0 0 0 0 0 0 0 0 0 0 0 0 0 1 2
3 1 1 0 0 0 0 0 0 0 0 0 0 0 0 0 0 0 0 0 0 0 0 0 0 0 0 0 0 0 0 0 0 0 0 0 0 0 0 0 0 0 0
0 0 0 0 0 0 0 0 0 0 0 0 0 0 0 0 0 0 0 0 0 0 0 0 0 0 0 0 0 0 0 0 0 0 0 0 0 0 0 0 0 0 1
0 0 0 0 0 0 0 0 0 0 0 0 0 0 0 0 0 0 0 0 0 0 0 0 0 0 0 0 0 1 1 2 0 0 2 4 6 10 8 7 9 13 19
0 0 0 0 0 0 0 0 0 0 0 0 0 0 0 0 0 0 0 0 0 0 0 0 0 0 0 0 0 0 0 1 0 0 0 0 2 10 15 20 24 34 42
0 0 0 0 0 0 0 0 0 0 0 1 0 0 0 0 0 0 0 0 0 0 0 0 0 0 0 0 0 0 0 0 0 0 0 0 1 16 15 36 51 59 62
0 0 1 0 0 0 0 0 0 0 0 0 0 0 0 0 0 0 0 0 0 0 0 0 0 0 0 0 0 0 0 0 0 0 0 0 0 0 0 0 0 4 9
0 0 0 0 0 0 0 0 0 0 0 0 0 0 0 0 0 0 0 0 0 0 0 0 0 0 0 0 0 0 0 0 0 0 0 0 0 0 0 0 0 0 0
0 0 0 0 1 3 7 13 0 0 0 0 0 0 0 0 0 0 0 0 0 0 0 0 0 0 0 0 0 0 0 0 0 0 0 0 0 0 0 0 0 0 0

GFSGL_con_sbcape_042.txt.gz
CAPE
973 1534 1390 1107 775 465 248 238 243 148 90 123 9 24 35 64 45 61 85 41 8 16 38 99 157 449 560 938 1280 1273 1132 766 41 9 8 9 8 9 8 10 11 11 6
679 1304 1386 1074 633 396 247 252 204 80 13 10 8 12 11 12 18 16 15 16 8 3 7 12 62 116 330 303 627 394 972 779 53 5 7 6 7 8 9 9 8 6 7
1089 1360 1406 1163 840 601 317 209 181 76 21 6 5 3 4 4 4 9 12 13 17 8 8 14 13 20 11 4 14 11 11 112 19 5 7 10 11 8 8 6 4 3 2
453 1353 1430 1273 1072 743 548 333 164 101 37 8 8 4 2 1 2 2 2 7 9 16 17 16 13 10 12 17 15 31 37 12 7 8 8 8 11 9 8 5 4 0 0
644 1058 1574 1461 1226 991 701 376 203 118 31 4 5 6 3 0 1 3 0 3 5 7 15 9 6 0 0 0 15 41 52 29 8 8 8 7 5 6 7 5 6 1 0
856 1022 1405 1617 1362 1074 819 488 299 166 33 9 3 3 2 0 0 0 0 0 0 0 0 0 3 0 0 0 0 0 0 54 81 30 17 16 17 6 7 8 3 1 13
1178 1364 1604 1941 1568 1248 966 563 279 203 37 11 20 22 10 0 0 0 0 0 0 0 0 0 0 0 0 2 0 0 0 0 0 40 35 50 61 59 54 35 34 23 21
1249 1382 1988 1633 1639 1467 1089 763 537 197 18 4 5 27 12 0 0 0 0 0 1 0 0 0 0 0 0 0 0 0 0 0 0 0 1 3 11 21 22 37 48 45 19
1152 1310 1533 1774 1608 1292 704 893 660 162 71 4 8 29 12 0 0 0 0 0 0 0 0 0 0 0 0 0 0 0 0 0 0 0 0 0 0 0 0 1 33 24 93
1044 1162 677 1090 1238 963 919 1035 427 272 22 4 3 6 1 1 0 0 0 0 0 0 0 0 0 0 0 0 0 0 0 0 0 0 0 0 0 0 0 0 0 0 3
416 333 250 499 653 796 950 833 219 101 13 7 0 0 1 1 0 0 0 0 0 0 0 0 0 0 0 0 0 0 6 3 1 3 3 0 0 0 0 0 0 0 0
78 210 211 126 183 634 438 181 10 1 7 5 4 1 0 0 0 0 0 0 0 0 0 0 0 0 0 0 0 0 0 0 0 6 9 6 0 0 0 0 1 0 0
8 4 5 7 13 96 365 3 2 0 4 0 0 0 0 0 0 0 0 0 0 0 0 0 0 0 0 0 0 0 0 0 0 0 0 0 0 0 0 1 3 6 34
7 6 8 7 8 6 5 4 2 1 0 0 2 3 0 0 0 0 0 0 0 0 0 0 0 0 0 0 0 0 0 0 0 0 0 0 0 0 0 0 0 0 0
10 7 8 5 4 2 2 2 3 0 0 0 1 0 0 0 0 0 0 0 0 0 0 0 0 0 7 0 0 0 0 0 0 0 0 0 0 0 0 0 0 0 0
11 12 10 11 2 2 1 1 0 0 0 0 0 0 0 0 0 0 0 0 0 0 0 0 6 3 0 0 0 0 0 0 0 0 0 0 0 0 0 0 0 0 0
2 5 7 7 3 3 2 0 1 0 0 0 0 0 0 0 0 0 0 0 0 0 0 7 8 1 0 0 0 0 0 0 0 0 0 0 0 0 0 0 0 1 2
7 0 8 4 8 5 3 2 0 1 2 0 0 0 0 0 0 0 0 0 0 0 0 19 8 0 0 0 0 0 0 0 0 0 0 0 0 0 3 4 6 6 7
10 7 8 3 9 5 11 12 29 28 24 17 0 0 0 0 0 0 0 0 3 3 6 2 0 0 0 0 0 0 0 0 0 0 5 7 9 10 15 17 20 0 0
12 1 5 15 0 1 0 0 0 0 0 0 0 0 0 0 0 0 0 0 0 0 0 0 0 2 5 2 4 5 16 27 32 31 32 31 35 37 40 39 45 45 45
18 0 0 0 0 0 0 0 0 0 0 0 0 0 0 0 0 0 0 0 0 0 0 0 2 6 3 6 13 28 37 36 32 43 41 47 38 30 56 67 57 54 58
12 0 0 0 0 0 0 0 0 0 0 0 0 0 0 0 0 0 0 0 0 0 0 0 0 6 13 10 19 24 22 21 19 18 12 9 12 21 23 47 63 73 74
23 2 0 0 0 0 0 0 0 0 0 2 1 0 0 0 0 0 0 0 0 0 0 0 0 0 0 0 0 0 0 0 0 0 0 0 6 32 38 33 30 20 12
33 5 0 1 1 0 0 5 10 1 17 28 44 30 7 0 0 0 0 0 0 0 0 0 0 0 0 0 0 0 0 0 0 0 0 0 0 0 0 0 0 0 0
17 26 19 13 15 6 1 0 8 13 31 30 18 23 18 13 23 2 0 0 0 0 0 0 0 0 0 0 0 0 0 0 0 0 0 0 0 0 0 0 0 0 0
18 4 0 0 6 12 0 9 14 32 49 20 0 0 0 0 0 0 0 0 0 0 0 0 0 0 0 0 0 0 0 0 0 0 0 0 0 0 0 0 0 0 0

GFSGL_con_sbcape_045.txt.gz
CAPE
1750 1795 1400 1157 920 540 380 344 342 224 216 222 128 172 123 139 120 156 253 99 117 99 227 382 504 895 1546 1351 1577 1609 1452 1532 5 10 9 7 7 6 2 5 8 7 1
1261 1334 1493 1097 723 481 346 318 262 187 197 123 163 147 80 60 67 40 20 179 13 16 17 71 178 82 366 443 406 844 1122 998 6 8 6 6 5 6 10 9 7 6 3
925 1276 1258 1043 881 707 401 342 243 146 118 63 22 7 10 8 6 9 14 17 10 8 13 21 18 62 64 101 126 99 46 87 5 4 6 6 7 6 4 3 1 2 1
496 1127 1217 1152 1159 824 883 462 297 182 108 64 42 5 2 3 4 2 6 9 12 11 11 7 2 1 9 44 73 341 56 5 8 6 5 7 7 7 5 2 0 0 0
1270 1296 1386 1594 1372 1427 1180 609 433 249 143 82 57 14 2 1 1 0 4 6 6 10 6 0 0 0 0 0 14 36 137 5 3 4 5 6 4 6 6 5 2 0 0
625 1089 1636 1850 1657 1441 1099 760 595 284 194 124 65 39 3 0 0 0 0 0 0 1 1 2 0 0 0 0 0 0 0 130 59 14 9 10 24 24 9 8 13 8 13
1368 1341 1785 1817 1827 1716 1411 1142 715 576 237 129 35 60 32 0 0 0 0 0 0 0 0 1 1 0 8 1 0 0 0 0 12 119 77 71 61 61 58 47 45 55 57
1719 1814 1891 2039 1942 1824 1506 1397 982 558 249 106 92 221 35 0 0 0 0 6 5 7 7 0 0 0 0 0 0 0 0 0 0 0 0 0 0 4 20 38 57 52 33
1015 1417 1589 2059 2032 2005 1704 1461 1418 766 318 61 54 148 19 0 0 0 0 14 12 10 8 1 0 0 0 0 0 0 0 0 0 0 0 0 0 0 0 0 102 11 55
665 1612 1406 1637 1991 2272 1555 1660 1600 918 328 65 128 46 3 5 0 0 0 10 3 2 3 0 0 0 0 0 2 1 1 0 0 0 0 0 0 0 0 0 0 0 2
855 910 1041 605 907 1654 1618 1805 1346 868 412 225 11 13 5 7 0 0 0 0 0 1 2 0 0 0 0 0 0 0 3 1 0 5 13 8 1 2 0 0 0 0 0
269 559 433 588 1058 1274 1517 1834 1309 495 135 225 13 6 7 0 0 0 0 0 0 0 0 0 0 0 0 0 0 0 0 0 1 6 8 5 0 0 0 0 0 0 0
160 205 105 93 141 684 1416 640 141 6 15 42 36 12 4 4 0 0 0 0 0 0 0 0 0 0 0 0 0 0 0 0 0 0 0 0 0 0 0 27 6 55 58
168 74 33 68 90 106 247 7 1 1 2 1 9 0 4 7 4 0 0 0 0 0 0 0 0 0 0 0 0 0 0 0 0 0 0 0 0 0 0 0 0 0 0
25 10 9 13 7 4 7 5 3 0 0 0 1 0 10 13 6 1 0 0 0 0 0 0 0 0 4 13 1 0 0 0 0 0 0 0 0 0 0 0 0 1 0
50 32 8 8 1 1 1 1 0 0 0 0 0 1 0 0 0 0 0 0 0 0 0 0 0 26 8 0 0 0 0 0 0 0 0 0 0 0 0 1 1 3 5
24 20 7 0 3 3 3 1 1 0 0 0 0 0 0 0 0 0 0 0 0 0 0 16 33 11 1 0 0 0 1 0 0 0 0 0 1 2 1 3 3 6 9
13 0 10 8 9 3 3 2 5 1 0 0 0 0 0 0 0 0 0 0 0 0 0 24 28 7 0 0 0 2 3 7 12 2 5 4 7 4 7 7 9 7 5
7 13 8 5 6 4 20 5 0 0 5 5 1 0 0 0 0 0 0 0 0 0 2 22 14 1 0 4 6 2 1 6 1 0 7 10 13 13 16 18 21 0 0
3 0 3 18 14 16 17 19 37 51 49 26 3 1 0 0 0 0 0 0 2 9 6 4 2 0 7 13 20 22 26 23 45 33 32 25 27 32 19 23 36 34 30
24 13 7 22 34 20 19 14 13 9 2 0 0 0 0 0 0 0 0 0 0 0 0 0 2 7 12 24 14 34 33 31 39 22 37 38 31 13 20 21 8 18 37
14 1 18 0 0 0 0 0 0 0 0 0 0 0 0 0 0 0 0 0 0 0 0 0 1 8 10 31 67 28 30 27 28 32 29 22 28 25 18 21 25 35 26
3 0 10 0 0 0 0 0 0 0 0 2 3 0 0 0 0 3 4 3 4 6 2 0 0 1 11 9 0 1 1 15 11 0 1 0 5 8 9 3 0 0 0
34 7 5 0 0 0 0 0 5 1 6 11 13 4 0 0 0 11 15 16 2 0 0 0 0 0 0 0 0 0 0 0 0 0 0 0 0 0 0 0 0 0 0
124 35 20 2 0 0 0 4 20 19 38 58 17 17 21 26 13 25 54 7 0 0 0 0 0 0 0 0 0 0 0 0 0 0 0 0 0 0 0 0 0 0 0
159 154 33 0 0 3 22 14 0 1 15 6 47 89 37 28 14 3 5 1 0 0 0 0 0 0 0 0 0 0 0 0 0 0 0 0 0 0 0 0 0 0 0

GFSGL_con_sbcape_048.txt.gz
CAPE
1492 1226 1928 1631 1455 1174 1335 1142 945 704 321 453 333 333 309 428 450 750 295 79 64 102 129 162 240 415 581 790 687 769 524 96 1 5 5 2 2 0 0 0 0 0 0
1092 745 1005 1576 1122 1192 1150 870 783 731 653 545 411 487 455 324 400 427 97 14 14 1 7 15 32 32 68 137 253 469 446 197 1 1 5 4 2 0 0 0 0 0 0
1464 1009 1496 1423 1250 1309 1143 993 784 707 610 399 424 406 234 202 214 237 138 13 13 6 3 2 5 90 20 234 130 3 0 0 1 1 3 3 3 0 0 0 0 0 0
823 1543 1463 1601 1472 1213 1290 1166 1003 801 622 505 361 272 200 138 60 80 30 60 8 0 0 0 0 0 0 206 152 2 0 1 3 1 2 4 4 2 0 0 0 0 0
688 1344 1926 1895 1827 1490 1384 1236 999 882 640 551 435 191 108 0 0 0 23 16 21 4 0 0 0 0 0 0 0 3 0 2 2 2 3 3 3 4 2 1 0 0 0
1177 1999 2167 1996 1721 1685 1619 1170 1187 904 716 625 474 247 0 0 0 0 0 2 11 12 9 0 0 0 0 0 0 0 0 0 0 0 0 0 0 0 0 4 2 2 1
1506 1874 1921 2147 1889 1814 1714 1246 1011 999 885 553 297 101 0 0 0 0 0 15 7 14 2 0 0 0 0 0 0 0 0 0 2 20 15 27 16 22 23 45 36 48 40
1823 1727 1477 1522 1523 1146 1907 1457 1218 989 824 624 509 298 0 0 0 0 0 30 16 13 0 0 0 0 0 0 0 0 0 0 0 0 0 0 0 0 0 9 72 83 64
1533 960 493 966 1221 1024 1557 1607 1530 1139 791 432 435 211 11 0 0 0 0 54 29 13 0 0 0 0 0 0 0 0 0 0 0 0 0 0 0 0 0 0 16 58 55
581 598 358 310 431 597 957 1712 1497 887 597 241 290 184 21 0 0 0 0 2 39 0 0 0 0 0 0 0 10 2 0 0 0 0 0 0 0 0 0 0 0 0 0
892 378 97 233 158 496 303 615 956 1122 625 363 271 96 64 0 0 0 0 12 0 0 8 0 0 0 0 0 0 0 0 0 3 13 34 30 27 12 0 0 0 0 0
821 581 342 301 346 394 583 451 663 507 568 330 174 53 32 2 0 0 0 0 0 0 0 0 0 0 0 0 0 0 0 0 0 17 66 13 0 0 0 0 0 0 0
685 681 310 225 220 162 361 1369 514 258 109 149 26 26 15 3 0 0 0 0 0 0 0 0 0 0 0 0 0 0 0 0 2 32 10 1 0 0 0 22 38 46 51
360 182 80 92 85 52 66 207 129 25 2 1 21 22 9 8 0 0 0 0 0 0 0 0 0 0 0 0 0 0 0 0 0 0 0 0 3 9 22 0 0 0 0
72 60 45 30 7 2 2 2 0 0 0 0 0 0 1 5 5 0 0 0 0 0 0 0 0 0 0 0 0 6 8 0 8 0 4 6 14 3 7 0 13 18 11
84 57 60 5 0 0 0 1 0 0 0 0 0 0 0 0 0 0 0 0 0 0 0 0 0 0 0 16 23 11 0 0 5 5 16 0 2 11 0 7 17 12 25
59 191 103 20 0 1 1 1 0 0 0 0 0 0 0 0 0 0 0 0 0 0 0 0 0 0 53 11 8 27 9 5 3 30 10 14 11 18 0 33 27 39 16
2 0 3 77 6 0 1 0 0 0 0 0 0 0 0 0 0 0 0 0 0 0 0 0 0 56 33 15 23 28 18 18 16 19 14 14 21 14 21 34 31 43 12
32 8 14 7 20 7 1 0 0 0 1 0 0 0 0 0 0 0 0 0 0 0 0 0 0 11 25 37 77 78 30 33 8 4 6 42 48 32 41 43 34 7 1
44 1 0 10 2 9 11 16 11 0 0 0 0 0 0 0 0 0 0 0 0 0 0 0 23 37 29 83 75 52 20 11 28 17 47 68 70 57 24 2 2 0 0
17 30 4 9 19 23 21 18 69 52 24 20 0 0 0 0 0 0 0 0 0 0 9 37 16 22 49 92 67 43 27 39 39 49 57 95 36 25 42 11 7 3 3
116 24 19 3 20 27 43 36 59 31 60 46 0 0 0 0 0 0 0 0 0 0 24 41 5 19 11 24 24 40 39 33 62 62 59 29 19 24 25 1 0 4 1
153 18 19 9 0 0 0 0 0 0 0 0 0 0 0 0 0 0 8 1 2 1 21 34 6 14 28 72 86 46 24 41 29 18 22 21 13 2 0 0 0 0 0
196 85 49 6 0 0 0 0 0 2 0 9 3 0 0 0 0 4 17 43 30 34 60 16 9 2 1 33 10 2 0 0 0 0 0 0 0 0 0 0 0 0 0
183 174 124 43 1 0 0 0 0 25 1 0 31 23 17 1 0 0 106 48 54 36 13 2 9 0 0 6 0 0 0 0 0 0 0 0 0 0 0 0 0 0 0
273 216 204 192 28 0 0 0 0 2 1 0 0 0 4 1 7 2 19 4 5 0 0 0 0 0 4 0 0 0 0 0 0 0 0 0 0 0 0 0 0 0 0

GFSGL_con_sbcape_051.txt.gz
CAPE
401 488 719 710 437 385 234 100 73 17 2 53 37 2 0 0 0 0 0 0 0 0 0 0 0 0 8 59 49 3 0 0 0 1 2 1 0 0 0 0 0 0 0
414 648 912 390 249 380 154 111 81 6 0 4 2 0 0 0 0 0 0 0 0 0 0 0 0 0 0 0 0 0 0 0 0 0 2 2 0 0 0 0 0 0 0
679 495 630 366 347 326 179 96 57 15 0 0 0 0 0 0 0 0 0 0 0 0 0 0 0 0 2 0 0 0 0 0 0 0 2 1 2 0 0 0 0 0 0
696 448 741 466 423 366 198 170 166 63 0 0 0 0 0 0 0 0 0 0 0 0 0 0 0 0 0 0 0 0 0 0 0 0 0 2 1 0 0 0 0 0 0
439 788 663 654 526 440 345 234 140 83 33 0 0 0 0 0 0 0 0 0 0 0 0 0 0 0 0 0 0 0 0 0 0 0 1 1 1 1 0 0 0 0 0
165 349 1029 969 800 397 463 343 202 78 47 11 0 0 0 0 0 0 0 0 0 0 0 0 0 0 0 0 0 0 0 0 0 0 0 0 0 0 0 0 0 0 0
432 1086 1136 869 787 665 662 386 267 113 103 4 0 0 0 0 0 0 0 0 0 0 0 0 0 0 0 0 0 0 0 0 0 0 0 0 0 0 1 0 1 1 0
399 495 700 470 485 644 528 324 369 200 142 68 0 0 0 0 0 0 0 0 0 0 0 0 0 0 0 0 0 0 0 0 0 0 0 0 0 0 0 0 0 11 6
1249 292 267 260 272 243 208 270 293 235 230 108 53 0 0 0 0 0 0 0 0 0 0 0 0 0 0 0 0 0 0 0 0 0 0 0 0 0 0 0 0 0 0
429 319 133 9 4 10 111 5 21 216 125 120 74 0 0 0 0 0 0 0 0 0 0 0 0 0 0 0 0 0 0 0 0 0 0 0 0 0 0 0 0 0 0
545 158 35 22 0 15 152 166 91 46 142 79 107 17 0 0 0 0 0 0 0 0 0 0 0 0 0 0 0 0 0 0 0 0 0 0 0 0 0 0 0 0 0
523 196 48 139 229 190 203 85 132 213 145 124 43 10 4 0 0 0 0 0 0 0 0 0 0 0 0 0 0 0 0 0 0 0 0 0 0 0 0 0 0 0 0
434 212 63 60 56 95 106 204 214 236 267 124 30 1 0 0 0 0 0 0 0 0 0 0 0 0 0 0 0 0 0 0 0 0 0 0 0 0 0 0 0 0 0
252 112 23 19 16 1 4 55 197 194 151 93 7 0 0 0 0 0 0 0 0 0 0 0 0 0 0 0 0 0 0 0 0 0 0 0 0 0 0 0 0 0 0
0 1 10 11 0 0 0 1 1 1 7 56 37 18 8 0 0 0 0 0 0 0 0 0 0 0 0 0 0 0 0 0 0 0 0 0 0 0 0 0 0 0 0
12 0 3 3 0 0 0 0 0 0 0 0 0 0 0 0 0 0 0 0 0 0 0 0 0 0 0 0 0 0 0 0 0 0 0 0 0 0 0 0 0 0 0
0 0 1 3 0 0 0 0 0 0 0 0 0 0 0 0 0 0 0 0 0 0 0 0 0 0 0 0 0 0 0 0 0 0 0 0 0 0 0 0 0 0 0
0 0 0 0 1 0 0 0 0 0 0 0 0 0 0 0 0 0 0 0 0 0 0 0 0 0 0 0 0 0 0 0 0 0 0 0 0 0 0 0 0 0 0
0 0 0 0 2 5 0 0 0 0 0 0 0 0 0 0 0 0 0 0 0 0 0 0 0 0 0 0 0 0 0 0 0 0 0 0 0 0 0 2 0 0 0
0 2 0 0 0 3 9 1 0 0 0 0 0 0 0 0 0 0 0 0 0 0 0 0 0 0 0 0 0 0 0 0 0 0 0 0 1 0 0 0 0 0 0
36 13 0 0 5 0 10 14 20 13 0 0 0 0 0 0 0 0 0 0 0 0 0 0 0 0 0 1 0 0 0 0 0 0 0 6 8 0 0 0 0 0 0
9 1 0 0 1 0 2 20 30 39 57 6 0 0 0 0 0 0 0 0 0 0 0 0 0 0 0 0 0 0 0 0 0 3 3 0 0 0 0 0 0 0 0
73 43 1 0 0 0 0 0 0 0 6 66 56 0 0 0 0 0 0 0 0 0 0 0 0 0 0 0 0 0 0 0 0 0 0 0 0 0 0 0 0 0 0
66 80 23 0 0 0 0 0 0 0 0 0 0 0 0 0 0 0 0 0 0 0 0 0 0 0 0 0 0 0 0 0 0 0 0 0 0 0 0 0 0 0 0
62 70 85 22 0 0 0 0 0 0 0 0 0 0 0 0 0 1 0 0 0 0 0 0 0 0 0 0 0 0 0 0 0 0 0 0 0 0 0 0 0 0 0
36 72 59 70 7 0 0 0 0 0 0 0 0 0 0 0 0 0 0 0 0 0 0 0 0 0 0 0 0 0 0 0 0 0 0 0 0 0 0 0 0 0 0

GFSGL_con_sbcape_054.txt.gz
CAPE
528 524 696 313 156 137 23 10 0 0 0 0 0 0 0 0 0 0 0 0 0 0 0 0 0 0 0 0 0 0 0 0 0 1 1 1 0 0 0 0 0 0 0
376 619 675 174 119 42 0 0 0 0 0 0 0 0 0 0 0 0 0 0 0 0 0 0 0 0 0 0 0 0 0 0 0 0 0 1 0 0 0 0 0 0 0
507 476 590 73 146 30 0 0 0 0 0 0 0 0 0 0 0 0 0 0 0 0 0 0 0 0 0 0 0 0 0 0 0 0 1 1 1 0 0 0 0 0 0
553 452 452 105 111 44 8 0 0 0 0 0 0 0 0 0 0 0 0 0 0 0 0 0 0 0 0 0 0 0 0 0 0 0 0 1 1 0 0 0 0 0 0
484 326 547 196 121 55 22 47 0 0 0 0 0 0 0 0 0 0 0 0 0 0 0 0 0 0 0 0 0 0 0 0 0 0 1 1 1 0 0 0 0 0 0
398 493 505 402 212 104 97 89 39 40 3 0 0 0 0 0 0 0 0 0 0 0 0 0 0 0 0 0 0 0 0 0 0 0 0 0 0 0 0 0 0 0 0
102 211 552 607 338 125 222 103 95 20 38 0 0 0 0 0 0 0 0 0 0 0 0 0 0 0 0 0 0 0 0 0 0 0 0 0 0 0 0 0 0 0 0
374 390 553 405 370 217 231 75 84 41 10 0 0 0 0 0 0 0 0 0 0 0 0 0 0 0 0 0 0 0 0 0 0 0 0 0 0 0 0 0 0 0 0
473 374 291 187 110 123 12 0 0 16 67 1 0 0 0 0 0 0 0 0 0 0 0 0 0 0 0 0 0 0 0 0 0 0 0 0 0 0 0 0 0 0 0
230 224 116 84 32 46 4 5 0 1 5 17 0 0 0 0 0 0 0 0 0 0 0 0 0 0 0 0 0 0 0 0 0 0 0 0 0 0 0 0 0 0 0
156 31 5 0 0 2 42 36 0 9 112 90 20 0 0 0 0 0 0 0 0 0 0 0 0 0 0 0 0 0 0 0 0 0 0 0 0 0 0 0 0 0 0
57 0 0 64 137 90 123 41 17 0 20 54 34 8 0 0 0 0 0 0 0 0 0 0 0 0 0 0 0 0 0 0 0 0 0 0 0 0 0 0 0 0 0
55 2 1 3 15 25 46 77 78 65 107 81 89 59 4 0 0 0 0 0 0 0 0 0 0 0 0 0 0 0 0 0 0 0 0 0 0 0 0 0 0 0 0
256 55 0 0 1 0 0 1 10 129 112 179 74 39 6 0 0 0 0 0 0 0 0 0 0 0 0 0 0 0 0 0 0 0 0 0 0 0 0 0 0 0 0
37 29 5 0 0 0 0 1 0 0 1 41 84 45 23 1 0 0 0 0 0 0 0 0 0 0 0 0 0 0 0 0 0 0 0 0 0 0 0 0 0 0 0
5 0 0 2 0 0 0 0 0 1 1 0 1 1 0 2 0 0 0 0 0 0 0 0 0 0 0 0 0 0 0 0 0 0 0 0 0 0 0 0 0 0 0
0 0 0 0 2 0 0 0 0 0 0 0 0 0 0 0 0 0 0 0 0 0 0 0 0 0 0 0 0 0 0 0 0 0 0 0 0 0 0 0 0 0 0
0 0 0 0 0 0 0 0 0 0 0 0 0 0 0 0 0 0 0 0 0 0 0 0 0 0 0 0 0 0 0 0 0 0 0 0 0 0 0 0 0 0 0
0 0 0 0 0 0 0 0 0 0 0 0 0 0 0 0 0 0 0 0 0 0 0 0 0 0 0 0 0 0 0 0 0 0 0 0 0 0 0 0 0 0 0
0 0 0 0 0 0 0 0 2 0 0 0 0 0 0 0 0 0 0 0 0 0 0 0 0 0 0 0 0 0 0 0 0 0 0 0 0 0 0 0 0 0 0
0 0 0 0 0 0 0 0 0 0 1 0 0 0 0 0 0 0 0 0 0 0 0 0 0 0 0 0 0 0 0 0 0 0 0 0 0 0 0 0 0 0 0
0 0 0 0 0 0 0 0 0 0 3 3 0 0 0 0 0 0 0 0 0 0 0 0 0 0 0 0 0 0 0 0 0 0 0 0 0 0 0 0 0 0 0
0 0 0 0 0 0 0 0 0 0 0 3 3 0 0 0 0 0 0 0 0 0 0 0 0 0 0 0 0 0 0 0 0 0 0 0 0 0 0 0 0 0 0
0 0 0 0 0 0 0 0 0 0 0 0 49 32 0 0 0 0 0 0 0 0 0 0 0 0 0 0 0 0 0 0 0 0 0 0 0 0 0 0 0 0 0
0 0 0 0 0 0 0 0 0 0 0 0 0 0 0 0 0 0 0 0 0 0 0 0 0 0 0 0 0 0 0 0 0 0 0 0 0 0 0 0 0 0 0
0 0 0 1 2 0 0 0 0 0 0 0 0 0 0 0 0 0 0 0 0 0 0 0 0 0 0 0 0 0 0 0 0 0 0 0 0 0 0 0 0 0 0

GFSGL_con_sbcape_057.txt.gz
CAPE
345 254 364 45 48 17 0 0 0 0 0 0 0 0 0 0 0 0 0 0 0 0 0 0 0 0 1 0 0 0 0 0 0 1 2 1 1 2 0 0 0 0 0
363 461 474 69 90 1 0 0 0 0 0 0 0 0 0 0 0 0 0 0 0 0 0 0 0 0 1 1 0 0 0 0 0 0 0 1 1 0 0 0 0 0 0
353 462 438 59 78 4 0 0 0 0 0 0 0 0 0 0 0 0 0 0 0 0 0 0 0 0 0 0 0 0 0 0 0 0 1 1 1 0 0 0 0 0 0
426 376 475 3 50 0 0 0 0 0 0 0 0 0 0 0 0 0 0 0 0 0 0 0 0 0 0 0 0 0 0 0 0 0 0 0 1 1 0 0 0 0 0
360 313 450 47 28 7 1 0 1 0 0 0 0 0 0 0 0 0 0 0 0 0 0 0 0 0 0 0 0 0 0 0 0 0 0 1 1 1 0 0 0 0 0
289 328 363 209 51 43 0 35 33 1 0 0 0 0 0 0 0 0 0 0 0 0 0 0 0 0 0 0 0 0 0 0 0 0 0 0 0 0 0 0 0 0 0
221 291 332 416 118 51 27 8 31 28 9 0 0 0 0 0 0 0 0 0 0 0 0 0 0 0 0 0 0 0 0 0 0 0 0 0 0 0 0 0 0 0 0
183 136 279 415 265 72 117 56 53 22 10 0 0 0 0 0 0 0 0 0 0 0 0 0 0 0 0 0 0 0 0 0 0 0 0 0 0 0 0 0 0 0 0
279 232 442 343 158 45 1 1 1 4 28 5 0 0 0 0 0 0 0 0 0 0 0 0 0 0 0 0 0 0 0 0 0 0 0 0 0 0 0 0 0 0 0
324 332 209 89 84 110 0 0 0 0 2 10 2 0 0 0 0 0 0 0 0 0 0 0 0 0 0 0 0 0 0 0 0 0 0 0 0 0 0 0 0 0 0
163 27 0 0 17 17 10 0 0 0 21 9 10 0 0 0 0 0 0 0 0 0 0 0 0 0 0 0 0 0 0 0 0 0 0 0 0 0 0 0 0 0 0
0 0 0 0 0 34 37 12 0 0 0 58 26 8 1 0 0 0 0 0 0 0 0 0 0 0 0 0 0 0 0 0 0 0 0 0 0 0 0 0 0 0 0
8 1 1 0 0 0 3 33 2 0 0 50 33 33 10 1 0 0 0 0 0 0 0 0 0 0 0 0 0 0 0 0 0 0 0 0 0 0 0 0 0 0 0
65 2 0 0 0 0 0 0 0 26 40 71 88 70 30 2 0 0 0 0 0 0 0 0 0 0 0 0 0 0 0 0 0 0 0 0 0 0 0 0 0 0 0
19 2 12 2 0 0 0 1 0 0 0 0 23 68 71 6 0 0 0 0 0 0 0 0 0 0 0 0 0 0 0 0 0 0 0 0 0 0 0 0 0 0 0
0 0 0 0 0 0 0 0 0 1 1 1 1 0 1 1 0 1 0 0 0 0 0 0 0 0 0 0 0 0 0 0 0 0 0 0 0 0 0 0 0 0 0
0 0 0 0 0 0 0 0 0 0 1 1 0 0 0 1 1 1 0 0 0 0 0 0 0 0 0 0 0 0 0 0 0 0 0 0 0 0 0 0 0 0 0
0 0 0 0 0 0 0 0 0 0 0 0 0 0 0 0 1 1 1 0 0 0 0 0 0 0 0 0 0 0 0 0 0 0 0 0 0 0 0 0 0 0 0
0 0 0 0 0 0 0 0 0 0 0 0 0 0 0 0 0 1 1 0 0 0 0 0 0 0 0 0 0 0 0 0 0 0 0 0 0 0 0 0 0 0 0
0 0 0 0 0 0 0 0 0 0 0 0 0 0 0 0 0 0 0 0 0 0 0 0 0 0 0 0 0 0 0 0 0 0 0 0 0 0 0 0 0 0 0
0 0 0 0 0 0 0 0 0 0 0 0 0 0 0 0 0 0 0 0 0 0 0 0 0 0 0 0 0 0 0 0 0 0 0 0 0 0 0 0 0 0 0
0 0 0 0 0 0 0 0 0 0 0 0 0 0 0 0 0 0 0 0 0 0 0 0 0 0 0 0 0 0 0 0 0 0 0 0 0 0 0 0 0 0 0
0 0 0 0 0 0 0 0 0 0 0 0 0 0 1 0 0 0 0 0 0 0 0 0 0 0 0 0 0 0 0 0 0 0 0 0 0 0 0 0 0 0 0
0 0 0 0 0 0 0 0 0 0 0 0 0 0 0 0 0 0 0 0 0 0 0 0 0 0 0 0 0 0 0 0 0 0 0 0 0 0 0 0 0 0 0
0 0 0 0 0 0 1 0 0 0 0 0 0 0 0 0 0 0 0 0 0 0 0 0 0 0 0 0 0 0 0 0 0 0 0 0 0 0 0 0 0 0 0
1 1 0 0 0 0 0 0 0 0 0 0 0 0 0 0 0 0 0 0 0 0 0 0 0 0 0 0 0 0 0 0 0 0 0 0 0 0 0 0 0 0 0

GFSGL_con_sbcape_060.txt.gz
CAPE
299 167 284 30 0 0 0 0 0 0 0 0 0 2 0 0 0 0 0 0 0 0 0 0 1 1 11 30 3 1 0 0 1 6 3 4 4 0 0 0 0 1 2
228 235 257 0 0 0 0 0 0 0 0 0 0 0 0 0 0 0 0 0 0 0 0 0 1 0 2 4 2 0 0 0 1 1 1 3 3 1 0 0 0 0 0
242 344 263 27 38 0 0 0 0 0 0 0 0 0 0 0 0 0 0 0 0 0 0 0 0 0 2 1 1 0 0 0 0 1 2 3 4 3 3 0 0 0 0
282 271 309 39 66 0 0 0 0 0 0 0 0 0 0 0 0 0 0 0 0 0 0 0 0 0 0 2 2 1 0 0 1 1 2 4 4 3 2 3 0 0 0
308 265 291 8 41 0 0 0 0 0 0 0 0 0 0 0 0 0 0 0 0 0 0 1 0 0 0 0 1 1 0 0 1 2 2 3 3 4 1 0 0 0 0
284 267 222 73 4 29 0 0 3 0 0 0 0 0 0 0 0 0 0 0 0 0 0 0 0 0 0 0 0 0 0 0 1 2 2 2 1 1 0 0 0 0 0
252 232 254 329 116 12 1 0 1 1 0 0 0 0 0 0 0 0 0 0 0 0 0 0 0 0 0 0 0 0 0 0 0 0 1 0 0 0 0 0 0 0 0
125 133 225 270 310 98 58 11 12 2 3 0 0 0 0 0 0 0 0 0 0 0 0 0 0 0 0 0 0 0 0 0 0 0 0 0 0 0 0 0 0 1 2
153 69 130 228 233 147 179 115 62 23 26 0 0 0 0 0 0 0 0 0 0 0 0 0 0 0 0 0 0 0 0 0 0 0 0 0 0 0 0 0 0 3 5
142 84 97 122 74 45 0 1 0 0 0 0 0 0 1 0 0 0 0 0 0 0 0 0 0 0 0 0 0 0 0 0 0 0 0 0 0 0 0 0 0 0 0
27 6 5 0 0 0 0 0 0 1 1 5 1 1 0 0 0 0 0 0 0 0 0 0 0 0 0 0 0 0 0 0 0 0 0 0 0 0 0 0 0 0 0
0 0 0 0 0 0 0 1 1 1 2 2 10 1 1 1 0 0 0 0 0 0 0 0 0 0 0 0 0 0 0 0 0 0 0 0 0 0 0 0 0 0 0
0 1 2 1 1 0 1 24 2 1 1 1 2 2 1 1 1 0 0 0 0 0 0 0 0 0 0 0 0 0 0 0 0 0 0 0 0 0 0 0 0 0 0
0 0 0 0 0 0 1 1 1 1 8 12 67 28 6 7 1 1 0 0 0 0 0 0 0 0 0 0 0 0 0 0 0 0 0 0 0 0 0 0 0 0 0
22 0 0 0 0 0 0 1 3 3 1 1 0 1 32 41 5 0 0 0 0 0 0 0 0 0 0 0 0 0 0 0 0 0 0 0 0 0 0 0 0 0 0
0 0 0 0 0 0 0 0 0 1 1 1 1 0 1 0 1 1 1 0 0 0 0 0 0 0 0 0 0 0 0 0 0 0 0 0 0 0 0 0 0 0 0
0 0 0 0 0 0 0 0 0 0 1 1 1 1 1 0 2 1 2 2 1 0 0 0 0 0 0 0 0 0 0 0 0 0 0 0 0 0 0 0 0 0 0
0 0 0 0 0 0 0 0 0 0 0 0 0 0 0 0 0 1 1 0 0 1 0 0 0 0 0 0 0 0 0 0 0 0 0 0 0 0 0 0 0 0 0
0 0 0 0 0 0 0 0 0 0 0 0 0 0 0 0 0 0 1 0 1 1 1 0 0 0 0 0 0 0 0 0 0 0 0 0 0 0 0 0 0 0 0
0 0 0 0 0 0 0 0 0 0 0 0 0 0 0 0 0 0 0 1 2 2 1 1 0 0 0 0 0 0 0 0 0 0 0 0 0 0 0 0 0 0 0
0 0 0 1 1 0 0 0 0 0 0 0 0 0 0 0 0 0 0 0 0 1 0 0 0 0 0 0 0 0 0 0 0 0 0 0 0 0 0 0 0 0 0
0 0 0 0 0 1 1 0 0 0 0 0 0 0 0 0 0 0 0 0 0 0 0 0 0 0 0 0 0 0 0 0 0 0 0 0 0 0 0 0 0 0 0
0 0 0 0 0 0 0 1 0 0 0 0 0 0 0 0 0 1 0 1 0 0 0 0 0 0 0 0 0 0 0 0 0 0 0 0 0 0 0 0 0 0 0
1 0 0 0 1 0 0 7 5 0 0 0 0 0 0 0 1 1 1 1 0 0 0 0 0 0 0 0 0 0 0 0 0 0 0 0 0 0 0 0 0 0 0
2 2 4 1 0 1 2 1 0 0 0 0 0 0 0 0 0 0 0 0 0 0 0 0 0 0 0 0 0 0 0 0 0 0 0 0 0 0 0 0 0 0 0
2 6 7 4 3 3 2 2 2 0 1 3 2 4 5 6 7 3 7 7 2 0 0 1 0 0 0 0 0 0 0 0 0 0 0 0 0 0 0 0 0 0 0

GFSGL_con_sbcape_063.txt.gz
CAPE
2082 1736 1570 1274 1029 722 654 597 559 359 306 245 250 394 159 112 84 81 125 79 70 84 96 174 253 307 610 856 730 861 51 0 5 9 8 6 4 5 4 4 10 11 2
2244 1722 1490 1219 961 805 751 597 323 358 267 318 329 359 209 51 1 14 19 19 40 53 65 191 216 178 30 530 404 386 13 0 2 2 4 5 4 10 5 2 1 2 0
1968 1577 1438 1111 881 907 858 554 408 383 332 289 306 305 178 0 0 0 0 1 1 0 22 59 30 151 12 56 428 32 0 1 1 2 6 6 6 7 5 0 1 0 0
1988 1662 1571 1125 1059 1029 792 677 573 396 312 367 298 309 157 13 0 0 0 1 4 4 6 2 2 5 72 7 79 10 5 3 4 4 3 6 7 7 7 2 0 0 0
2031 1744 1613 1346 1204 1117 801 660 491 473 367 236 108 249 139 50 0 0 0 0 2 5 8 4 5 1 0 1 6 7 8 3 3 3 3 5 8 6 7 9 3 0 0
2023 1785 1579 1426 1298 1213 962 755 645 459 266 84 2 61 145 45 0 0 0 0 0 3 6 2 1 0 0 0 0 0 2 5 5 5 4 4 5 7 4 1 2 0 2
1890 1747 1678 1630 1442 1417 1244 961 772 646 311 70 19 0 12 99 0 0 0 0 0 0 1 6 0 0 0 2 1 0 0 0 0 14 7 11 8 8 5 4 2 2 15
1873 1675 1656 1679 1714 1539 1401 1285 1127 975 672 612 1 0 0 0 0 0 0 0 0 0 0 0 3 1 1 3 6 8 8 7 3 1 16 8 1 4 0 3 2 12 32
1825 1612 1551 1636 1614 1642 1385 698 692 802 607 309 41 0 0 0 0 0 0 0 0 0 0 0 0 1 0 0 0 2 5 1 0 0 0 0 0 0 2 17 34 45 70
2149 1830 1455 1483 1538 1036 726 319 445 273 549 48 11 51 0 0 0 0 0 26 2 0 0 0 0 0 0 0 0 0 2 1 0 0 0 0 0 0 0 24 39 47 54
1602 1339 1323 1338 1341 1194 841 619 567 534 395 389 59 11 1 0 0 0 0 2 0 0 0 0 0 0 0 0 0 0 0 0 0 0 0 0 0 0 2 0 0 38 39
1132 1033 914 732 467 537 592 362 313 359 266 164 107 13 12 3 0 0 0 0 0 0 0 0 0 0 0 0 0 0 0 0 0 0 0 0 0 0 0 0 0 0 0
450 215 109 67 12 35 88 69 78 196 136 61 3 108 80 13 10 0 0 0 0 0 0 1 0 0 0 0 0 0 0 0 0 0 0 0 0 0 0 0 0 0 0
110 105 249 248 186 167 75 113 139 93 132 173 93 55 79 89 3 9 1 1 1 0 0 0 0 0 0 0 0 0 0 0 0 0 0 0 0 0 0 0 0 0 0
180 224 340 226 145 124 23 8 0 1 1 2 7 6 4 96 118 1 2 2 1 0 1 3 0 0 0 0 0 0 0 0 0 0 0 0 0 0 4 1 0 0 0
467 359 193 104 66 39 4 9 0 0 0 0 0 1 2 0 0 1 1 1 1 0 3 2 3 0 0 0 0 0 0 0 0 0 0 0 0 0 0 0 0 0 0
121 69 28 4 15 20 2 0 0 0 1 1 1 0 0 0 0 1 1 1 1 0 4 6 1 6 16 0 0 0 0 0 0 0 0 0 0 0 0 0 0 0 0
33 0 46 5 1 1 0 0 0 1 4 7 0 0 0 2 0 0 0 1 1 1 2 4 1 4 12 0 1 0 0 0 0 0 0 0 0 0 0 0 0 0 0
138 116 106 56 29 3 5 0 0 0 0 3 5 0 0 0 0 0 1 5 4 4 4 5 3 1 6 16 1 1 0 0 0 0 0 0 0 0 0 0 0 0 0
345 47 31 229 219 179 170 114 93 65 58 29 4 12 8 0 0 1 0 0 4 8 9 5 4 3 0 0 0 0 1 2 1 0 0 0 0 0 0 0 0 0 0
0 8 0 20 88 199 279 199 144 148 125 89 79 28 0 0 0 0 0 0 0 1 6 9 8 8 10 6 6 4 2 0 0 0 0 0 0 0 2 0 0 0 0
0 0 0 0 0 26 68 67 113 153 151 116 119 54 0 0 0 0 0 0 3 9 10 11 13 4 7 14 15 12 12 9 8 1 0 0 0 0 0 0 1 1 0
0 0 0 0 0 0 4 55 77 61 72 54 11 0 0 0 0 0 0 2 4 9 12 5 1 0 0 3 4 9 22 41 58 26 0 0 0 1 0 0 0 0 0
7 11 7 3 1 2 10 34 14 0 0 1 0 0 0 0 0 0 1 2 3 7 5 1 0 0 0 0 0 2 5 5 11 38 54 7 0 0 0 0 0 0 0
14 10 9 8 8 8 7 3 2 1 2 6 4 5 10 8 9 11 16 17 16 14 0 1 0 0 0 0 0 0 0 0 0 0 0 2 2 1 1 0 0 0 0
7 7 11 11 10 12 10 9 9 8 6 8 9 8 7 10 17 8 5 7 19 19 11 24 13 1 0 0 0 0 0 0 0 0 0 4 3 1 1 1 3 1 0

GFSGL_con_sbcape_066.txt.gz
CAPE
3126 2916 2594 2179 1860 1468 1387 1181 1061 859 632 669 695 790 647 499 407 382 330 280 411 404 454 575 744 895 866 1375 1595 1642 1323 330 3 8 6 6 7 9 13 6 4 13 4
3404 3177 2687 2422 1920 1650 1364 1201 1038 838 714 608 528 550 538 387 248 184 154 111 157 189 176 496 679 501 949 1174 1453 1274 1498 323 1 10 8 9 6 9 8 6 14 4 6
3593 3281 2575 2294 1983 1789 1400 1242 829 836 679 554 571 556 508 336 194 108 72 76 96 136 182 260 257 349 643 770 1095 916 603 56 3 1 8 6 5 9 13 8 2 8 1
3440 2885 2434 2295 1887 1641 1424 1264 1032 914 815 658 630 547 482 291 183 17 0 0 85 93 146 122 144 150 394 239 719 388 227 2 4 3 6 7 6 8 5 4 7 0 0
3502 2666 2401 2253 1871 1698 1424 1269 1095 981 899 859 739 586 479 275 127 18 0 0 83 125 141 104 82 10 0 71 181 331 117 7 5 7 9 7 8 7 4 3 1 3 2
3418 2604 2472 2375 2008 1930 1672 1420 1438 1257 1119 971 768 511 331 152 0 0 0 0 7 54 134 16 11 0 0 0 0 0 0 38 10 5 5 4 6 4 6 5 7 0 0
3324 2546 2510 2409 2085 1991 1901 1776 1695 1604 1449 1309 895 546 163 92 0 0 0 3 0 2 31 18 3 0 0 4 0 0 0 0 1 7 4 6 5 6 2 5 5 0 1
3105 2439 2521 2466 2129 2060 2163 2011 1979 1637 1494 1398 1097 588 0 0 0 0 0 45 7 1 0 2 8 5 1 3 30 11 7 6 3 6 52 24 26 8 1 5 6 0 58
2852 2521 2356 2322 2109 2091 2163 2092 2197 1539 1569 1495 1381 695 1 0 0 0 0 46 23 22 6 0 1 6 0 0 10 17 44 19 0 0 0 0 0 3 8 10 19 14 45
2850 2571 2479 2341 2198 2240 2245 2192 1327 1040 1082 792 799 585 82 5 0 0 0 68 106 49 47 1 0 0 0 0 3 13 20 24 9 3 0 0 0 1 0 67 80 74 86
2749 2557 2462 2320 2509 2208 2066 1697 1380 1154 659 774 583 616 289 20 6 0 0 8 84 59 22 17 0 0 0 0 0 7 6 27 2 20 22 27 27 21 16 35 95 71 79
2725 2529 2387 2063 2137 1635 1721 1127 819 789 568 635 484 235 242 78 1 0 0 0 0 31 22 13 1 0 0 0 0 0 0 0 0 0 0 0 0 4 16 36 44 42 29
1704 1115 1479 1236 1268 935 1084 753 410 724 584 400 244 440 464 332 183 0 0 0 0 0 0 0 0 0 0 0 0 0 0 0 0 0 0 0 0 0 0 0 0 0 0
629 284 374 475 809 724 800 706 521 539 460 288 598 660 443 476 229 98 1 0 0 0 0 1 0 0 0 0 0 0 0 0 0 0 0 0 0 0 0 0 0 0 0
473 368 477 933 416 968 799 414 182 163 103 256 223 259 254 164 71 0 0 72 46 13 2 12 10 7 4 0 0 0 0 0 0 0 0 0 0 4 10 2 0 1 0
517 670 747 651 592 273 101 41 0 0 1 0 0 0 1 0 0 0 1 2 2 1 2 5 7 45 17 49 65 9 2 0 0 8 9 10 5 14 22 56 57 28 10
1079 1341 295 79 97 58 12 0 13 0 1 0 0 0 0 0 0 1 0 0 0 0 6 6 8 4 0 0 0 1 0 0 0 0 2 5 8 6 13 20 36 61 17
215 31 52 59 33 37 50 27 5 7 35 69 0 0 0 0 0 1 0 1 14 1 8 8 10 15 6 7 9 0 0 0 1 0 0 0 0 1 6 25 13 39 28
192 91 237 121 134 95 88 49 41 54 66 65 26 0 1 1 0 0 0 0 67 72 9 8 9 8 8 10 2 3 0 2 0 1 0 0 7 3 0 0 4 0 12
302 126 166 542 207 214 126 83 75 130 188 198 140 77 14 9 16 13 25 111 12 13 23 8 9 5 18 13 5 0 0 0 1 2 4 6 6 20 6 0 0 3 10
113 171 8 83 141 62 57 72 123 179 180 223 179 86 0 0 27 38 50 66 75 79 74 104 55 102 54 14 12 6 6 13 11 7 7 12 8 14 1 0 6 7 15
0 0 0 1 9 11 17 32 76 157 221 239 193 174 0 5 46 61 77 79 66 70 100 76 96 68 45 46 50 57 32 27 38 22 27 7 3 2 6 5 1 0 10
1 0 0 1 4 1 6 37 92 133 162 126 42 40 27 38 54 72 68 65 62 22 10 6 11 14 10 9 17 30 30 24 42 65 87 55 38 4 1 13 3 0 0
8 6 6 10 7 13 40 55 65 3 61 67 78 49 52 52 34 33 43 25 23 18 24 21 23 12 7 0 0 0 0 0 0 0 2 32 80 52 11 4 9 1 6
14 15 13 12 11 14 49 21 7 3 1 7 10 10 2 9 27 16 20 20 28 24 27 17 7 2 0 0 0 0 0 1 0 0 0 0 3 8 20 19 2 1 4
6 12 15 13 11 5 3 3 4 6 8 1 1 5 17 31 22 24 30 42 24 24 18 17 8 1 2 13 0 0 1 1 0 0 1 14 12 3 0 1 1 2 2

GFSGL_con_sbcape_072.txt.gz
CAPE
3650 3249 3297 2953 2818 2935 2846 2383 1898 2010 1758 1335 639 1210 1093 1231 1129 1175 937 818 549 716 733 506 547 760 779 1322 1127 807 559 242 17 4 3 5 3 0 6 0 0 0 0
3540 3505 3225 2942 2846 2881 2725 2443 2384 2215 1681 1674 1379 1009 978 1144 1090 468 398 587 454 427 276 501 571 662 701 594 525 587 517 235 3 4 1 1 0 8 14 0 8 0 0
3606 3290 3028 2751 2989 2770 2829 2497 2472 2012 1861 1493 1483 1247 1077 1100 648 617 434 495 492 506 263 241 585 593 604 716 702 838 504 39 1 3 2 2 1 0 0 1 3 0 0
3364 3589 3491 3108 2904 2705 2678 2669 2240 2188 2114 1101 1154 1044 818 899 726 734 330 157 426 429 162 258 472 669 762 894 949 667 331 92 2 3 1 1 0 0 0 0 0 0 0
3859 3567 3662 3143 3098 2596 2691 2661 2377 2118 1707 1591 1252 1112 1021 633 50 330 266 226 334 405 232 293 112 3 0 0 261 582 342 8 1 2 2 1 1 0 0 0 0 0 0
3979 3858 3807 3742 2798 2473 2475 2698 2554 2283 2262 2091 1711 1159 1211 1333 0 0 0 14 158 264 121 190 5 0 0 0 0 0 250 75 1 2 3 1 1 0 0 0 0 3 0
4100 3615 3679 3650 3472 3200 2819 2709 2469 2438 2655 2442 2111 1393 1190 1204 0 0 0 0 0 89 138 225 139 97 77 8 0 0 0 0 14 0 0 0 0 0 0 0 0 0 1
4270 3620 3610 3541 3084 2806 2612 2703 2774 2870 2725 2550 2209 1974 1701 29 0 0 0 0 0 19 69 254 160 141 38 209 149 126 61 11 0 5 17 0 0 0 0 0 0 0 0
4254 3979 3274 3412 3047 2774 2830 2889 2892 3049 2684 2268 2186 1966 1889 225 0 0 0 0 0 0 14 32 131 190 0 0 83 246 104 0 0 0 0 1 0 0 0 0 0 0 0
3995 3276 3006 3277 3072 2917 2806 2979 3065 2703 2414 1881 1951 1637 1032 805 0 0 0 0 0 3 4 60 9 0 0 0 14 124 196 183 0 0 0 0 0 0 0 0 0 0 0
3899 2953 2335 2640 3183 2903 2800 2829 2758 2533 2220 2317 1739 1631 1457 1038 0 0 0 0 0 9 3 0 30 0 0 0 0 18 0 0 54 125 100 42 5 16 0 0 10 4 1
2882 2487 1636 2317 2599 2610 2535 2368 2461 2350 2257 1899 1680 1434 1117 787 4 0 0 0 0 16 122 0 0 0 0 0 0 0 0 0 111 165 116 147 97 97 42 7 13 86 85
0 0 649 1468 2196 2758 2550 2237 2126 2094 1771 1604 1294 911 1412 1262 75 0 0 0 0 0 1 0 0 0 0 0 0 0 0 0 0 0 19 120 67 62 105 78 103 136 93
0 1 534 946 2081 2317 1544 1900 1371 1179 1326 1534 1278 843 1272 1543 1198 19 0 0 1 0 0 0 0 0 0 0 0 0 0 0 0 0 0 3 35 15 0 0 0 0 0
273 648 872 1337 1288 1295 1463 1033 1201 0 670 1131 1027 622 592 113 0 0 57 0 0 0 0 185 178 3 1 1 0 0 0 0 0 0 0 0 14 44 0 0 0 0 0
1095 819 1053 1114 998 980 924 158 0 0 0 0 0 9 0 0 1 1 1 1 1 1 2 3 3 4 0 5 12 5 1 0 0 0 0 0 0 0 0 0 0 1 0
798 768 778 384 516 563 1069 677 4 0 0 0 0 0 0 0 0 1 1 0 0 0 0 1 3 5 19 29 57 10 0 2 0 0 0 0 0 0 0 0 0 0 0
2 0 133 12 73 53 352 326 46 11 0 0 0 0 1 1 1 0 1 1 0 0 1 55 8 22 27 19 40 28 21 1 0 0 2 0 1 0 1 0 0 0 0
0 3 2 2 0 0 5 5 3 10 215 258 0 0 0 1 0 1 1 0 59 48 53 239 211 129 22 25 17 7 3 3 2 2 3 3 2 0 0 0 1 0 0
3 0 0 0 0 0 0 4 28 29 37 88 118 13 0 0 0 0 0 123 61 48 34 103 169 214 112 34 7 1 1 1 3 1 4 1 0 0 2 1 1 0 1
0 0 0 0 0 0 13 53 94 76 91 121 13 0 0 2 0 0 0 0 2 24 15 9 4 0 0 0 1 93 0 0 0 0 1 0 1 5 3 6 6 5 4
8 41 47 8 23 15 6 20 58 25 63 90 13 0 0 4 0 0 0 0 2 0 1 2 1 3 1 0 0 0 0 0 0 0 0 0 0 35 9 6 1 1 1
11 0 10 69 95 64 77 89 86 107 104 50 18 1 3 2 0 0 0 0 3 2 0 0 0 0 0 0 0 0 0 0 0 0 1 9 27 27 25 30 29 36 21
0 0 1 7 10 80 67 7 5 2 12 19 3 0 0 0 0 0 0 1 0 0 0 0 0 1 5 3 0 0 0 0 0 0 0 10 11 13 21 27 27 18 18
9 22 8 20 67 85 54 6 1 1 5 0 0 0 2 0 4 3 0 1 1 4 11 13 0 0 0 0 0 0 0 0 0 0 0 0 23 15 6 1 3 0 0
0 2 0 13 15 26 14 0 3 0 0 0 0 0 0 0 4 12 10 17 6 15 10 16 0 0 0 0 0 0 0 0 0 0 0 0 15 21 19 13 11 5 7

GFSGL_con_sbcape_075.txt.gz
CAPE
2284 2428 2426 2298 2005 1606 1863 1486 1048 651 517 375 342 491 466 370 353 201 249 225 190 185 276 287 261 280 212 196 352 290 200 56 0 7 0 0 0 1 0 0 0 0 0
2585 2363 2398 2262 1907 1933 1511 1291 876 859 613 527 223 385 407 423 347 314 187 163 135 146 154 167 133 310 216 118 160 171 193 54 0 1 2 1 0 0 0 0 0 0 0
2704 2502 2288 2127 1908 2032 1729 1415 1096 852 607 638 373 268 255 256 204 181 37 0 29 72 115 84 43 170 209 216 221 214 97 0 2 2 3 2 0 0 0 0 0 0 0
2530 2435 2391 2060 2023 1908 1779 1456 1268 807 867 725 476 416 393 192 163 124 56 0 0 25 59 4 135 128 80 175 264 165 1 2 3 3 4 3 0 0 0 0 0 0 0
2625 2524 2321 2048 2132 1907 1613 1533 1090 998 982 870 677 358 187 83 0 38 14 0 0 8 15 36 0 0 0 0 77 152 45 0 1 1 1 1 1 0 0 0 0 0 0
2595 2587 2641 2194 2190 2042 1828 1576 1199 986 902 591 406 373 125 0 0 0 0 0 0 14 0 0 0 0 0 0 0 102 0 0 0 0 1 0 0 0 0 0 0 0 0
2804 2902 2959 2227 1981 1560 1580 1678 1329 893 908 748 677 503 330 0 0 0 0 0 0 3 9 6 1 12 0 0 0 0 0 6 0 0 0 0 0 0 0 0 0 0 0
3212 3022 2638 2467 1615 1602 1404 1246 1062 1002 975 1240 968 702 380 0 0 0 0 0 0 0 0 1 1 1 3 0 0 0 0 30 22 10 0 0 0 0 0 0 0 0 0
3367 2808 2838 2422 2100 1314 1140 1016 1103 1175 1332 1323 1105 947 523 0 0 0 0 0 0 0 2 0 6 0 0 0 20 0 0 0 0 0 16 0 0 0 0 0 0 0 0
3483 3213 2905 2314 1773 1060 819 1047 1284 1356 1269 1089 854 679 492 36 0 0 0 0 0 0 0 0 0 0 0 0 0 0 2 1 0 0 0 0 0 0 0 0 0 0 0
2549 962 0 1 0 173 630 1207 1206 1269 1065 946 930 584 346 127 0 0 0 0 0 0 0 0 0 0 0 0 0 0 0 0 0 0 0 0 0 0 0 0 0 0 0
54 0 0 0 3 0 44 235 995 796 849 960 731 684 534 118 6 2 0 0 0 0 0 0 0 0 0 0 0 0 0 0 0 0 5 23 12 25 0 0 0 0 0
0 0 0 0 0 0 0 0 625 727 752 563 553 417 419 75 0 0 0 0 0 0 0 0 0 0 0 0 0 0 0 0 0 0 0 0 17 15 38 1 0 0 0
0 0 0 0 17 0 0 32 505 595 584 449 564 432 490 286 0 0 1 1 0 1 0 0 0 0 0 0 0 0 0 0 0 0 0 0 0 0 23 31 23 20 13
0 0 0 0 0 308 356 343 388 11 165 429 256 263 395 213 4 0 0 0 0 0 0 0 0 0 0 0 0 0 0 0 0 0 0 0 0 0 0 0 0 0 0
170 0 8 0 323 397 0 0 1 1 0 0 0 0 0 0 2 2 0 1 1 1 0 0 0 0 0 0 0 1 0 0 0 0 0 0 0 0 0 0 0 0 0
2 1 5 1 2 20 65 0 0 0 1 0 0 0 0 0 0 0 0 0 0 1 0 0 0 0 0 0 0 0 2 0 0 0 0 0 0 0 0 0 0 0 0
0 0 2 1 1 1 1 18 0 0 0 0 0 0 1 1 0 0 0 0 0 1 0 0 0 3 5 4 0 2 1 1 0 0 0 0 1 2 2 1 1 1 0
1 1 1 0 0 0 0 1 0 0 0 0 0 0 0 0 0 0 1 0 0 0 0 3 0 0 5 3 1 1 2 0 0 0 0 0 0 1 0 0 0 0 0
0 0 0 0 0 0 0 3 1 0 0 1 0 0 0 0 0 0 0 0 0 0 0 0 0 0 10 0 0 0 0 0 0 0 0 0 0 0 0 0 0 0 0
3 0 0 0 0 0 0 0 0 0 0 26 2 0 0 0 4 0 0 0 0 0 0 0 0 0 0 0 0 0 0 0 0 0 0 0 0 0 0 1 0 0 0
0 0 18 2 0 0 0 0 3 5 9 12 3 0 6 0 0 0 0 0 0 0 0 0 0 0 0 0 0 0 0 0 0 0 0 0 0 0 0 0 7 10 10
0 0 0 0 7 1 0 0 0 1 0 0 0 0 0 0 0 0 0 0 0 0 0 0 0 0 0 0 0 0 0 0 0 0 0 0 0 1 6 8 8 4 0
0 0 0 1 3 0 0 0 0 0 0 0 0 0 0 0 0 0 0 0 0 0 0 0 0 0 0 0 0 0 0 0 0 0 0 0 0 0 0 0 0 2 1
0 0 0 8 8 0 0 0 1 0 0 0 0 0 0 0 0 0 0 0 0 0 0 0 0 0 0 0 0 0 0 0 0 0 0 0 0 0 0 1 4 0 0
0 0 0 2 1 0 0 0 0 0 0 0 0 0 0 0 0 0 0 0 0 0 0 0 0 0 0 0 0 0 0 0 0 0 0 0 0 0 0 1 0 0 0

GFSGL_con_sbcape_078.txt.gz
CAPE
1557 1571 1764 1578 1420 1128 969 808 756 357 316 298 189 270 512 245 205 97 42 25 0 0 0 55 74 75 139 94 152 67 52 1 0 2 1 0 1 1 0 0 0 0 0
1475 1797 1833 1827 1750 1372 1165 1244 782 436 276 123 68 192 185 114 34 0 0 129 2 0 1 60 32 31 51 33 67 87 90 18 0 0 1 1 0 0 0 0 0 0 1
1597 1878 1984 1912 1719 1524 1338 1254 655 603 432 332 144 89 93 105 51 3 9 0 0 2 0 0 15 9 0 8 41 47 22 17 0 1 1 1 1 1 1 0 0 0 0
1913 1996 1948 1790 1680 1533 1399 1185 755 618 511 335 212 110 21 15 9 7 20 0 0 0 2 2 6 0 0 0 41 1 1 1 0 1 1 1 0 0 0 1 0 0 0
2029 2073 1983 1797 1547 1477 1429 1187 890 723 712 572 565 402 365 268 14 70 24 0 0 0 0 24 4 0 0 0 0 1 1 0 1 1 1 2 0 0 1 0 0 0 0
2087 2068 1907 1687 1621 1534 1306 1185 893 649 696 577 678 527 132 0 0 0 4 1 1 13 4 0 0 0 0 0 0 0 0 0 1 0 0 1 0 0 0 0 0 0 0
2230 2107 2092 1948 1696 1646 1417 1216 864 596 539 584 364 278 198 49 0 0 0 0 0 0 4 0 0 0 0 0 0 2 0 0 0 0 0 0 0 0 0 0 0 0 0
2260 2290 2162 2231 1496 1019 604 295 704 629 561 491 403 342 258 80 0 0 0 0 0 0 1 9 13 2 0 0 0 0 0 1 0 0 0 0 0 0 0 0 0 0 0
2452 2319 2286 1448 10 10 0 0 5 107 445 580 593 527 318 78 0 0 0 0 0 0 0 9 5 1 2 0 5 1 0 0 0 0 0 0 0 0 0 0 0 0 0
1202 2307 680 249 38 0 0 0 0 0 0 399 762 595 383 51 0 0 0 0 0 0 0 0 0 0 0 1 23 1 0 0 0 0 0 0 0 0 0 0 0 0 0
419 259 21 282 140 0 0 0 0 0 1 180 525 439 305 27 0 0 0 0 0 0 0 0 0 0 0 0 0 0 2 0 0 0 0 0 0 0 0 0 0 0 0
7 0 0 1 61 0 0 0 0 0 0 254 293 258 194 34 0 1 2 0 0 0 0 0 0 0 0 0 0 0 0 0 0 0 0 0 0 1 0 0 0 0 0
0 0 0 0 0 0 0 0 0 0 163 377 319 218 146 15 0 1 1 2 1 0 0 0 0 0 0 0 0 0 0 0 0 0 0 0 0 0 0 0 0 0 0
0 0 0 0 0 0 0 0 1 0 8 236 185 154 151 50 1 1 0 1 0 1 0 0 0 0 0 0 0 0 0 0 0 0 0 0 0 0 0 0 1 1 5
0 0 0 0 0 0 0 0 0 0 194 182 219 120 116 108 1 0 0 0 0 0 0 0 0 0 0 0 0 0 0 0 0 0 0 0 0 0 0 0 0 1 2
14 16 0 17 2 96 0 1 0 1 1 1 29 43 1 33 1 2 2 2 1 1 1 0 0 1 0 0 0 1 0 0 0 0 0 0 0 0 0 0 0 0 0
1 2 1 1 1 1 0 0 0 1 1 1 0 1 1 1 2 2 2 1 0 0 0 0 0 0 0 0 0 3 1 1 0 0 0 0 0 0 0 0 0 0 0
1 0 1 2 2 0 1 0 0 0 0 0 0 0 1 1 1 1 1 1 0 0 0 0 0 0 0 0 0 0 0 0 0 0 0 0 0 1 2 1 0 1 1
0 0 0 0 0 0 0 2 1 5 0 0 0 0 0 0 1 1 1 0 0 0 0 0 0 0 0 0 0 0 0 0 0 0 0 0 0 0 0 0 0 0 0
0 0 0 0 0 0 0 1 3 8 2 0 2 0 0 0 0 0 0 0 0 0 0 1 0 0 0 0 0 0 0 0 0 0 0 0 0 0 0 0 0 0 0
0 0 0 0 0 1 0 0 0 2 5 3 2 0 0 2 0 0 0 0 0 0 0 0 0 0 0 0 0 0 0 0 0 0 0 0 0 0 0 2 3 5 8
0 0 0 0 0 0 0 4 1 0 4 2 1 1 0 0 0 0 0 0 0 0 0 0 0 0 0 0 0 0 0 0 0 0 0 0 0 0 0 0 0 0 0
0 0 0 0 0 0 1 0 4 1 1 1 0 0 0 0 0 0 0 0 0 0 0 0 0 0 0 0 0 0 0 0 0 0 0 0 0 0 0 0 0 0 0
0 0 0 0 0 0 0 0 0 0 0 0 0 0 0 0 0 0 0 0 0 0 0 0 0 0 0 0 0 0 0 0 0 0 0 0 0 0 0 0 0 0 0
0 0 0 0 0 0 0 0 0 0 0 0 0 0 0 0 0 0 0 0 0 0 0 0 0 0 0 0 0 0 0 0 0 0 0 0 0 0 0 0 0 0 0
0 0 0 0 0 0 0 0 0 0 0 0 0 0 0 0 0 0 0 0 0 0 0 0 0 0 0 0 0 0 0 0 0 0 0 0 0 0 0 0 0 0 0

GFSGL_con_sbcape_081.txt.gz
CAPE
1182 1390 1369 1167 1070 962 820 679 493 483 469 322 447 453 350 337 195 156 74 36 19 0 0 0 0 2 68 94 84 44 45 4 0 1 0 0 1 1 1 0 0 0 0
1108 1303 1477 1431 1241 1124 969 826 675 553 291 382 219 217 308 390 172 144 113 142 41 39 25 26 71 57 30 6 36 54 42 6 0 0 1 1 1 1 0 0 0 0 0
1152 1311 1430 1486 1411 1299 1078 1008 886 414 314 154 123 303 271 259 162 108 31 21 0 15 17 24 78 47 50 0 7 28 0 19 0 1 1 1 1 1 1 0 0 0 0
1273 1340 1428 1413 1297 1337 1157 949 853 521 420 318 197 110 188 140 134 53 58 0 0 0 0 0 31 65 71 39 22 13 1 1 0 0 1 0 0 1 2 1 1 0 0
1403 1320 1438 1395 1296 1332 1191 968 707 445 271 175 200 168 123 89 143 58 80 0 0 0 0 0 6 11 3 0 0 0 1 0 1 1 1 1 1 2 1 4 0 0 0
1238 1551 1402 1342 1222 1034 564 10 122 204 252 323 282 222 193 164 96 71 31 0 0 0 0 0 0 0 0 4 0 27 0 0 0 0 0 0 0 1 1 1 0 0 0
1403 1762 1778 1276 792 92 0 0 1 0 0 0 1 69 89 4 0 0 18 0 0 0 0 0 0 0 0 0 17 61 0 0 0 0 0 0 0 0 0 0 0 0 0
1810 1776 1378 1003 132 14 0 0 0 0 0 0 0 0 8 5 0 0 0 0 0 0 0 0 0 0 0 1 7 18 4 0 0 0 0 0 0 0 0 0 0 0 0
1879 1936 1578 709 219 24 0 1 0 0 0 0 0 0 0 0 0 0 0 0 0 0 0 0 0 0 0 0 0 1 1 0 1 0 0 0 0 0 0 0 0 0 1
715 1252 1462 402 195 0 0 0 0 0 0 0 0 0 0 78 0 0 0 0 0 0 0 0 0 0 0 0 0 0 0 1 0 0 0 0 0 0 0 0 0 0 0
104 145 457 318 97 0 0 0 0 0 0 0 0 0 0 68 0 0 0 0 0 0 0 0 0 0 0 0 0 0 0 0 0 0 0 0 0 0 0 0 0 0 0
0 1 0 42 59 34 0 0 0 0 0 0 0 0 57 22 0 1 1 0 0 0 0 0 0 0 0 0 0 0 0 0 0 0 0 0 0 0 0 0 0 0 0
0 0 0 0 0 0 1 0 0 0 0 0 9 130 220 20 1 1 1 0 0 0 0 0 0 0 0 0 0 0 0 0 0 0 0 0 0 0 0 0 0 0 0
0 0 0 0 0 0 0 0 0 0 1 5 48 130 84 3 3 0 0 0 1 0 1 0 0 0 0 0 0 0 0 0 0 0 0 0 0 0 0 0 1 1 3
1 1 0 0 0 0 0 1 1 0 0 0 0 0 27 7 2 0 1 0 0 0 0 0 0 0 0 0 0 0 0 0 0 0 0 0 0 0 0 0 1 1 2
1 2 1 3 6 1 0 0 0 0 1 1 1 1 2 88 2 1 1 1 0 1 1 1 0 0 0 0 0 0 0 0 0 0 0 0 0 0 0 0 0 0 0
0 0 1 1 4 1 0 1 0 1 0 0 1 1 1 0 1 2 2 2 2 1 1 2 0 0 0 0 0 0 0 1 0 0 0 1 1 0 0 0 0 0 0
0 0 0 1 1 1 2 1 0 0 1 4 2 1 1 1 1 1 2 0 0 0 0 0 0 0 0 0 0 0 0 0 0 0 0 0 0 0 0 0 0 0 0
0 0 0 0 0 0 1 2 1 1 1 2 4 0 0 1 1 1 1 0 0 0 0 0 0 0 0 0 0 0 0 0 0 0 0 0 0 0 0 0 0 0 0
0 0 0 0 0 0 0 3 3 1 2 0 0 0 0 0 0 0 0 0 0 0 0 0 0 0 0 0 0 0 0 0 0 0 0 0 0 0 0 1 0 0 0
0 0 0 0 0 0 0 1 20 1 2 2 2 0 1 0 2 1 0 0 0 1 1 0 0 0 0 0 0 0 0 0 0 0 0 0 0 0 0 0 0 0 0
0 0 0 0 0 0 0 0 2 30 10 10 2 1 0 0 0 0 0 0 0 0 0 0 0 0 0 0 0 0 0 0 0 0 0 0 0 0 0 0 0 0 0
0 0 0 0 0 0 0 0 0 0 26 5 1 1 1 0 0 0 0 0 0 0 0 0 0 0 0 0 0 0 0 0 0 0 0 0 0 0 0 0 0 0 0
0 0 0 0 0 0 0 0 0 2 4 2 1 0 0 0 0 0 0 0 0 0 0 0 0 0 0 0 0 0 0 0 0 0 0 0 0 0 0 0 0 0 0
0 0 0 0 0 0 0 0 0 0 0 0 0 0 0 0 0 0 0 0 0 0 0 0 0 0 0 0 0 0 0 0 0 0 0 0 0 0 0 0 0 0 0
0 0 0 0 0 0 0 0 0 0 0 0 0 0 0 0 0 0 0 0 0 0 0 0 0 0 0 0 0 0 0 0 0 0 0 0 0 0 0 0 0 0 0

GFSGL_con_sbcape_084.txt.gz
CAPE
881 888 880 878 733 619 572 562 446 269 498 410 462 388 196 58 103 75 52 97 38 14 0 0 0 0 8 46 70 63 51 35 46 0 0 0 4 3 1 0 0 1 1
853 968 1059 1008 892 754 710 712 568 526 419 372 296 395 374 382 251 205 160 201 68 0 0 0 0 0 42 31 7 54 52 16 23 0 1 1 1 1 1 0 0 1 0
777 962 1149 1131 1008 864 748 699 680 612 368 243 235 248 228 248 258 109 85 68 61 35 1 0 32 12 45 2 0 2 11 34 1 0 1 1 1 0 2 1 1 2 0
843 812 909 1096 1081 976 754 646 695 542 377 327 212 101 169 187 216 123 75 14 18 0 0 0 0 20 145 54 24 0 2 5 4 2 2 3 1 2 1 1 0 0 4
852 786 753 825 980 860 725 537 344 251 240 194 224 231 115 100 69 113 6 0 3 0 0 0 0 0 0 10 42 87 4 4 3 1 1 1 1 3 2 3 2 3 2
68 61 0 454 753 723 374 299 269 333 345 278 206 123 175 69 29 21 14 0 0 0 0 2 1 0 0 0 0 0 24 5 2 2 1 2 3 3 1 3 1 3 4
0 0 2 0 443 407 222 185 251 157 134 202 256 195 132 123 56 2 0 0 0 0 0 0 0 0 0 0 1 0 0 0 0 0 0 0 1 7 4 2 3 2 1
0 0 3 10 349 104 111 138 183 97 25 64 96 33 153 97 19 0 0 10 0 0 0 0 3 0 0 1 66 19 3 0 0 0 0 0 0 0 0 0 0 0 0
0 0 0 562 244 144 135 49 41 22 32 66 0 0 0 20 0 0 0 0 0 0 0 0 0 0 0 0 38 79 21 6 1 0 0 0 0 0 0 0 1 1 1
36 53 131 1105 286 195 136 69 75 0 0 0 0 0 0 0 0 0 0 0 0 0 0 0 0 0 0 0 0 4 2 0 3 2 1 0 0 0 0 3 0 2 2
25 2 0 233 267 161 2 0 0 0 0 0 0 0 0 0 0 0 0 0 0 0 0 0 0 0 0 0 0 0 11 0 0 2 0 1 1 0 0 1 1 0 0
3 0 0 0 2 17 0 0 0 0 0 0 0 0 0 0 0 1 0 0 0 0 0 0 0 0 0 0 0 0 0 0 2 2 0 3 16 1 1 0 1 0 2
3 2 0 0 0 0 0 2 3 1 1 1 4 4 0 3 1 0 0 1 0 0 0 0 0 0 0 0 0 0 0 0 0 3 22 8 1 5 2 4 3 3 3
0 0 1 0 0 0 0 1 4 2 3 6 11 11 5 13 1 4 6 3 2 0 1 0 0 0 0 0 0 0 0 0 0 0 0 0 0 0 0 4 0 2 5
1 1 2 3 2 1 1 3 3 3 2 8 8 13 46 2 2 1 1 2 4 1 0 0 1 0 0 0 0 0 0 0 0 0 0 0 0 0 0 0 1 2 29
1 2 2 1 2 6 4 0 1 0 0 1 1 0 0 6 2 0 1 1 1 1 2 2 1 1 1 0 0 1 0 0 0 0 0 0 0 0 0 1 0 0 2
1 0 0 2 5 2 2 4 0 0 1 0 0 2 1 0 2 2 2 2 2 0 1 1 4 3 1 1 23 10 1 1 2 0 0 1 0 1 0 2 1 1 1
0 0 1 4 7 3 1 3 2 1 2 3 1 0 2 3 2 1 1 1 0 0 2 1 2 1 1 3 2 1 1 2 2 0 0 0 0 0 0 1 1 1 1
0 0 0 1 1 0 2 3 2 2 3 2 3 0 8 0 1 1 1 1 0 0 0 1 1 2 1 0 0 1 0 1 1 0 0 8 7 4 0 1 1 0 0
0 0 0 1 0 0 1 2 2 5 2 1 2 4 2 0 1 1 0 0 0 2 1 2 3 2 1 1 2 1 2 1 4 5 3 3 2 2 0 0 0 2 4
0 0 0 0 0 0 0 10 2 8 7 3 1 1 0 0 0 1 1 7 35 19 1 2 2 1 0 0 0 0 0 0 0 0 0 0 0 0 0 7 0 0 0
0 0 0 0 0 0 0 10 5 8 23 10 1 0 0 2 1 2 3 2 2 1 0 0 0 0 0 0 0 0 0 0 0 0 0 0 0 0 0 0 0 0 0
0 0 0 0 0 0 0 0 3 13 23 1 2 2 2 2 2 2 3 4 2 0 0 0 0 0 0 0 0 0 0 0 0 0 0 0 0 0 0 0 0 0 0
0 0 0 0 0 0 0 0 1 3 3 1 1 1 1 2 2 3 3 0 0 0 0 0 0 0 0 0 0 0 0 0 0 0 0 0 0 0 0 0 0 0 0
0 0 0 0 0 0 0 0 0 0 0 0 1 3 2 4 4 0 0 0 0 0 0 0 0 0 0 0 0 0 0 0 0 0 0 0 0 0 0 0 0 0 0
0 0 0 0 0 0 0 0 0 0 0 0 1 2 0 0 0 0 0 0 0 0 0 0 0 0 0 0 0 0 0 0 0 0 0 0 0 0 0 0 0 0 0

GFSGL_con_sbcape_087.txt.gz
CAPE
1787 1787 1610 1649 1577 2116 2049 1835 1800 1846 1628 1649 1881 1703 1472 1007 509 227 111 45 94 251 257 366 490 540 227 352 587 327 267 142 141 15 3 5 9 5 8 7 5 39 6
1952 1886 1791 1795 1670 1926 1913 1932 1881 1918 1578 1571 1804 1697 1567 1348 1023 1078 1153 781 883 769 525 441 242 50 68 166 411 569 462 474 309 136 2 3 8 3 2 1 2 3 4
1792 1903 1913 1842 1873 2132 2257 2088 2022 1946 1721 1423 1596 1574 1541 1480 1468 1374 1140 812 703 628 527 548 555 538 626 947 605 428 390 369 158 25 40 10 14 4 4 1 1 3 5
1764 1842 1973 1829 1982 2216 2374 2169 2135 2062 1890 1687 1565 1638 1533 1397 1279 1138 1205 925 733 515 593 468 371 496 631 617 545 591 280 290 246 220 118 14 13 9 3 1 3 2 5
1619 1741 1387 1371 1808 2228 2200 2361 2265 2247 1952 1701 1516 1436 1383 1241 960 1034 1043 949 823 631 483 351 323 178 82 155 269 418 167 174 10 21 14 8 10 9 2 2 2 1 5
1309 435 744 874 739 650 924 1372 2239 2203 1854 1507 1368 1329 1187 886 376 236 568 679 754 673 622 376 207 21 16 0 0 0 89 97 153 88 14 9 10 7 4 2 5 9 6
44 104 202 250 282 187 190 441 1114 2203 2208 1762 1668 1446 1149 1181 187 0 1 461 559 571 637 446 258 73 77 140 11 0 2 0 3 262 119 157 123 8 8 6 4 10 9
51 41 56 69 77 26 63 125 254 1065 2198 2278 1811 1551 1327 1153 328 0 0 454 579 486 441 358 342 373 226 127 208 169 120 53 50 24 178 187 192 147 5 4 2 2 2
182 388 213 79 71 25 53 121 315 927 1827 2001 1047 814 792 1065 139 0 0 573 602 456 381 327 302 308 45 0 229 124 141 182 2 0 0 0 0 0 19 5 3 2 3
66 194 104 185 687 832 253 344 369 922 1088 681 278 158 29 187 35 0 0 559 584 441 379 352 0 137 0 0 248 345 416 378 221 110 25 6 4 1 0 34 4 5 8
43 178 59 20 146 234 253 139 46 0 1 35 51 80 53 0 0 0 0 206 436 411 398 347 237 0 0 0 1 455 262 220 106 314 266 205 176 100 57 46 41 112 95
2 66 55 2 0 44 9 1 0 1 1 0 0 0 0 0 0 0 0 0 3 459 377 522 183 0 0 0 0 5 0 37 233 238 192 182 159 171 195 208 140 59 40
5 5 9 12 2 1 1 1 2 11 10 6 6 5 1 1 0 0 1 0 0 345 458 246 3 0 2 0 0 0 0 237 308 297 257 265 250 283 260 229 178 169 153
4 2 5 6 4 14 13 11 6 6 10 6 6 5 6 16 28 56 2 1 1 0 1 1 0 0 0 0 0 0 0 38 130 180 246 321 219 105 294 206 129 15 8
7 11 9 2 8 15 15 10 4 7 6 5 6 13 24 28 28 0 0 2 3 1 1 0 2 6 6 0 0 0 0 0 0 0 0 0 3 26 24 14 15 26 80
0 0 1 5 9 13 11 8 1 0 0 1 0 1 8 1 1 1 1 1 1 0 0 12 24 54 85 61 12 1 1 0 0 3 2 0 0 0 0 0 0 24 75
0 2 2 6 27 12 6 17 37 1 0 1 0 0 1 0 2 2 2 2 1 0 2 10 55 146 182 133 92 124 17 25 7 1 0 0 1 4 18 11 8 0 4
1 0 0 1 10 27 12 28 10 7 6 4 1 0 0 0 1 2 1 1 0 1 14 30 34 38 10 18 28 11 28 9 7 5 6 5 10 9 8 9 6 9 7
5 1 1 0 3 9 35 19 17 12 7 8 6 1 1 1 0 1 1 1 2 7 25 26 15 27 31 7 8 11 9 5 2 4 9 17 12 10 10 11 8 3 9
5 0 0 1 1 13 36 9 16 10 10 11 10 11 2 6 5 6 5 1 1 2 2 3 9 36 3 5 4 4 4 7 13 12 13 12 10 12 11 5 14 16 21
8 3 0 1 3 40 24 9 6 6 6 5 6 1 0 1 3 2 1 2 2 2 23 21 48 29 9 4 4 6 8 9 12 15 13 11 15 16 19 14 16 17 8
7 2 0 2 0 26 48 114 10 22 26 16 6 1 0 32 3 1 1 2 1 1 2 1 1 2 10 6 6 1 4 7 6 4 5 1 0 0 0 0 0 0 0
4 8 14 3 49 18 134 94 134 19 26 7 4 3 4 2 4 4 4 3 2 2 1 0 0 0 0 0 0 0 0 1 0 0 0 0 0 0 0 0 0 0 0
26 31 24 40 24 29 2 5 26 5 3 3 3 3 2 4 4 4 2 2 1 0 0 0 0 0 0 0 0 0 0 0 0 0 0 0 0 0 0 0 0 0 0
13 29 32 55 50 60 46 0 2 11 6 3 2 5 7 6 4 6 0 0 0 0 0 0 0 0 0 0 0 0 0 0 0 0 0 0 0 0 0 0 0 0 0
7 18 25 21 9 5 86 40 1 2 12 9 6 5 3 2 1 0 0 0 0 0 0 0 0 0 0 0 0 0 0 0 0 0 0 0 0 0 0 0 0 0 0

GFSGL_con_sbcape_090.txt.gz
CAPE
3190 3122 2791 2468 2020 1917 2017 2549 2069 2235 2247 2209 1708 1880 2080 1873 1530 1455 997 511 653 673 743 858 872 891 1646 1569 1445 1274 967 740 557 301 394 156 77 97 130 84 0 96 1
3042 3090 2685 2288 2123 1773 2305 2564 2179 2337 2290 2287 1625 2061 2020 1871 1529 1328 1187 743 623 714 739 632 631 537 804 632 365 1364 1370 386 200 331 263 141 173 132 24 8 16 6 10
1953 2972 2206 1955 1963 1801 2381 2297 2391 2314 2335 2178 1538 1834 1710 1843 1785 1640 1570 1382 1268 1073 968 948 881 729 824 939 518 763 848 921 735 356 266 74 60 24 5 2 2 3 5
70 1574 2193 2150 2132 1958 2428 2648 2532 2433 2390 2291 1998 1903 1730 1684 1772 1666 1530 1389 1200 1067 959 824 663 546 708 934 895 884 820 858 640 928 904 232 126 21 7 5 3 2 10
3 37 2382 2601 2485 2331 2503 2765 2801 2559 2521 2516 2088 2144 1922 1507 1443 1526 1359 1263 1290 1129 956 958 723 527 148 247 348 790 752 867 450 297 288 155 18 9 7 8 5 5 3
696 1231 1522 2362 2578 2736 2756 2863 2902 2566 2585 2429 2326 1941 1808 1330 793 415 490 1143 1202 1107 1053 958 807 128 56 12 0 0 60 741 435 139 105 268 278 14 8 2 2 4 8
477 1472 1757 2157 2732 2892 2599 2081 1608 1554 1891 2515 2476 2315 1858 1714 738 219 191 755 900 873 905 915 712 383 248 435 28 0 0 0 0 382 394 484 572 372 11 8 7 3 45
238 348 765 762 1487 1520 1221 1446 1308 1048 1484 1775 1824 2534 2321 1977 961 123 33 658 792 879 809 768 893 761 568 423 434 312 317 262 226 242 533 418 480 503 224 14 9 1 4
224 188 139 388 658 975 533 839 842 786 1166 1286 1461 2181 2171 1957 845 0 0 627 975 942 918 847 743 848 344 60 399 337 377 384 14 0 0 0 0 2 208 25 4 1 5
273 434 623 820 1268 1247 1300 1123 1071 1082 1322 1258 1449 1082 836 1299 394 1 0 734 1211 1470 1268 1295 268 424 0 10 296 509 381 401 280 125 40 8 12 8 0 127 9 9 6
16 243 483 638 721 1075 1364 1391 978 988 668 560 548 594 803 721 580 0 0 77 256 839 1199 911 1450 3 0 0 7 468 739 538 300 429 415 272 234 117 89 105 209 377 72
3 10 81 249 463 288 446 560 462 278 137 91 71 51 66 223 33 22 0 0 6 184 676 929 834 0 0 0 0 23 3 48 266 391 429 128 186 181 187 260 270 305 290
6 9 13 8 54 211 288 312 271 325 158 230 345 573 722 916 839 0 0 0 0 0 137 351 238 0 2 0 0 0 0 133 214 273 190 417 539 126 227 271 223 218 278
11 17 8 8 5 7 4 39 169 139 66 15 21 28 10 3 3 23 4 1 0 0 0 13 0 0 0 117 2 0 122 179 217 191 213 419 357 707 441 630 274 241 274
0 12 22 15 8 8 19 37 20 9 11 9 11 25 5 16 22 3 64 10 6 2 34 2 2 2 130 206 166 55 143 155 174 186 242 280 294 328 422 469 467 221 169
0 0 1 3 17 20 20 9 0 1 0 0 1 0 0 0 0 1 0 0 0 0 28 2 1 19 148 142 86 133 108 43 70 68 83 105 57 81 224 95 90 113 55
1 0 0 2 12 19 36 45 25 0 0 1 1 0 0 0 0 0 2 1 2 1 4 16 38 40 138 145 206 192 113 23 57 43 71 19 66 30 0 63 222 134 126
5 0 0 2 19 32 17 57 19 21 21 9 0 0 0 1 0 1 1 1 1 1 14 7 18 73 113 163 271 296 164 18 164 68 49 72 18 3 1 1 1 10 5
7 6 1 0 7 8 18 70 22 33 19 10 8 2 0 1 1 1 1 4 3 7 4 3 13 13 12 71 42 38 24 98 76 98 66 33 27 28 28 17 10 3 3
18 0 0 0 4 56 96 117 26 26 19 32 34 11 8 1 3 2 4 6 4 2 7 6 5 5 2 3 1 24 5 51 49 51 70 114 88 54 31 13 13 19 28
32 20 0 2 15 35 144 190 110 7 15 47 32 0 0 12 11 15 3 2 3 2 2 2 2 2 3 2 62 99 95 60 51 43 23 12 22 5 8 8 6 12 16
33 34 26 28 34 39 152 235 218 27 18 39 13 3 0 1 5 5 2 3 3 2 3 3 6 3 3 4 26 42 66 47 63 64 35 18 19 18 10 6 6 3 1
19 42 70 91 131 79 226 325 310 166 13 8 15 4 2 19 3 3 4 6 4 5 4 2 3 3 3 2 35 80 47 11 13 10 3 0 0 0 0 0 0 0 0
31 47 75 173 339 280 202 175 304 38 25 3 5 4 3 3 4 3 3 2 2 2 3 1 1 0 0 0 0 0 1 0 0 0 0 0 0 0 0 0 0 0 0
30 74 60 172 203 325 216 63 58 83 5 3 5 6 8 5 5 6 4 1 3 0 0 0 0 0 0 0 0 0 0 0 0 0 0 0 0 0 0 0 0 0 0
38 43 61 62 62 77 279 217 222 128 68 14 28 8 2 3 1 0 0 0 0 0 0 0 0 0 0 0 0 0 0 0 0 0 0 0 0 0 0 0 0 0 0

GFSGL_con_sbcape_093.txt.gz
CAPE
3542 4061 4119 3360 3029 2853 2504 2821 2774 2411 3076 2270 1781 1758 1896 1988 1947 1747 1396 931 968 987 1052 1060 1012 1010 755 1294 1249 1531 1795 1367 960 1118 1471 798 234 255 237 242 243 149 3
2273 3277 3071 3303 2749 2500 2274 2740 2951 2801 2976 2607 2214 1718 1830 2117 1785 1503 1344 845 822 800 693 744 718 744 1177 1346 896 1444 1465 1426 1369 895 984 964 393 321 320 159 89 13 75
345 761 483 1 2036 2470 2370 2551 2869 2690 2910 2576 2379 1751 1610 1613 2116 1948 1492 1236 1079 1260 1287 1570 1182 1178 1301 1702 987 1379 697 1533 1253 1184 1012 1007 132 130 5 3 2 2 0
155 49 2 0 6 586 2691 2831 2697 3069 2582 2688 2587 1835 1669 1433 1512 1832 1905 1643 1808 1465 1588 1219 1071 987 1279 1229 1263 1169 1329 982 750 1034 860 1012 535 131 12 4 5 2 5
778 77 8 0 0 77 2106 2929 3159 2812 2615 2862 2660 2432 2479 1563 1172 2016 1712 1623 1808 1459 1537 1142 998 901 196 357 822 1558 1618 769 312 335 603 908 400 80 6 7 9 5 2
939 588 15 2 1 5 2047 2845 3049 3339 3182 2854 2479 2272 2478 1472 926 847 987 1505 1830 1364 1589 1160 1350 406 68 9 0 8 270 746 1164 1000 810 300 927 154 12 13 6 5 2
1207 1340 525 133 36 50 2148 2606 2921 3165 3533 3398 2690 2501 2286 2038 544 517 469 1135 1160 1577 1566 1329 849 454 485 492 20 0 0 0 0 539 525 397 561 435 60 7 2 0 1
671 1075 1276 1199 1200 1726 2008 2595 2777 3129 2771 2289 2357 3091 2894 2614 312 443 339 1359 1400 1387 1323 1235 1301 1046 960 597 705 322 114 80 9 0 265 567 557 661 214 11 4 6 0
426 534 461 421 866 1220 1746 1539 1630 2069 1859 1840 2162 2778 3010 2780 1009 229 120 1397 1321 1372 1284 1316 1135 959 838 133 389 809 620 674 6 0 0 0 6 199 366 29 4 3 2
693 645 696 842 948 1398 1217 739 794 1714 1837 1238 1922 2464 2446 2701 1435 108 157 977 1186 862 1904 1911 625 675 576 89 549 814 837 483 383 173 70 0 0 9 0 125 10 6 2
70 475 640 736 835 962 1107 1688 1898 1865 1488 1652 1638 2120 1975 1668 1556 23 0 836 719 886 755 874 999 400 11 0 58 792 787 1039 517 624 239 142 111 150 87 177 144 13 5
16 66 126 147 370 585 723 646 733 802 793 716 900 987 1183 1077 737 310 58 16 280 359 644 779 921 542 0 0 0 60 299 152 1095 435 331 625 269 239 170 260 391 539 602
83 61 28 51 50 225 305 487 595 982 941 594 510 517 626 761 1242 306 8 0 0 1 96 56 0 0 0 0 0 0 3 373 303 470 328 541 890 266 322 601 494 559 615
0 31 51 52 24 62 88 131 188 171 330 262 180 113 163 370 399 352 50 31 0 0 0 1 0 0 0 17 0 0 143 242 196 296 287 579 465 1112 956 716 940 612 504
2 2 37 13 49 32 30 0 2 67 28 2 50 54 93 111 40 0 0 0 159 4 0 24 13 19 27 12 140 39 92 307 290 420 859 686 932 1067 1060 914 961 789 463
9 0 0 0 8 27 21 78 0 0 0 2 1 0 0 0 0 0 0 1 1 1 2 59 52 55 103 132 99 48 85 86 192 244 433 471 920 781 572 868 650 616 522
20 15 0 0 0 14 26 16 26 12 0 0 0 0 1 0 0 0 0 0 0 0 2 14 58 71 195 59 32 47 83 156 187 378 680 346 344 82 58 239 384 234 203
11 0 2 6 0 0 23 34 29 35 15 8 0 0 0 0 1 0 1 0 4 1 6 13 41 58 53 38 4 24 57 84 251 417 259 167 148 107 101 298 261 192 81
6 10 11 0 0 0 2 48 78 33 24 20 28 5 3 0 0 0 1 6 6 7 8 16 25 26 49 12 1 12 5 11 7 78 154 211 188 125 48 2 0 0 1
10 2 0 0 0 3 39 199 121 108 54 33 33 22 7 19 4 3 5 9 8 8 15 4 1 1 1 1 1 1 2 10 26 57 51 66 119 57 15 10 9 3 17
3 16 18 0 12 36 29 64 203 228 142 22 61 5 0 11 8 4 4 3 3 0 1 1 1 1 1 1 1 1 2 4 39 47 87 141 145 127 66 35 18 26 25
18 34 35 51 58 67 98 94 293 335 215 99 38 21 0 1 6 6 2 2 2 3 3 2 1 1 1 2 1 0 2 3 35 31 36 68 60 41 22 8 7 10 14
24 24 37 41 170 45 179 268 395 428 288 148 6 15 4 1 2 2 4 5 6 5 6 0 0 1 1 7 17 7 3 64 95 55 64 61 67 27 14 13 8 8 1
12 35 13 30 153 233 357 270 159 126 140 88 6 6 5 2 2 2 2 2 0 1 0 9 39 32 54 90 87 81 77 65 66 44 8 0 0 0 0 0 0 0 0
38 27 28 27 30 58 311 213 163 31 1 37 23 14 5 3 3 1 3 4 3 28 6 0 0 3 10 4 5 0 0 0 9 0 0 0 0 0 0 0 0 0 0
15 19 20 27 29 26 28 181 470 352 246 137 120 9 3 4 4 6 1 2 1 0 0 0 0 0 0 0 0 0 0 0 0 0 0 0 0 0 0 0 0 0 0

GFSGL_con_sbcape_096.txt.gz
CAPE
3454 3458 3701 3486 3178 2941 2531 1890 2328 3298 2986 2296 2490 2273 2216 2240 2254 2137 2018 1804 1640 1591 1365 1398 1279 1278 592 375 328 249 154 173 258 218 728 274 192 203 134 170 12 0 0
3247 2745 2467 202 2189 1698 1861 2170 2320 2803 2949 2380 2511 2462 2434 2395 2112 2014 1755 1368 1556 1680 1338 1108 1187 1306 1196 1191 876 653 605 491 545 334 841 596 276 224 205 152 44 5 0
48 186 1 6 1 0 271 1106 2076 2468 2732 2353 2582 2400 2295 2371 2021 1775 1681 1830 1827 1592 1491 1355 1031 1158 1190 602 827 750 693 796 899 785 601 665 308 69 1 2 0 1 0
156 85 0 0 0 6 358 274 1106 1621 2091 2265 2189 2432 2200 2149 2341 1702 1696 1816 1967 1693 1708 1304 1003 967 1223 789 749 714 661 582 620 619 762 714 285 61 0 1 1 1 1
333 65 44 0 0 4 7 198 1171 1872 1931 2077 1895 2397 2286 2263 1446 2108 1808 1752 1832 1617 1636 1462 881 1021 1136 953 1016 830 781 790 640 433 501 352 240 28 2 2 2 2 1
561 354 24 4 0 0 0 177 1317 1804 2075 2062 2204 2076 2047 1573 941 1191 1686 1698 1804 1965 1926 1728 1565 831 423 145 163 119 601 774 631 469 357 237 207 98 33 2 1 1 1
668 1039 300 232 216 214 238 528 1576 1977 2557 2191 1811 1531 1825 2020 716 289 1167 1767 1941 1789 1802 1549 1365 792 573 629 11 0 0 20 0 300 274 262 173 229 57 1 1 0 1
997 1260 1156 860 719 371 545 720 1081 1550 1699 1264 1209 1309 2020 1977 543 248 403 1603 1754 1831 1839 1735 1451 1143 1280 818 833 138 152 122 10 0 35 417 547 398 97 0 0 0 1
980 1067 959 1069 802 503 369 809 715 902 555 849 1552 2376 2254 1506 212 12 31 1394 1652 1695 1661 1514 1423 1152 1057 377 688 781 622 369 24 1 2 2 107 340 278 0 3 2 1
289 369 1072 1139 767 789 995 622 298 579 505 643 780 1592 1954 1829 1129 28 0 1084 1393 1397 1786 1582 1101 1054 803 489 337 839 747 680 363 0 0 0 0 53 72 7 0 2 0
113 174 81 229 622 952 736 1036 879 929 989 1282 1576 1654 1677 1770 2088 2 0 832 1330 1408 1058 1041 1076 653 381 124 28 834 606 436 467 393 268 187 11 145 113 161 0 0 0
371 105 6 6 20 199 597 861 1175 1145 1045 1153 858 551 549 1257 1045 367 3 5 548 856 1112 1160 756 93 96 0 0 19 239 102 446 325 393 226 98 111 73 163 238 0 0
308 451 363 11 0 145 350 564 457 957 1149 1095 822 860 649 874 1141 570 163 2 0 5 312 218 0 0 0 0 0 0 0 49 321 345 298 268 339 254 226 234 313 257 236
152 279 511 593 53 139 252 90 123 214 366 280 226 254 356 375 94 0 0 13 4 0 0 7 5 0 0 0 0 0 0 119 238 243 206 319 328 244 333 416 268 304 314
17 66 275 109 156 643 395 221 90 160 92 99 73 118 86 79 71 0 0 0 0 0 0 0 14 16 7 0 0 2 0 57 175 170 251 168 170 193 263 252 355 371 266
15 2 0 0 0 8 457 380 6 0 0 0 0 0 0 0 0 0 1 0 1 0 0 0 6 54 63 69 26 8 3 18 124 49 99 98 85 117 207 187 205 205 143
25 11 0 0 0 15 17 109 213 90 0 0 0 2 1 0 0 0 1 1 1 0 3 2 5 6 4 25 63 105 27 12 2 12 19 51 107 87 109 153 151 80 86
16 0 5 20 0 0 0 35 33 111 51 42 0 0 0 0 0 1 0 0 1 1 1 1 4 4 5 20 38 21 15 1 0 0 16 28 96 60 96 88 109 83 47
5 11 11 0 0 0 0 0 31 142 68 87 87 0 0 0 2 1 1 1 5 1 3 3 6 7 7 13 55 4 13 0 0 6 9 2 0 16 4 0 3 31 9
11 4 1 3 0 0 3 106 114 507 398 153 68 15 0 1 4 4 0 1 4 3 6 8 8 11 12 12 1 1 1 0 0 1 1 1 0 0 0 0 0 0 8
0 6 12 18 37 38 82 189 908 633 525 376 133 0 0 0 4 4 6 3 3 4 6 10 1 1 1 0 1 0 1 1 1 1 1 0 0 0 0 0 1 4 17
1 1 5 11 1 35 21 91 331 496 236 163 27 0 0 0 4 2 5 6 7 5 3 1 1 1 1 1 1 1 1 0 1 0 0 0 0 0 0 0 10 32 19
2 0 0 3 9 25 114 95 56 281 328 80 1 2 2 4 3 2 2 2 2 6 1 1 1 1 1 1 1 1 0 1 0 0 0 0 0 0 10 27 33 44 19
0 11 3 33 42 88 111 83 115 94 102 26 5 2 4 2 1 1 1 0 0 0 0 3 0 3 3 0 0 0 4 7 16 32 29 23 31 12 25 10 2 0 0
0 20 0 27 18 23 32 244 400 350 168 176 22 10 1 2 2 1 1 1 5 3 0 0 12 32 52 33 37 0 0 35 25 11 0 0 0 0 0 0 0 0 0
17 48 66 91 9 76 49 327 320 619 593 543 365 22 1 2 2 2 2 0 0 0 0 0 0 0 0 0 0 0 0 0 0 0 0 0 0 0 0 0 0 0 0

GFSGL_con_sbcape_099.txt.gz
CAPE
2397 2278 2201 1819 1393 0 7 893 1569 1500 1726 1548 1409 1409 1328 1243 1008 866 858 794 842 905 981 810 630 341 242 142 8 6 6 14 15 18 67 54 73 45 43 6 0 0 0
2404 1084 574 346 0 0 0 0 85 1330 1344 1433 1468 1412 1339 1059 1057 861 802 1016 908 806 740 673 703 708 455 233 133 98 70 33 29 32 106 108 99 35 0 0 0 0 0
420 17 15 31 4 3 0 0 0 11 616 960 1049 1000 1422 1372 1158 971 840 708 789 685 761 613 474 505 453 279 230 170 174 169 220 195 171 92 58 0 1 1 0 0 0
158 90 78 13 0 8 0 0 0 0 160 962 1307 1331 1314 1355 1307 836 865 761 828 772 715 694 600 419 269 315 196 173 166 144 128 100 83 72 21 0 0 0 1 1 1
227 69 27 52 1 5 0 0 0 0 54 1073 1471 1388 1454 1261 1268 959 819 832 842 805 821 719 600 474 404 300 201 153 172 139 124 89 51 4 0 1 0 0 0 1 1
394 266 97 12 0 0 0 0 2 517 1079 1257 1249 1303 1303 1472 1228 1217 1016 802 892 915 788 711 647 600 574 469 487 209 135 142 133 74 24 33 0 0 0 0 0 1 0
848 678 107 33 0 0 12 30 136 418 619 693 941 1094 1092 1101 1205 221 703 912 899 878 940 915 765 751 581 225 0 230 367 277 93 38 50 1 4 10 0 0 0 0 0
606 556 264 149 41 0 13 29 0 27 409 518 456 558 814 1077 1181 922 97 540 878 899 866 910 666 497 225 230 93 0 0 0 5 14 13 0 13 0 0 0 0 0 0
183 306 502 382 310 189 15 38 165 350 261 423 590 726 694 846 1144 602 41 81 452 611 690 867 733 528 390 348 332 60 0 0 0 0 0 0 0 105 0 0 0 1 1
158 173 90 184 453 285 147 150 153 185 164 390 357 131 433 775 1142 751 5 95 406 369 373 584 754 688 559 309 116 209 128 68 0 0 0 0 0 0 0 0 0 0 0
57 49 35 58 119 336 385 494 271 240 275 174 307 287 602 816 752 196 1 133 381 231 280 487 656 716 400 115 16 82 170 156 43 0 0 0 0 0 0 0 0 0 0
38 16 0 1 1 86 95 154 200 463 244 188 357 405 449 396 339 233 17 1 93 375 426 276 40 0 0 0 0 102 201 108 31 0 0 0 0 0 0 0 0 0 0
0 0 29 0 0 7 27 134 89 46 148 197 92 120 211 119 7 0 0 1 1 0 15 130 2 0 0 0 0 0 0 0 0 0 2 17 11 0 23 0 0 0 0
0 0 0 0 1 0 0 0 0 0 1 17 11 9 30 28 0 0 0 0 0 0 0 0 3 2 0 0 0 0 0 0 7 23 24 21 0 0 25 52 88 58 12
0 0 0 0 0 4 39 0 0 0 0 0 0 0 0 0 0 0 0 0 0 0 1 0 0 0 0 0 0 0 0 0 8 7 7 10 6 1 4 102 91 92 61
0 0 0 0 0 0 0 6 19 0 0 0 0 0 0 0 0 0 1 1 1 1 0 0 0 0 1 1 3 0 0 0 0 5 17 9 1 13 27 67 74 112 97
0 0 0 0 0 0 0 0 19 32 0 0 0 1 1 0 0 0 2 1 1 0 0 2 0 0 0 4 3 0 2 2 0 1 0 2 3 16 1 15 40 46 11
0 0 0 0 0 0 0 0 0 14 4 0 0 0 0 0 1 2 1 1 0 0 1 3 2 2 1 0 1 2 5 13 0 0 0 0 2 0 4 3 1 2 6
0 0 0 0 0 0 0 0 0 10 19 28 0 0 0 0 1 1 1 0 0 1 1 1 1 2 2 7 15 18 19 18 13 0 0 0 0 0 0 0 0 0 0
0 0 0 0 0 7 0 1 4 49 21 28 0 0 0 0 0 0 1 2 5 7 8 6 5 1 5 9 9 1 2 1 2 0 0 0 0 0 0 0 0 0 0
0 0 0 0 1 21 12 33 78 74 54 31 0 0 0 0 1 3 5 5 6 3 2 2 1 5 1 1 4 1 0 0 1 0 0 1 0 0 0 0 0 0 0
0 0 0 0 0 0 5 17 30 81 58 11 0 0 0 0 0 1 1 1 1 2 1 1 1 1 1 1 1 1 1 1 1 1 1 0 0 0 0 0 0 0 0
0 0 0 0 0 0 13 21 14 33 44 2 0 0 0 0 0 0 0 0 0 0 1 1 1 1 1 1 1 1 1 1 1 0 0 0 0 0 0 0 0 0 0
0 0 0 0 1 1 1 23 58 95 41 52 0 0 0 0 0 0 0 0 0 0 0 0 0 0 0 0 1 1 0 1 0 0 0 0 0 0 0 0 0 0 0
0 0 0 5 7 0 0 135 170 218 206 117 95 5 0 0 0 0 0 0 0 0 0 0 0 0 0 5 0 0 0 2 6 0 0 4 13 7 3 0 0 0 0
0 0 0 1 18 0 0 67 352 402 416 343 243 114 0 0 0 0 0 0 0 0 0 0 0 0 0 0 0 0 1 22 12 0 0 0 0 0 0 0 0 0 0

GFSGL_con_sbcape_102.txt.gz
CAPE
1935 1601 1465 1275 191 115 129 48 106 487 637 877 985 944 999 773 641 546 473 435 495 522 599 491 491 373 338 205 50 16 11 27 44 2 10 42 46 36 68 0 2 0 0
690 578 235 11 1 0 3 0 15 21 47 431 774 842 873 956 688 554 478 555 382 400 497 510 482 449 231 189 122 24 5 2 13 15 22 89 34 6 1 0 1 0 0
771 209 4 0 41 58 1 2 0 10 38 2 49 478 734 920 754 591 487 446 460 431 413 339 320 436 447 254 199 144 63 22 5 8 26 33 11 0 1 1 1 1 0
344 62 2 0 0 15 1 0 9 0 0 27 7 244 693 774 685 516 465 343 344 442 405 390 296 291 363 215 163 188 109 91 86 95 47 11 2 1 0 0 1 1 1
65 138 74 105 99 20 1 0 0 0 0 0 0 379 470 590 755 549 531 433 302 394 395 392 362 259 226 140 204 87 54 59 8 3 0 0 1 1 0 0 0 1 1
176 192 140 93 77 31 3 4 1 0 0 0 322 597 439 766 1093 831 481 383 384 361 452 464 455 431 349 179 94 147 42 36 19 0 0 0 0 0 0 0 0 1 0
360 170 122 22 0 0 0 0 0 1 81 259 422 321 354 337 718 225 190 490 408 408 429 389 411 547 397 326 154 15 18 0 17 1 4 0 0 0 0 1 0 0 0
162 228 104 38 7 0 0 0 16 8 20 185 203 250 302 243 229 29 12 169 384 404 487 450 479 497 404 369 176 0 18 18 0 6 16 9 0 0 0 0 0 0 0
61 93 205 206 149 47 15 0 2 35 68 150 268 331 272 285 353 264 0 49 144 316 254 271 428 457 376 177 152 44 0 0 0 0 25 0 0 0 0 0 1 0 1
64 37 61 79 187 161 55 5 11 16 35 117 137 88 162 195 214 238 2 66 96 145 215 175 234 306 393 184 32 132 109 51 0 0 0 0 0 0 0 0 0 0 0
0 0 0 0 64 57 43 54 51 43 0 6 61 29 0 34 84 169 1 53 144 201 160 68 80 240 127 18 0 64 236 187 22 0 0 0 0 0 0 0 0 0 0
0 0 0 0 0 3 5 26 7 49 30 23 51 96 135 45 0 7 1 1 5 136 268 205 155 0 11 0 1 0 3 7 114 0 0 0 0 0 1 0 0 0 0
0 0 0 0 0 0 0 0 0 2 5 4 0 0 0 0 0 0 0 0 0 0 1 5 1 0 0 0 0 0 0 0 39 54 0 0 0 0 0 0 0 0 0
0 0 0 0 0 0 0 0 0 0 0 0 0 0 0 0 0 0 0 0 0 0 0 0 0 0 0 0 0 0 0 0 1 26 51 40 0 0 0 2 10 1 1
0 0 0 0 0 0 0 0 0 0 0 0 0 0 0 0 0 0 0 0 0 0 1 0 0 0 0 0 0 0 0 0 1 3 16 2 0 0 0 3 8 2 2
0 0 0 0 0 0 0 0 0 0 0 0 0 0 0 0 0 1 1 1 1 1 0 0 0 0 0 0 0 0 0 0 0 0 6 21 15 0 0 4 6 22 0
0 0 0 0 0 0 0 0 0 0 0 0 1 0 0 0 0 1 1 1 1 0 1 0 1 2 1 0 0 0 0 0 0 0 8 0 8 1 0 23 30 27 61
0 0 0 0 0 0 0 0 0 0 0 0 0 1 1 0 2 0 1 0 0 0 1 0 1 2 5 5 4 2 1 3 2 2 3 5 9 4 1 0 21 17 2
0 0 0 0 0 0 0 0 0 0 0 0 0 0 0 0 2 0 0 0 0 3 4 2 0 1 1 2 4 5 2 3 8 22 3 20 9 3 5 0 0 0 0
0 0 0 0 0 0 2 16 19 17 8 11 4 0 0 0 0 0 0 0 0 1 2 2 2 6 9 2 2 7 12 11 12 15 4 6 3 0 3 0 0 0 1
0 0 0 0 0 0 0 16 49 53 51 31 0 0 0 0 0 0 0 0 0 4 2 2 1 2 6 5 3 12 16 14 9 13 11 1 0 1 0 0 0 0 0
0 0 0 0 0 0 0 0 1 6 1 0 0 0 1 0 0 0 0 0 0 1 1 1 1 1 1 1 1 2 3 6 2 1 1 0 0 0 0 0 0 0 0
0 0 0 0 0 0 1 3 1 9 12 0 0 0 0 0 0 0 0 0 0 0 0 0 0 0 0 2 1 1 1 1 1 0 0 1 0 0 0 0 0 1 0
0 0 0 0 0 0 0 0 11 21 17 17 0 0 0 0 0 0 0 0 0 0 0 0 0 0 0 0 1 1 0 0 1 0 1 2 1 1 1 1 1 1 0
0 0 0 0 0 0 0 0 11 18 23 27 6 0 0 0 0 0 0 0 0 0 0 0 0 0 0 0 0 0 1 0 1 0 0 0 0 0 0 1 0 0 0
0 0 0 0 0 0 0 0 8 28 33 41 25 25 1 0 0 0 0 0 0 0 0 0 0 0 0 0 0 0 2 2 0 0 0 0 0 0 0 0 0 0 0

GFSGL_con_sbcape_105.txt.gz
CAPE
62 257 832 4 33 2 38 162 557 680 737 702 641 846 818 614 470 381 306 224 251 223 220 238 262 279 325 242 81 21 11 26 138 29 0 21 38 48 58 3 3 2 0
132 135 10 8 1 2 3 0 1 65 475 549 741 725 802 699 553 496 366 369 273 238 193 309 300 257 237 112 40 12 0 0 0 0 0 38 37 17 16 8 1 0 0
160 27 3 10 1 0 0 0 0 19 44 29 300 571 546 596 552 527 500 324 217 229 187 221 337 249 310 94 36 21 1 0 0 0 0 0 0 1 1 1 1 1 0
79 5 1 2 0 0 0 0 0 25 57 64 11 45 254 473 459 415 413 247 235 228 161 148 191 162 249 225 94 54 7 19 1 2 1 0 5 1 0 0 1 1 1
0 12 9 2 4 0 0 0 0 39 15 2 20 3 10 335 499 424 460 304 233 231 165 163 167 112 153 205 154 25 4 12 0 1 1 1 1 1 0 0 1 0 0
130 112 56 38 0 0 1 2 1 0 0 0 0 0 26 310 563 404 328 293 169 178 161 137 200 178 122 53 161 177 1 0 0 0 0 0 0 0 0 0 0 1 0
155 108 75 84 84 31 7 2 2 1 0 0 0 0 50 178 358 186 72 223 177 189 174 163 185 308 134 107 7 0 6 9 57 0 0 0 0 0 0 1 0 0 0
233 157 22 6 0 0 1 1 1 0 0 0 3 2 0 31 211 38 1 20 126 163 167 158 154 211 140 155 129 66 8 2 0 0 0 0 3 0 0 0 0 0 0
13 20 50 52 14 0 0 0 0 0 0 0 23 60 146 195 31 117 14 19 48 96 133 130 138 140 170 158 140 111 67 0 1 0 0 0 0 0 0 0 1 0 1
0 0 0 13 40 26 0 0 0 5 8 28 85 84 168 208 80 49 29 94 73 43 48 136 152 197 203 31 13 59 87 61 0 0 0 0 0 0 0 0 0 0 0
0 0 0 0 0 0 16 19 4 1 0 0 31 56 26 46 49 26 28 19 102 155 154 194 163 116 64 55 0 17 116 96 40 0 0 0 0 0 0 0 0 0 0
0 0 0 0 0 0 0 0 2 11 0 5 6 16 3 1 1 1 0 1 1 59 205 179 128 59 55 28 1 0 0 1 23 1 0 0 0 0 0 0 0 0 0
0 0 0 0 0 0 0 0 0 0 0 3 0 0 0 0 0 0 0 0 0 1 2 1 1 0 1 1 1 0 2 1 1 39 26 6 0 0 0 0 1 0 0
0 0 0 0 0 0 0 0 0 0 0 0 0 0 0 0 0 0 0 0 0 0 0 0 0 0 0 1 1 1 0 0 0 28 49 69 2 1 1 0 0 1 0
0 0 0 0 0 0 0 0 0 0 0 0 0 0 0 0 0 0 0 0 0 0 0 0 0 0 0 0 0 1 1 1 2 1 22 46 31 6 1 1 2 1 0
0 0 0 0 0 0 0 0 0 0 0 0 0 0 0 0 1 0 1 1 1 0 0 0 0 0 0 0 2 0 0 0 0 0 1 5 20 13 3 1 2 2 0
0 0 0 0 0 0 0 0 0 0 0 1 0 0 0 0 1 1 1 0 0 0 0 0 0 0 0 0 1 0 3 0 0 0 0 0 5 20 10 20 2 2 2
0 0 0 0 0 0 0 0 0 0 0 0 0 1 0 0 0 0 0 1 0 1 0 0 0 0 0 1 1 2 4 3 2 0 1 1 2 8 19 3 4 9 4
0 0 0 0 0 0 0 0 0 0 0 0 0 0 1 1 0 1 1 0 0 0 1 1 0 3 4 5 3 4 4 8 4 2 6 20 14 8 12 14 3 4 4
0 0 0 0 0 0 0 0 0 5 9 11 10 2 0 0 0 0 0 0 0 0 5 6 1 1 2 4 9 7 3 4 6 5 13 36 62 79 58 50 17 8 3
0 0 0 0 0 0 0 0 0 0 0 0 0 0 0 0 0 0 0 0 0 1 2 1 0 0 2 2 3 4 7 9 18 25 26 34 60 50 47 81 32 6 2
0 0 0 0 0 0 0 0 0 0 0 0 0 0 0 1 0 0 0 0 0 0 0 0 0 0 1 1 1 2 1 4 7 7 8 14 24 15 11 30 48 33 18
0 0 0 0 0 0 0 0 0 0 0 0 0 0 0 0 0 0 0 0 0 0 0 0 0 0 0 0 0 1 1 1 1 1 4 5 5 2 6 6 1 1 0
0 0 0 0 0 0 0 0 0 0 0 0 0 0 0 0 0 0 0 0 0 0 0 0 0 0 0 0 0 0 0 1 0 1 0 1 1 1 1 0 0 0 0
0 0 0 0 0 0 0 0 0 0 0 0 10 5 0 0 0 0 0 0 0 0 0 0 0 0 0 0 0 0 1 3 1 0 0 0 0 0 1 0 1 2 1
0 0 0 0 0 0 0 0 0 0 0 0 0 9 4 0 0 0 0 0 0 0 0 0 0 0 0 0 0 0 0 2 0 0 1 0 0 0 0 0 0 0 0

GFSGL_con_sbcape_108.txt.gz
CAPE
132 103 277 1 147 198 384 565 666 718 609 731 787 828 760 669 535 439 515 454 275 315 226 221 311 238 433 389 240 371 201 147 243 210 2 86 116 64 81 253 94 102 191
101 68 115 2 2 0 13 6 11 122 452 716 637 711 930 798 603 567 575 574 263 259 159 252 291 212 271 322 309 132 200 133 195 227 3 69 147 22 105 33 16 2 2
225 5 17 6 0 0 0 1 5 64 151 472 645 744 712 789 533 524 576 570 452 388 287 316 340 243 307 268 241 284 186 119 57 27 46 8 30 34 12 8 8 3 0
270 0 0 0 0 14 1 0 2 25 88 118 211 436 394 300 396 429 513 543 480 402 298 252 263 227 411 324 249 265 233 78 24 55 53 31 32 60 38 58 74 12 27
306 5 22 14 0 1 0 1 2 19 47 62 73 73 194 358 442 373 447 417 397 446 228 176 198 166 127 252 272 309 230 11 2 125 96 7 22 30 10 5 30 15 17
71 43 17 0 23 1 0 0 0 26 5 0 2 24 83 132 57 47 178 292 329 425 282 230 282 61 68 0 42 59 129 239 28 0 0 1 13 38 37 10 11 3 7
16 19 42 18 5 0 1 3 11 15 0 0 0 0 22 15 0 0 0 201 205 263 248 242 176 249 102 254 12 0 0 17 102 267 230 152 144 3 66 6 2 1 1
48 83 9 16 35 30 26 12 5 5 5 8 5 0 0 0 0 0 0 41 112 175 231 190 189 374 336 244 315 122 91 105 45 72 284 381 231 131 71 49 1 4 2
0 18 47 44 26 0 0 0 0 2 1 1 7 8 1 12 0 0 0 20 46 80 78 98 166 236 190 35 293 385 316 246 39 0 42 77 1 0 7 0 5 4 4
1 0 0 2 1 37 6 0 0 0 10 12 13 50 17 111 2 1 43 91 72 72 31 43 58 104 172 2 54 306 339 389 148 79 2 1 0 0 0 41 26 2 1
0 0 0 0 0 0 0 0 0 7 1 9 6 3 9 17 1 1 1 28 50 45 60 59 64 139 26 1 1 101 190 428 183 188 132 40 32 30 0 2 78 82 44
0 0 0 0 0 0 0 0 0 0 0 0 3 2 3 2 1 1 1 1 1 0 14 34 58 1 1 2 1 1 27 5 49 143 126 183 80 47 31 25 28 33 108
0 0 0 0 0 0 0 0 0 0 0 0 2 2 4 4 2 0 0 0 0 1 2 0 0 0 0 1 1 2 1 3 26 73 195 224 185 175 101 9 4 14 8
0 0 0 0 0 0 0 0 0 0 0 0 0 0 3 1 0 0 0 0 0 0 0 0 0 0 0 0 1 1 0 1 1 24 129 320 143 74 90 89 12 3 4
0 0 0 0 0 0 0 0 0 0 0 0 0 0 0 0 0 0 0 1 1 0 0 2 1 1 1 2 6 10 12 3 2 1 18 71 125 41 30 43 35 7 3
0 0 0 0 0 0 0 0 0 1 1 1 1 0 0 0 0 0 1 0 0 1 0 1 1 1 3 2 2 1 5 2 8 4 5 12 44 54 71 23 30 50 17
0 0 0 0 0 0 0 0 0 0 1 0 0 0 1 1 1 1 1 1 1 1 0 0 0 0 0 3 4 4 4 1 16 32 17 4 22 32 60 92 55 52 37
0 0 0 0 0 0 0 0 0 0 0 0 0 0 0 1 0 0 0 1 0 0 1 1 0 1 0 2 4 4 7 7 6 13 15 14 18 20 35 27 40 7 6
0 0 0 0 0 0 0 0 0 0 0 0 0 0 0 0 0 0 1 0 0 0 2 6 2 5 4 7 12 12 11 12 12 13 19 26 18 11 13 20 59 25 21
0 0 0 0 0 0 0 0 0 0 0 0 1 1 0 0 0 0 1 0 5 6 7 6 2 6 8 7 7 6 5 5 16 18 10 11 8 19 32 45 43 42 11
0 0 0 0 0 0 0 0 0 0 0 0 0 0 0 0 0 0 1 4 4 2 3 7 4 2 4 6 3 3 3 4 5 7 13 44 66 66 71 79 152 88 93
0 0 0 0 0 0 0 0 0 0 0 0 0 0 0 0 0 1 1 0 0 1 4 8 10 1 1 9 6 4 3 2 2 2 3 3 22 41 55 53 76 100 98
0 0 0 0 0 0 0 0 0 0 0 0 0 0 0 0 0 0 0 0 0 1 2 4 8 4 2 3 3 5 4 3 2 3 2 3 3 2 12 40 48 74 71
0 0 0 0 0 0 0 0 0 0 0 0 0 0 0 0 0 0 0 0 0 1 2 3 3 2 1 0 2 1 3 2 4 3 5 3 4 3 3 3 2 5 30
0 0 0 0 0 0 0 0 0 0 0 0 0 0 14 8 3 0 0 0 0 0 0 2 2 0 0 0 0 0 0 2 0 1 4 21 1 1 2 5 2 3 2
0 0 0 0 0 0 0 0 0 0 0 0 0 2 20 43 35 14 5 0 0 0 0 0 0 0 0 0 0 0 0 1 0 0 0 23 3 0 0 0 0 1 1

GFSGL_con_sbcape_111.txt.gz
CAPE
636 622 719 615 785 1454 1513 2035 1838 1969 2086 1951 2082 1815 1703 1737 1767 1768 1765 1752 1387 1708 1413 1307 1231 1363 2077 1263 1028 884 751 909 794 706 779 590 906 774 593 792 687 860 654
1226 846 619 609 550 897 1496 1649 1442 1742 1952 1570 1759 1875 1806 1784 1836 1622 1470 1325 1458 1500 1509 1403 1356 1214 1407 1688 1396 599 658 664 490 519 594 628 777 759 358 364 583 248 315
1082 960 1038 872 766 514 888 1100 993 1641 1733 1488 1698 2020 2030 2204 1823 1770 1780 1625 1604 1606 1634 1529 1483 1467 1404 1192 1216 945 582 696 640 636 777 502 655 547 431 99 67 26 26
891 862 796 678 556 370 184 65 72 130 416 988 1728 1716 1853 2081 2188 1946 1560 1972 1941 1700 1734 1376 1436 1404 1433 1331 1210 1169 1055 686 506 542 409 248 422 643 483 427 245 204 187
668 762 711 566 165 74 74 48 14 23 29 206 474 862 1259 1250 1028 1325 1378 1401 1542 1483 1471 1441 1363 1080 684 914 924 1116 961 597 464 494 292 271 358 279 304 318 306 317 172
681 795 466 265 55 22 22 15 18 41 58 105 204 322 476 695 485 374 983 1534 1531 1457 1473 1245 1283 471 345 137 261 388 792 1007 469 444 339 342 400 658 751 350 242 184 236
375 366 471 328 156 96 62 76 56 34 77 68 105 82 198 374 109 39 8 574 609 416 590 639 1234 951 496 955 120 11 30 238 430 1014 919 904 935 1100 1089 908 397 433 426
97 174 82 87 106 84 62 27 20 14 33 37 22 3 1 0 2 7 2 42 348 179 231 300 461 1049 940 998 1152 985 796 790 453 491 872 1214 1206 1424 1206 1054 878 561 329
3 83 183 200 188 169 279 279 121 58 21 8 12 51 12 50 0 0 0 46 75 95 181 215 290 304 350 126 510 950 1045 1067 412 273 310 423 384 260 438 836 708 377 136
22 54 150 334 264 287 216 327 189 114 163 135 131 110 97 133 40 0 0 143 100 107 111 143 34 109 94 10 136 471 917 756 1417 1143 462 42 22 82 0 379 861 623 388
20 83 54 107 223 351 500 465 317 288 209 270 274 129 26 257 188 1 1 489 353 82 46 56 162 6 1 2 1 168 510 200 632 983 1520 1730 806 684 565 229 614 756 586
0 0 0 4 51 131 523 548 547 575 585 492 15 7 7 6 1 0 1 1 2 148 131 145 29 1 1 2 0 0 0 1 73 397 337 532 482 478 522 619 602 746 827
0 0 0 0 0 122 211 245 275 342 322 253 6 18 14 11 0 0 0 0 0 4 7 0 0 0 0 1 1 1 1 5 2 70 170 277 272 466 407 775 724 786 756
0 0 0 0 0 0 0 20 3 0 0 0 26 33 10 0 0 0 0 0 0 0 0 0 0 0 0 0 0 0 1 4 13 40 111 196 393 493 322 429 316 184 151
0 0 0 0 0 0 0 0 18 23 0 0 0 0 0 0 0 0 0 0 0 0 0 0 0 0 0 0 1 4 8 18 22 17 22 110 262 317 250 245 265 221 18
0 0 0 0 0 0 0 0 0 0 1 1 1 0 0 0 0 1 1 1 0 0 0 0 0 0 2 3 4 5 4 8 11 23 33 48 85 165 122 187 164 127 17
0 0 0 0 0 0 0 0 0 0 0 0 0 0 0 0 0 0 1 0 0 0 0 0 0 0 1 4 11 16 15 9 26 25 18 21 23 45 107 194 148 146 136
0 0 0 0 0 0 14 14 0 0 0 0 0 0 0 1 1 0 0 0 1 1 2 3 2 4 4 3 6 14 23 21 33 25 29 35 27 30 43 56 73 105 112
0 0 0 0 0 0 0 0 0 0 0 0 17 0 0 0 0 0 0 1 4 3 4 5 9 3 5 6 5 23 25 19 19 38 38 27 36 31 27 20 33 36 72
0 0 0 0 0 0 0 0 0 0 0 0 0 0 9 0 21 44 12 11 7 6 7 4 5 13 13 25 35 30 30 20 26 17 17 28 45 50 42 48 55 51 52
0 0 0 0 0 0 0 0 0 0 0 0 0 0 1 1 0 3 8 10 2 2 7 7 6 2 4 9 35 32 29 15 25 31 32 22 19 12 27 61 73 61 73
0 0 0 0 0 0 0 0 0 0 0 0 0 9 0 1 27 16 16 16 2 4 6 13 12 6 2 18 24 20 6 3 8 10 27 34 31 34 19 8 17 61 310
4 0 0 0 0 0 0 0 0 0 0 0 0 26 23 33 46 60 52 30 19 5 3 7 9 5 17 31 29 25 16 9 9 6 13 32 26 23 33 26 15 13 9
0 3 3 0 0 0 0 0 0 0 0 0 2 13 57 100 96 88 103 63 68 68 59 36 13 10 27 55 48 45 42 36 9 8 15 44 68 54 15 11 25 9 18
10 2 0 0 0 0 0 0 0 0 0 0 0 0 12 40 78 136 158 162 130 109 86 70 71 41 76 109 17 14 34 0 1 0 0 35 84 66 58 2 2 5 6
1 0 1 4 2 4 5 8 6 7 3 0 2 9 18 29 44 85 125 160 210 161 97 95 80 63 86 125 85 5 0 0 0 0 0 0 83 78 67 64 10 1 4

GFSGL_con_sbcape_114.txt.gz
CAPE
1254 1192 1677 1844 1280 2214 2273 1889 2786 2771 1916 2142 2906 2735 2732 2823 2615 2953 2826 2361 2238 1829 1889 1861 1587 1885 1458 2402 2596 1636 1715 1997 1471 834 679 778 1087 1271 1074 1136 1097 1059 1536
1747 1855 1530 1248 1640 1651 2422 2500 2513 2556 1714 2108 2351 2257 2863 2474 2930 2550 2177 1891 1740 1549 1504 1788 1673 1575 2270 2454 2343 2007 1874 1899 1074 1076 822 780 972 1309 1202 1259 1174 852 1157
1694 1884 1895 1656 1540 1605 1403 1868 1963 2190 2390 2362 2354 2510 2360 2353 2276 2529 2303 1938 1900 1869 1652 1897 2042 1864 1986 2312 1857 1938 1312 1617 1111 823 764 762 646 803 1149 1136 946 641 154
1732 1752 1766 1806 1873 1405 1389 1302 1385 1331 1569 1774 1918 1830 2122 2167 2308 1917 1986 2047 2000 1944 1888 1758 1640 1751 1697 1969 1886 1729 1887 1165 1017 1238 814 676 638 907 945 841 944 758 608
1731 1666 1701 1444 1072 1080 946 765 487 532 413 388 597 1117 1461 1697 1490 1846 1998 2249 2051 2042 1753 1550 1613 1587 911 1266 1486 1495 2017 1174 765 618 890 731 447 684 841 755 673 1532 812
1530 1618 1516 1417 931 894 766 607 554 435 317 330 295 226 465 663 698 836 819 2510 2240 2144 2379 1842 1744 1016 665 700 587 332 994 1977 1290 892 752 700 924 1001 1021 777 744 555 434
896 921 1202 1086 956 817 635 631 448 250 221 379 277 343 496 796 368 72 25 1657 2045 2121 2280 1884 1593 1091 886 1256 160 127 150 329 442 1515 1199 1083 990 1064 1340 1211 1161 688 548
601 576 734 919 765 665 734 454 346 359 351 242 256 468 461 529 16 19 1 284 1372 1372 1366 1483 1214 960 897 663 547 480 777 847 658 739 1025 1348 1625 1255 1170 1028 1194 1597 1064
267 216 344 569 495 590 595 657 693 631 292 100 128 213 252 316 18 0 0 5 346 620 409 429 357 120 67 8 54 221 331 1151 597 398 444 458 9 19 546 1013 902 1096 807
28 219 263 549 586 729 707 615 585 553 506 531 427 198 144 496 101 0 0 55 281 463 473 199 39 45 8 0 23 167 260 403 1244 1018 1068 429 203 480 2 543 1018 1110 721
218 44 199 410 642 675 642 658 582 649 748 542 91 14 7 3 110 1 1 93 431 374 390 101 10 0 1 1 1 90 127 491 369 527 509 1284 1046 1628 1791 835 836 1415 1235
51 58 106 308 327 625 838 826 838 853 748 388 151 5 7 7 1 1 1 1 18 440 182 308 102 0 0 2 2 0 4 1 161 301 697 527 1373 1427 1333 560 1133 1552 2099
48 108 129 74 145 488 590 521 345 542 831 449 259 209 55 0 0 0 0 0 0 14 2 0 0 0 0 0 1 1 1 2 57 201 279 332 1013 730 759 323 315 334 1664
14 16 44 1 29 116 145 122 50 13 9 26 82 148 109 15 1 0 0 0 0 0 0 0 0 0 0 0 0 0 3 9 145 205 173 78 128 192 143 266 220 251 528
0 0 0 0 0 0 12 107 92 27 0 8 10 14 15 14 0 0 0 0 0 0 0 0 0 0 0 1 2 2 3 12 43 55 50 93 169 371 460 525 489 410 299
4 2 0 6 11 3 0 4 0 0 1 1 0 0 0 0 1 0 0 0 0 1 0 1 0 0 0 0 0 0 1 0 4 7 10 17 53 141 248 572 390 272 287
0 5 17 18 35 46 56 17 73 0 1 0 1 1 0 0 0 0 0 0 1 0 0 0 0 2 3 2 2 4 4 8 21 13 17 21 30 28 30 73 314 269 191
0 0 15 14 9 18 20 18 24 34 32 29 0 0 0 1 1 0 0 0 4 2 5 0 4 11 2 0 3 6 6 12 10 23 43 31 19 51 59 37 34 259 293
0 0 0 0 0 0 0 2 4 6 7 11 38 0 0 0 0 0 0 0 13 19 24 27 13 3 4 6 8 16 22 17 11 22 18 13 28 74 53 74 48 14 5
1 0 0 0 0 0 0 0 0 0 0 2 1 2 10 0 7 30 13 32 25 29 22 10 12 8 2 6 18 30 23 25 31 23 28 26 27 29 26 24 40 87 68
1 1 0 2 0 0 0 0 0 0 0 3 4 3 0 0 0 6 6 13 22 24 21 17 12 12 8 9 9 18 24 8 12 21 19 13 4 20 25 64 51 23 11
8 21 9 5 4 3 0 0 0 0 0 2 6 5 0 16 7 17 18 25 32 29 25 23 25 17 9 7 29 57 36 10 11 12 16 12 20 40 40 29 29 31 52
47 50 46 49 45 11 19 21 27 24 1 0 0 2 13 29 47 45 48 57 59 61 66 67 49 37 31 31 43 44 36 58 52 57 47 46 44 36 34 26 35 22 15
26 47 45 54 53 10 39 37 27 14 15 15 10 7 9 28 38 65 82 87 98 92 85 85 69 55 50 49 59 71 88 104 98 91 66 71 53 27 54 47 58 45 23
53 50 47 49 57 58 53 54 48 46 45 53 49 43 37 48 44 53 71 101 140 169 148 126 113 74 71 84 93 93 75 0 15 3 15 55 80 67 76 84 84 76 43
36 22 16 23 32 38 39 30 29 32 36 25 27 32 61 82 90 83 86 91 92 108 155 185 234 183 154 136 107 71 32 0 0 0 0 48 69 37 71 111 79 64 39

GFSGL_con_sbcape_117.txt.gz
CAPE
1619 1638 1436 1705 2192 2373 1794 2256 2595 3113 2463 961 1772 1880 2925 3114 3219 2890 2855 2753 2837 2625 2368 2345 2250 2490 1587 1564 1319 1518 1577 1937 1513 890 1061 2118 1692 1522 1151 1402 1554 1385 1404
1481 2507 2378 1906 1690 2131 2532 2602 2379 2693 2685 1377 1005 614 166 1831 3036 2864 2530 2118 2478 2418 2367 2311 2366 1654 2520 2473 2391 2281 1677 2029 1421 1602 1390 1259 1514 2026 1917 1681 1701 1054 1370
1640 1785 2439 2464 2141 2378 2238 2096 2132 2156 1965 1840 1685 282 731 2397 2694 2639 2400 2256 2354 2497 2147 2154 2302 2250 2470 2442 2567 2278 1897 1920 1510 1344 1067 800 975 1139 1924 1756 1716 1647 1016
1621 1894 1898 2144 2047 1990 2040 1837 1657 1510 1265 1538 1947 1565 1025 1504 2430 2442 2283 2460 2381 2290 2575 2431 2671 2494 2717 2582 2551 2668 2534 1601 1703 1269 813 353 618 919 1189 1132 1547 1492 897
1499 1614 1818 1833 1907 1768 1766 1524 1274 1186 1142 1026 1109 1199 1486 1309 1581 2024 2106 2005 2462 2355 2447 2454 2495 2045 1463 2045 1941 2829 2388 1686 1213 1226 525 482 598 1108 788 796 1111 631 1877
1222 1382 1503 1844 1614 1607 1492 1307 1074 877 767 688 659 638 769 892 932 795 962 1963 2107 2430 2570 2634 2356 1133 915 778 632 817 1528 1794 1453 803 691 648 1932 1277 788 737 972 997 685
832 1014 1189 1380 1353 1279 1242 1157 1088 1078 902 686 648 593 459 654 201 375 466 989 1445 2110 2308 2626 2247 1278 1153 1675 325 189 98 174 273 1702 1616 1594 1535 1434 1806 1877 1751 1602 931
432 688 911 830 961 1228 1234 1345 1268 1222 1108 1117 672 679 684 634 221 215 3 902 1333 1715 1822 2279 2087 1980 1986 1322 1750 1341 1108 717 663 622 789 1042 1610 1693 1814 1871 2061 1800 1418
37 266 318 392 255 813 1000 1157 1359 943 1222 1008 831 648 723 703 7 0 0 315 634 1011 1168 1116 1343 932 9 77 1176 1293 861 653 467 249 97 138 102 110 493 1831 1399 1600 755
21 88 28 179 351 868 1078 1175 1139 1189 1001 914 652 468 208 447 59 0 0 148 240 328 535 291 64 120 4 3 344 221 279 140 130 136 133 104 85 112 45 940 1052 1170 1248
195 210 241 223 136 275 1131 950 1012 994 969 696 351 82 52 8 3 1 0 99 427 563 260 42 5 0 0 0 0 36 48 10 79 193 101 113 334 1051 1630 916 1677 1088 1424
287 262 397 449 734 787 865 910 988 558 834 378 102 38 5 4 1 1 1 1 64 117 137 182 24 0 0 1 0 0 0 0 18 111 163 203 125 270 494 1573 1278 1063 551
403 312 310 592 470 876 1122 1209 631 797 926 465 597 577 215 79 0 0 1 0 1 375 8 1 0 1 1 0 1 1 1 0 33 80 75 65 145 206 291 387 474 796 367
288 136 156 98 207 651 629 527 364 296 470 368 539 518 232 285 125 8 1 0 0 0 0 0 0 0 0 3 0 1 1 5 61 228 266 192 384 338 112 69 44 49 139
61 36 7 1 0 103 200 172 114 0 0 158 51 121 65 0 0 0 0 0 0 0 0 0 1 4 8 17 12 24 26 79 54 59 80 156 153 183 277 304 541 451 385
104 17 10 33 34 14 39 135 1 1 2 2 0 0 0 1 0 1 1 0 0 0 0 11 10 4 1 2 0 0 0 1 4 5 7 7 8 9 20 31 207 364 381
114 251 51 19 33 29 35 36 321 0 1 1 1 0 0 0 0 1 1 1 0 0 0 14 12 13 20 24 18 9 0 5 9 5 6 8 9 9 11 18 17 14 22
51 0 41 22 3 10 6 9 29 35 57 21 0 0 0 0 0 0 0 1 0 1 12 21 8 33 27 1 0 0 5 8 8 12 10 7 6 26 22 6 18 37 32
8 1 7 2 0 0 0 4 6 6 4 3 15 0 0 0 1 0 0 0 0 7 15 16 29 17 9 6 1 0 7 15 9 12 24 22 22 14 13 21 17 13 13
12 0 0 2 5 1 0 0 0 0 1 6 6 18 5 0 0 8 7 22 34 14 32 29 29 30 0 0 5 7 29 25 22 24 10 13 10 7 11 15 20 38 43
40 38 0 18 9 2 3 0 0 0 0 1 2 5 0 0 0 2 15 19 21 31 28 27 18 44 48 1 14 36 51 39 40 34 37 31 32 13 11 20 15 15 23
50 49 43 49 49 39 11 0 15 18 13 2 0 1 0 5 6 9 7 17 27 43 36 41 38 35 23 25 18 6 15 39 48 50 35 52 37 34 35 21 20 12 10
27 37 25 24 31 32 39 51 58 47 49 38 30 17 10 20 24 29 49 52 46 53 56 55 50 47 66 48 46 50 45 47 63 55 53 60 61 60 57 58 54 30 40
40 35 39 46 49 30 29 24 39 28 32 39 43 43 49 50 40 38 48 102 58 106 72 106 121 87 114 149 98 70 58 52 68 93 120 106 86 80 82 74 74 66 86
12 33 21 41 36 35 24 18 15 15 17 26 10 4 0 13 4 1 7 13 20 16 37 54 84 29 73 49 18 4 27 29 79 22 107 95 102 132 83 92 83 76 79
21 22 16 22 15 8 6 8 6 8 13 24 7 8 12 28 18 1 3 1 0 1 0 2 3 0 9 0 0 0 0 0 0 0 182 117 92 62 56 99 85 71 63

GFSGL_con_sbcape_120.txt.gz
CAPE
2737 2456 2119 1902 2366 2896 2670 2366 2448 2574 2090 1459 1566 1442 1588 808 1069 1451 1866 1853 1883 1974 2062 1812 1715 1709 1517 1278 1460 1286 1207 1204 1183 1048 1201 1065 2117 1622 1160 1529 1448 1574 1377
1947 2354 2575 2675 2473 2199 2228 2649 2260 2198 1822 1763 990 129 18 0 44 339 1003 1536 1751 1922 2012 1854 1647 1703 1752 1343 1557 1261 1223 1534 1450 1148 1020 1078 1103 1543 1723 1660 1342 1083 1049
1419 1142 1860 1892 1947 2100 2221 2075 2324 2032 1704 1344 943 247 250 70 105 3 19 1140 1480 1512 1746 1916 1627 1640 1612 1403 1324 1050 1214 1262 1322 1110 891 1492 845 1105 1546 1593 1765 1455 1223
1092 1204 1300 1362 1729 1834 1872 1950 1880 1835 1819 1315 1100 568 67 141 63 0 25 297 943 1448 1598 1603 1688 1572 1462 1533 1549 1600 1599 1487 1478 1211 1122 1058 922 1113 1122 1086 1328 1197 958
949 946 1403 1610 1806 1740 1643 1696 1686 1519 1361 1782 1756 1294 711 221 26 11 79 184 42 1239 1635 1764 1664 1417 1505 1593 1683 1602 1756 1521 1332 1126 927 911 507 756 519 548 772 824 973
681 906 1043 1149 1573 1569 1595 1633 1389 1297 1080 1371 1310 1235 947 505 91 19 23 402 107 0 1115 1760 1681 1240 1054 1095 1446 1463 1759 1477 1245 1065 763 641 753 543 525 644 591 627 327
401 561 758 1052 1267 1676 1570 1362 1188 1261 1477 1352 1290 1102 1078 974 200 24 3 34 15 653 1271 1792 1675 1505 1078 1024 130 337 529 634 940 909 823 1046 532 664 695 464 492 473 743
139 186 139 252 536 889 978 934 1032 1101 1441 1428 1399 1193 892 786 299 56 4 432 761 1018 1305 1461 1539 1401 1185 964 893 465 360 336 108 116 987 1050 583 415 412 288 291 525 1002
64 172 145 42 271 97 227 601 628 1445 1326 1142 1238 1040 979 590 57 2 53 740 695 842 1114 1265 1156 1236 654 57 700 699 717 553 206 200 251 261 85 25 6 87 139 246 328
67 63 98 90 23 265 317 786 571 1091 789 1153 1009 901 296 555 48 0 0 257 419 427 870 561 47 189 1 0 212 251 261 193 96 99 228 15 1 0 0 30 149 203 513
47 72 98 100 83 134 197 278 360 464 523 562 354 306 239 1 1 1 0 125 346 562 667 377 52 1 0 0 1 18 35 1 4 6 31 25 83 185 247 88 125 139 154
109 118 146 164 134 177 105 22 69 65 210 453 367 68 9 3 0 1 1 1 7 198 277 333 20 0 0 0 0 3 0 0 0 0 3 62 42 46 73 106 202 188 166
231 336 521 322 290 299 255 295 217 177 224 333 493 673 384 226 8 1 1 0 66 169 17 36 1 2 2 0 1 1 1 0 1 0 39 97 59 50 142 176 181 132 98
280 318 396 454 368 500 291 51 30 12 181 349 507 442 449 158 26 15 2 1 0 0 0 0 0 0 0 1 0 1 0 0 11 77 198 249 298 209 166 212 130 35 2
212 347 496 410 529 487 102 80 31 0 0 21 33 0 20 0 0 0 0 0 0 0 0 0 0 0 0 0 0 11 7 21 1 43 116 125 184 164 163 206 195 149 139
208 325 194 123 156 387 391 161 0 0 1 0 0 0 0 0 1 0 0 0 0 0 0 42 145 153 71 77 11 16 11 12 59 12 15 12 13 14 12 20 41 49 36
293 283 137 35 20 282 192 231 212 0 1 1 0 0 0 0 1 0 0 0 0 0 0 257 123 95 60 112 46 16 11 6 0 0 10 11 16 15 6 10 22 27 14
523 34 43 29 1 8 29 67 74 259 170 21 0 0 2 1 1 1 0 0 0 0 3 57 63 169 47 19 7 1 1 7 6 10 12 1 12 17 13 6 12 11 18
0 0 0 24 5 12 23 5 4 17 36 419 3 0 0 1 1 1 0 0 0 33 49 91 46 194 37 41 32 5 12 29 18 19 16 24 21 13 9 9 7 6 6
132 0 0 38 30 6 7 1 1 21 45 29 58 112 7 0 0 0 1 48 195 85 69 60 89 115 98 64 42 53 23 26 7 22 22 31 30 23 0 0 0 0 12
14 41 2 18 47 41 44 15 3 44 22 19 24 41 28 37 20 17 130 173 132 48 44 31 17 117 155 90 61 62 40 41 65 31 41 63 45 29 34 20 21 32 7
54 145 43 21 38 43 16 33 29 45 58 28 57 24 0 9 31 47 47 26 25 79 111 248 76 56 66 77 81 40 20 22 23 57 24 35 40 62 60 41 31 34 21
45 31 34 27 54 28 59 22 31 45 52 47 45 11 15 19 7 17 10 19 56 46 8 39 50 44 6 48 89 116 38 63 85 97 98 87 74 62 55 59 55 40 51
46 5 14 30 16 23 22 27 33 11 23 45 39 25 16 16 15 11 5 1 5 13 18 29 20 28 1 0 0 0 0 0 0 59 116 118 130 123 93 87 54 57 53
30 5 11 27 8 3 0 0 0 0 0 10 10 10 0 0 1 0 0 0 0 0 0 7 0 9 0 0 0 0 0 0 0 0 0 9 141 117 96 98 79 82 90
0 0 0 0 0 0 0 0 0 0 8 4 1 0 0 0 3 1 0 5 0 0 1 0 0 0 0 0 0 0 0 0 0 0 0 0 57 85 69 79 100 74 138

GFSGL_con_sbcape_123.txt.gz
CAPE
133 395 1129 1159 1511 2104 2112 2003 1833 1603 1524 1287 1162 1135 948 867 848 873 1047 1063 990 1083 1313 1191 1159 1144 1075 872 690 670 534 437 515 388 300 512 579 754 568 569 495 539 522
131 467 484 491 802 1287 1560 2012 1925 1774 1686 1404 1198 1044 305 42 7 0 0 79 763 798 938 1044 1201 1215 1072 1015 710 681 664 554 550 400 399 548 560 524 463 579 520 479 538
74 258 484 482 612 838 1201 1434 1479 1718 1595 1543 1299 895 63 7 3 2 21 0 0 509 747 963 969 996 1122 1081 920 705 625 569 687 727 716 495 581 333 391 438 593 580 424
0 0 157 395 494 575 731 1136 1337 1294 1035 1319 1036 774 386 66 1 0 0 2 0 79 838 835 952 929 1032 1027 1038 868 647 661 700 764 664 587 461 426 369 349 571 651 635
3 0 41 167 317 609 875 1077 1193 1135 913 949 1074 819 456 25 13 0 0 0 8 59 241 13 35 627 953 902 1042 1028 906 951 932 927 831 709 660 369 356 176 270 160 366
1 45 78 17 248 213 508 910 991 1043 873 866 874 793 291 138 86 21 64 12 27 19 17 0 0 0 94 304 601 916 950 1106 1006 854 763 616 478 112 119 74 135 56 81
40 13 53 8 0 6 135 435 1018 918 839 780 704 744 877 635 191 13 0 26 82 77 1 0 0 2 0 0 281 166 482 742 976 790 681 345 313 59 100 62 64 25 53
8 6 19 31 0 0 4 63 479 428 389 488 527 469 440 593 247 5 0 17 7 0 15 0 0 0 0 56 238 178 167 105 55 132 383 331 230 54 67 74 46 46 90
0 1 38 52 5 5 1 8 88 180 263 295 425 316 304 238 18 13 0 52 44 114 43 257 183 107 149 38 270 182 166 160 188 39 68 141 48 24 61 26 44 35 33
0 15 70 59 35 7 47 90 64 127 241 254 279 188 224 270 1 1 10 246 228 180 156 188 80 220 46 2 120 259 256 192 183 52 19 1 0 0 0 26 33 55 88
2 31 80 70 78 53 1 0 0 21 186 113 27 2 1 2 1 1 1 105 177 150 138 97 1 1 1 1 28 65 74 17 7 0 0 1 0 3 5 0 0 24 52
13 84 100 77 92 137 15 3 2 5 133 60 2 2 3 1 2 5 1 0 0 57 122 51 1 1 2 2 0 2 1 0 0 0 0 0 0 0 6 83 90 49 38
51 109 133 136 155 101 33 3 73 72 130 121 105 8 5 0 0 1 1 1 2 8 1 3 1 1 1 1 1 1 1 0 0 0 0 0 1 0 1 29 54 62 46
76 87 138 187 178 192 34 0 0 9 49 139 114 18 0 0 0 0 0 0 0 0 0 1 1 0 0 0 1 1 1 0 0 0 3 1 3 2 5 4 13 0 0
116 97 53 13 208 33 0 0 0 0 0 0 0 0 0 0 0 0 0 0 0 0 0 0 0 0 0 0 0 0 0 0 0 0 5 17 8 5 0 0 0 0 0
164 106 57 9 9 198 45 0 1 0 1 0 0 0 0 0 1 1 1 0 0 0 0 0 0 0 0 0 0 8 19 13 0 0 0 0 0 0 0 0 0 2 1
175 158 29 0 3 0 8 49 37 2 0 2 0 0 0 0 0 0 2 0 0 0 0 4 11 2 0 0 0 0 0 0 0 0 0 0 0 0 0 1 0 0 7
7 0 0 0 0 0 0 9 41 43 37 1 0 0 1 1 1 1 1 0 0 0 0 10 9 12 7 0 0 0 0 0 0 0 0 0 1 2 3 2 1 4 6
0 0 0 0 4 0 0 0 0 0 17 23 0 1 1 0 0 1 1 0 0 0 0 21 27 10 1 0 0 0 0 0 0 0 0 0 0 0 0 0 0 0 0
152 6 0 5 8 0 0 0 0 0 0 27 20 10 0 0 0 0 0 0 8 43 51 12 56 40 30 8 0 0 0 0 0 0 0 0 0 6 0 0 0 0 0
19 28 36 17 14 2 14 16 8 16 13 10 4 34 9 0 0 1 18 34 37 47 14 1 68 54 44 19 5 2 4 0 0 17 22 29 21 22 27 5 12 26 2
7 0 13 21 9 11 14 12 7 9 12 0 2 0 6 1 0 0 0 4 9 2 9 10 1 0 0 10 11 5 5 0 0 0 0 8 13 18 27 22 11 6 0
20 0 5 13 18 12 10 1 0 2 7 6 7 4 3 3 0 0 0 0 1 3 2 0 0 0 0 0 0 0 0 0 0 0 0 0 8 6 3 0 2 1 0
0 2 3 0 0 0 0 0 0 0 1 0 0 0 0 0 0 0 0 0 0 0 0 0 0 0 0 0 0 0 0 0 0 0 0 1 0 2 11 26 30 23 18
0 0 0 0 0 0 0 0 0 0 0 0 0 0 0 0 0 0 0 0 0 0 0 0 0 0 0 0 0 0 0 0 0 0 0 0 1 0 6 27 25 25 14
0 0 0 0 0 0 0 0 0 0 0 0 0 0 0 0 0 0 0 0 0 0 0 0 0 0 0 0 0 0 1 0 0 0 0 0 0 4 7 14 12 2 0